[[{"header":{"parameterUnit":"m.s-1","parameterCategory":1,"la1":31.0,"la2":29.5877,"lo1":-88.7671,"lo2":-86.6584,"dy":0.0162,"dx":0.0185,"nx":115,"ny":88,"refTime":"2023-04-03T00:00:00:Z","depth":0,"parameterNumber":2,"parameterNumberName":"U-component_of_WINDS"},"data":[0.0,0.0,0.0,0.0,0.0,0.0,0.0,0.0,0.0,0.0,0.0,0.0,0.0,0.0,0.0,0.0,0.0,0.0,0.0,0.0,0.0,0.0,0.0,0.0,0.0,0.0,0.0,0.0,0.0,0.0,0.0,0.0,0.0,0.0,0.0,0.0,0.0,0.0,0.0,0.0,0.0,0.0,0.0,0.0,0.0,0.0,0.0,0.0,0.0,0.0,0.0,0.0,0.0,0.0,0.0,0.0,0.0,0.0,0.0,0.0,0.0,0.0,0.0,0.0,0.0,0.0,0.0,0.0,0.0,0.0,0.0,0.0,0.0,0.0,0.0,0.0,0.0,0.0,0.0,0.0,0.0,0.0,0.0,0.0,0.0,0.0,0.0,0.0,0.0,0.0,0.0,0.0,0.0,0.0,0.0,0.0,0.0,0.0,0.0,0.0,0.0,0.0,0.0,0.0,0.0,0.0,0.0,0.0,0.0,0.0,0.0,0.0,0.0,0.0,0.0,0.0,0.0,0.0,0.0,0.0,0.0,0.0,0.0,0.0,0.0,0.0,0.0,0.0,0.0,0.0,0.0,0.0,0.0,0.0,0.0,0.0,0.0,0.0,0.0,0.0,0.0,0.0,0.0,0.0,0.0,0.0,0.0,0.0,0.0,0.0,0.0,0.0,0.0,0.0,0.0,0.0,0.0,0.0,0.0,0.0,0.0,0.0,0.0,0.0,0.0,0.0,0.0,0.0,0.0,0.0,0.0,0.0,0.0,0.0,0.0,0.0,0.0,0.0,0.0,0.0,0.0,0.0,0.0,0.0,0.0,0.0,0.0,0.0,0.0,0.0,0.0,0.0,0.0,0.0,0.0,0.0,0.0,0.0,0.0,0.0,0.0,0.0,0.0,0.0,0.0,0.0,0.0,0.0,0.0,0.0,0.0,0.0,0.0,0.0,0.0,0.0,0.0,0.0,0.0,0.0,0.0,0.0,0.0,0.0,0.0,0.0,0.0,0.0,0.0,0.0,0.0,0.0,0.0,0.0,0.0,0.0,0.0,0.0,0.0,0.0,0.0,0.0,0.0,0.0,0.0,0.0,0.0,0.0,0.0,0.0,0.0,0.0,0.0,0.0,0.0,0.0,0.0,0.0,0.0,0.0,0.0,0.0,0.0,0.0,0.0,0.0,0.0,0.0,0.0,0.0,0.0,0.0,0.0,0.0,0.0,0.0,0.0,0.0,0.0,0.0,0.0,0.0,0.0,0.0,0.0,0.0,0.0,0.0,0.0,0.0,0.0,0.0,0.0,0.0,0.0,0.0,0.0,0.0,0.0,0.0,0.0,0.0,0.0,0.0,0.0,0.0,0.0,0.0,0.0,0.0,0.0,0.0,0.0,0.0,0.0,0.0,0.0,0.0,0.0,0.0,0.0,0.0,0.0,0.0,0.0,0.0,0.0,0.0,0.0,0.0,0.0,0.0,0.0,0.0,0.0,0.0,0.0,0.0,0.0,0.0,0.0,0.0,0.0,0.0,0.0,0.0,0.0,0.0,0.0,0.0,0.0,0.0,0.0,0.0,0.0,0.0,0.0,0.0,0.0,0.0,0.0,0.0,0.0,0.0,0.0,0.0,0.0,0.0,0.0,0.0,0.0,0.0,0.0,0.0,0.0,0.0,0.0,0.0,0.0,0.0,0.0,0.0,0.0,0.0,0.0,0.0,0.0,0.0,0.0,0.0,0.0,0.0,0.0,0.0,0.0,0.0,0.0,0.0,0.0,0.0,0.0,0.0,0.0,0.0,0.0,0.0,0.0,0.0,0.0,0.0,0.0,0.0,0.0,0.0,0.0,0.0,0.0,0.0,0.0,0.0,0.0,0.0,0.0,0.0,0.0,0.0,0.0,0.0,0.0,0.0,0.0,0.0,0.0,0.0,0.0,0.0,0.0,0.0,0.0,0.0,0.0,0.0,0.0,0.0,0.0,0.0,0.0,0.0,0.0,0.0,0.0,0.0,0.0,0.0,0.0,0.0,0.0,0.0,0.0,0.0,0.0,0.0,0.0,0.0,0.0,0.0,0.0,0.0,0.0,0.0,0.0,0.0,0.0,0.0,0.0,0.0,0.0,0.0,0.0,0.0,0.0,0.0,0.0,0.0,0.0,0.0,0.0,0.0,0.0,0.0,0.0,0.0,0.0,0.0,0.0,0.0,0.0,0.0,0.0,0.0,0.0,0.0,0.0,0.0,0.0,0.0,0.0,0.0,0.0,0.0,0.0,0.0,0.0,0.0,0.0,0.0,0.0,0.0,0.0,0.0,0.0,0.0,0.0,0.0,0.0,0.0,0.0,0.0,0.0,0.0,0.0,0.0,0.0,0.0,0.0,0.0,0.0,0.0,0.0,0.0,0.0,0.0,0.0,0.0,0.0,0.0,0.0,0.0,0.0,0.0,0.0,0.0,0.0,0.0,0.0,0.0,0.0,0.0,0.0,0.0,0.0,0.0,0.0,0.0,0.0,0.0,0.0,0.0,0.0,0.0,0.0,0.0,0.0,0.0,0.0,0.0,0.0,0.0,0.0,0.0,0.0,0.0,0.0,0.0,0.0,0.0,0.0,0.0,0.0,0.0,0.0,0.0,0.0,0.0,0.0,0.0,0.0,0.0,0.0,0.0,0.0,0.0,0.0,0.0,0.0,0.0,0.0,0.0,0.0,0.0,0.0,0.0,0.0,0.0,0.0,0.0,0.0,0.0,0.0,0.0,0.0,0.0,0.0,0.0,0.0,0.0,0.0,0.0,0.0,0.0,0.0,0.0,0.0,0.0,0.0,0.0,0.0,0.0,0.0,0.0,0.0,0.0,0.0,0.0,0.0,0.0,0.0,0.0,0.0,0.0,0.0,0.0,0.0,0.0,0.0,0.0,0.0,0.0,0.0,0.0,0.0,0.0,0.0,0.0,0.0,0.0,0.0,0.0,0.0,0.0,0.0,0.0,0.0,0.0,0.0,0.0,0.0,0.0,0.0,0.0,0.0,0.0,0.0,0.0,0.0,0.0,0.0,0.0,0.0,0.0,0.0,0.0,0.0,0.0,0.0,0.0,0.0,0.0,0.0,0.0,0.0,0.0,0.0,0.0,0.0,0.0,0.0,0.0,0.0,0.0,0.0,0.0,0.0,0.0,0.0,0.0,0.0,0.0,0.0,0.0,0.0,0.0,0.0,0.0,0.0,0.0,0.0,0.0,0.0,0.0,0.0,0.0,0.0,0.0,0.0,0.0,0.0,0.0,0.0,0.0,0.0,0.0,0.0,0.0,0.0,0.0,0.0,0.0,0.0,0.0,0.0,0.0,0.0,0.0,0.0,0.0,0.0,0.0,0.0,0.0,0.0,0.0,0.0,0.0,0.0,0.0,0.0,0.0,0.0,0.0,0.0,0.0,0.0,0.0,0.0,0.0,0.0,0.0,0.0,0.0,0.0,0.0,0.0,0.0,0.0,0.0,0.0,0.0,0.0,0.0,0.0,0.0,0.0,0.0,0.0,0.0,0.0,0.0,0.0,0.0,0.0,0.0,0.0,0.0,0.0,0.0,0.0,0.0,0.0,0.0,0.0,0.0,0.0,0.0,0.0,0.0,0.0,0.0,0.0,0.0,0.0,0.0,0.0,0.0,0.0,0.0,0.0,0.0,0.0,0.0,0.0,0.0,0.0,0.0,0.0,0.0,0.0,0.0,0.0,0.0,0.0,0.0,0.0,0.0,0.0,0.0,0.0,0.0,0.0,0.0,0.0,0.0,0.0,0.0,0.0,0.0,0.0,0.0,0.0,0.0,0.0,0.0,0.0,0.0,0.0,0.0,0.0,0.0,0.0,0.0,0.0,0.0,0.0,0.0,0.0,0.0,0.0,0.0,0.0,0.0,0.0,0.0,0.0,0.0,0.0,0.0,0.0,0.0,0.0,0.0,0.0,0.0,0.0,0.0,0.0,0.0,0.0,0.0,0.0,0.0,0.0,0.0,0.0,0.0,0.0,0.0,0.0,0.0,0.0,0.0,0.0,0.0,0.0,0.0,0.0,0.0,0.0,0.0,0.0,0.0,0.0,0.0,0.0,0.0,0.0,0.0,0.0,0.0,0.0,0.0,0.0,0.0,0.0,0.0,0.0,0.0,0.0,0.0,0.0,0.0,0.0,0.0,0.0,0.0,0.0,0.0,0.0,0.0,0.0,0.0,0.0,0.0,0.0,0.0,0.0,0.0,0.0,0.0,0.0,0.0,0.0,0.0,0.0,0.0,0.0,0.0,-4.4946,0.0,0.0,0.0,0.0,0.0,0.0,0.0,0.0,0.0,0.0,0.0,0.0,0.0,0.0,0.0,0.0,0.0,0.0,0.0,0.0,0.0,0.0,0.0,0.0,0.0,0.0,0.0,0.0,0.0,0.0,0.0,0.0,0.0,0.0,0.0,0.0,0.0,0.0,0.0,0.0,0.0,0.0,0.0,0.0,0.0,0.0,0.0,0.0,0.0,0.0,0.0,0.0,0.0,0.0,0.0,0.0,0.0,0.0,0.0,0.0,0.0,0.0,0.0,0.0,0.0,0.0,0.0,0.0,0.0,0.0,0.0,0.0,0.0,0.0,0.0,0.0,0.0,0.0,0.0,0.0,0.0,0.0,0.0,0.0,0.0,0.0,0.0,0.0,0.0,0.0,0.0,0.0,0.0,0.0,0.0,0.0,0.0,0.0,0.0,0.0,0.0,0.0,0.0,0.0,0.0,0.0,0.0,0.0,0.0,0.0,-4.7247,-4.677,-4.6325,-4.5865,-4.5391,0.0,0.0,0.0,0.0,0.0,0.0,0.0,0.0,0.0,0.0,0.0,0.0,0.0,0.0,0.0,0.0,0.0,0.0,0.0,0.0,0.0,0.0,0.0,0.0,0.0,0.0,0.0,0.0,0.0,0.0,0.0,0.0,0.0,0.0,0.0,0.0,0.0,0.0,0.0,0.0,0.0,0.0,0.0,0.0,0.0,0.0,0.0,0.0,0.0,0.0,0.0,0.0,0.0,0.0,0.0,0.0,0.0,0.0,0.0,0.0,0.0,0.0,0.0,0.0,0.0,0.0,0.0,0.0,0.0,0.0,0.0,0.0,0.0,0.0,0.0,0.0,0.0,0.0,0.0,0.0,0.0,0.0,0.0,0.0,0.0,0.0,0.0,0.0,0.0,0.0,0.0,0.0,0.0,0.0,0.0,0.0,0.0,0.0,0.0,0.0,0.0,0.0,0.0,0.0,0.0,0.0,0.0,0.0,0.0,0.0,0.0,0.0,-4.6374,-4.581,-4.5474,0.0,0.0,0.0,0.0,0.0,0.0,0.0,0.0,0.0,0.0,0.0,0.0,0.0,0.0,0.0,0.0,0.0,0.0,0.0,0.0,0.0,0.0,0.0,0.0,0.0,0.0,0.0,0.0,0.0,0.0,0.0,0.0,0.0,0.0,0.0,0.0,0.0,0.0,0.0,0.0,0.0,0.0,0.0,0.0,0.0,0.0,0.0,0.0,0.0,0.0,0.0,0.0,0.0,0.0,0.0,0.0,0.0,0.0,0.0,0.0,0.0,0.0,0.0,0.0,0.0,0.0,0.0,0.0,0.0,0.0,0.0,0.0,0.0,0.0,0.0,0.0,0.0,0.0,0.0,0.0,0.0,0.0,0.0,0.0,0.0,0.0,0.0,0.0,0.0,0.0,0.0,0.0,0.0,0.0,0.0,0.0,0.0,0.0,0.0,0.0,0.0,0.0,0.0,0.0,0.0,0.0,0.0,0.0,0.0,0.0,-4.7893,-4.7194,-4.6298,0.0,-4.4644,0.0,0.0,0.0,0.0,0.0,0.0,0.0,0.0,0.0,0.0,0.0,0.0,0.0,0.0,0.0,0.0,0.0,0.0,0.0,0.0,0.0,0.0,0.0,0.0,0.0,0.0,0.0,0.0,0.0,0.0,0.0,0.0,0.0,0.0,0.0,0.0,0.0,0.0,0.0,0.0,0.0,0.0,0.0,0.0,0.0,0.0,0.0,0.0,0.0,0.0,0.0,0.0,0.0,0.0,0.0,0.0,0.0,0.0,0.0,0.0,0.0,0.0,0.0,0.0,0.0,0.0,0.0,0.0,0.0,0.0,0.0,0.0,0.0,0.0,0.0,0.0,0.0,0.0,0.0,0.0,0.0,0.0,0.0,0.0,0.0,0.0,0.0,0.0,0.0,0.0,0.0,0.0,0.0,0.0,0.0,0.0,0.0,0.0,0.0,0.0,0.0,0.0,0.0,0.0,0.0,0.0,0.0,0.0,0.0,0.0,-4.7884,-4.696,-4.604,-4.5356,0.0,0.0,0.0,0.0,0.0,0.0,0.0,0.0,0.0,0.0,0.0,0.0,0.0,0.0,0.0,0.0,0.0,0.0,0.0,0.0,0.0,0.0,0.0,0.0,0.0,0.0,0.0,0.0,0.0,0.0,0.0,0.0,0.0,0.0,0.0,0.0,0.0,0.0,0.0,0.0,0.0,0.0,0.0,0.0,0.0,0.0,0.0,0.0,0.0,0.0,0.0,0.0,0.0,0.0,0.0,0.0,0.0,0.0,0.0,0.0,0.0,0.0,0.0,0.0,0.0,0.0,0.0,0.0,0.0,0.0,0.0,0.0,0.0,0.0,0.0,0.0,0.0,0.0,0.0,0.0,0.0,0.0,0.0,0.0,0.0,0.0,0.0,0.0,0.0,0.0,0.0,0.0,0.0,0.0,0.0,0.0,0.0,0.0,0.0,0.0,0.0,0.0,0.0,0.0,0.0,0.0,0.0,0.0,0.0,0.0,-4.8434,-4.7413,-4.6472,-4.5726,-4.5283,-4.5203,0.0,0.0,0.0,0.0,0.0,0.0,0.0,0.0,0.0,0.0,0.0,0.0,0.0,0.0,0.0,0.0,0.0,0.0,0.0,0.0,0.0,0.0,0.0,0.0,0.0,0.0,0.0,0.0,0.0,0.0,0.0,0.0,0.0,0.0,0.0,0.0,0.0,0.0,0.0,0.0,0.0,0.0,0.0,0.0,0.0,0.0,0.0,0.0,0.0,0.0,0.0,0.0,0.0,0.0,0.0,0.0,0.0,0.0,0.0,0.0,0.0,0.0,0.0,0.0,0.0,0.0,0.0,0.0,0.0,0.0,0.0,0.0,0.0,0.0,0.0,0.0,0.0,0.0,0.0,0.0,0.0,0.0,0.0,0.0,0.0,0.0,0.0,0.0,0.0,0.0,0.0,0.0,0.0,0.0,0.0,0.0,0.0,0.0,0.0,0.0,0.0,0.0,0.0,0.0,0.0,0.0,0.0,0.0,-4.9423,-4.776,-4.6411,-4.5527,-4.5291,-4.5203,0.0,0.0,0.0,0.0,0.0,0.0,0.0,0.0,0.0,0.0,0.0,0.0,0.0,0.0,0.0,0.0,0.0,0.0,0.0,0.0,0.0,0.0,0.0,0.0,0.0,0.0,0.0,0.0,0.0,0.0,0.0,0.0,0.0,0.0,0.0,0.0,0.0,0.0,0.0,0.0,0.0,0.0,0.0,0.0,0.0,0.0,0.0,0.0,0.0,0.0,0.0,0.0,0.0,0.0,0.0,0.0,0.0,0.0,0.0,0.0,0.0,0.0,0.0,0.0,0.0,0.0,0.0,0.0,0.0,0.0,0.0,0.0,0.0,0.0,0.0,0.0,0.0,0.0,0.0,0.0,0.0,0.0,0.0,0.0,0.0,0.0,0.0,0.0,0.0,0.0,0.0,0.0,0.0,0.0,0.0,0.0,0.0,0.0,0.0,0.0,0.0,0.0,0.0,0.0,0.0,0.0,0.0,0.0,0.0,-4.7795,-4.6541,-4.5699,-4.5291,-4.5203,-4.5096,0.0,0.0,0.0,0.0,0.0,0.0,0.0,0.0,0.0,0.0,0.0,0.0,0.0,0.0,0.0,0.0,0.0,0.0,0.0,0.0,0.0,0.0,0.0,0.0,0.0,0.0,0.0,0.0,0.0,0.0,0.0,0.0,0.0,0.0,0.0,0.0,0.0,0.0,0.0,0.0,0.0,0.0,0.0,0.0,0.0,0.0,0.0,0.0,0.0,0.0,0.0,0.0,0.0,0.0,0.0,0.0,0.0,0.0,0.0,0.0,0.0,0.0,0.0,0.0,0.0,0.0,0.0,0.0,0.0,0.0,0.0,0.0,0.0,0.0,0.0,0.0,0.0,0.0,0.0,0.0,0.0,0.0,0.0,0.0,0.0,0.0,0.0,0.0,0.0,0.0,0.0,0.0,0.0,0.0,0.0,0.0,0.0,0.0,0.0,0.0,0.0,0.0,0.0,0.0,0.0,0.0,0.0,0.0,0.0,-4.6411,0.0,-4.5283,-4.5203,-4.513,-4.4995,0.0,0.0,0.0,0.0,0.0,0.0,0.0,0.0,0.0,0.0,0.0,0.0,0.0,0.0,0.0,0.0,0.0,0.0,0.0,0.0,0.0,0.0,0.0,0.0,0.0,0.0,0.0,0.0,0.0,0.0,0.0,0.0,0.0,0.0,0.0,0.0,0.0,0.0,0.0,0.0,0.0,0.0,0.0,0.0,0.0,0.0,0.0,0.0,0.0,0.0,0.0,0.0,0.0,0.0,0.0,0.0,0.0,0.0,0.0,0.0,0.0,0.0,0.0,0.0,0.0,0.0,0.0,0.0,0.0,0.0,0.0,0.0,0.0,0.0,0.0,0.0,0.0,0.0,0.0,0.0,0.0,0.0,0.0,0.0,0.0,0.0,0.0,0.0,0.0,0.0,0.0,0.0,0.0,0.0,0.0,0.0,0.0,0.0,0.0,0.0,0.0,0.0,0.0,0.0,0.0,0.0,0.0,0.0,-4.7138,-4.5466,-4.5291,-4.5203,-4.5203,-4.4968,-4.4803,0.0,0.0,0.0,0.0,0.0,0.0,0.0,0.0,0.0,0.0,0.0,0.0,0.0,0.0,0.0,0.0,0.0,0.0,0.0,0.0,0.0,0.0,0.0,0.0,0.0,0.0,0.0,0.0,0.0,0.0,0.0,0.0,0.0,0.0,0.0,0.0,0.0,0.0,0.0,0.0,0.0,0.0,0.0,0.0,0.0,0.0,0.0,0.0,0.0,0.0,0.0,0.0,0.0,0.0,0.0,0.0,0.0,0.0,0.0,0.0,0.0,0.0,0.0,0.0,0.0,0.0,0.0,0.0,0.0,0.0,0.0,0.0,0.0,0.0,0.0,0.0,0.0,0.0,0.0,0.0,0.0,0.0,0.0,0.0,0.0,0.0,0.0,0.0,0.0,0.0,0.0,0.0,0.0,0.0,0.0,0.0,0.0,0.0,0.0,0.0,0.0,0.0,0.0,0.0,0.0,0.0,0.0,0.0,0.0,-4.5466,-4.5257,-4.515,-4.5042,-4.4886,-4.4748,0.0,0.0,0.0,0.0,0.0,0.0,0.0,0.0,0.0,0.0,0.0,0.0,0.0,0.0,0.0,0.0,0.0,0.0,0.0,0.0,0.0,0.0,0.0,0.0,0.0,0.0,0.0,0.0,0.0,0.0,0.0,0.0,0.0,0.0,0.0,0.0,0.0,0.0,0.0,0.0,0.0,0.0,0.0,0.0,0.0,0.0,0.0,0.0,0.0,0.0,0.0,0.0,0.0,0.0,0.0,0.0,0.0,0.0,0.0,0.0,0.0,0.0,0.0,0.0,0.0,0.0,0.0,0.0,0.0,0.0,0.0,0.0,0.0,0.0,0.0,0.0,0.0,0.0,0.0,0.0,0.0,0.0,0.0,0.0,0.0,0.0,0.0,0.0,0.0,0.0,0.0,0.0,0.0,0.0,0.0,0.0,0.0,0.0,0.0,0.0,0.0,0.0,0.0,0.0,0.0,0.0,0.0,0.0,0.0,-4.6293,-4.6062,-4.5898,-4.5815,-4.5382,-4.5106,-4.5021,0.0,0.0,0.0,0.0,0.0,0.0,0.0,0.0,0.0,0.0,0.0,0.0,0.0,0.0,0.0,0.0,0.0,0.0,0.0,0.0,0.0,0.0,0.0,0.0,0.0,0.0,0.0,0.0,0.0,0.0,0.0,0.0,0.0,0.0,0.0,0.0,0.0,0.0,0.0,0.0,0.0,0.0,0.0,0.0,0.0,0.0,0.0,0.0,0.0,0.0,0.0,0.0,0.0,0.0,0.0,0.0,0.0,0.0,0.0,0.0,0.0,0.0,0.0,0.0,0.0,0.0,0.0,0.0,0.0,0.0,0.0,0.0,0.0,0.0,0.0,0.0,0.0,0.0,0.0,0.0,0.0,0.0,0.0,0.0,0.0,0.0,0.0,0.0,0.0,0.0,0.0,0.0,0.0,0.0,0.0,0.0,0.0,0.0,0.0,0.0,0.0,0.0,0.0,0.0,0.0,0.0,0.0,0.0,-4.7872,-4.7495,-4.7255,-4.7153,-4.6253,-4.5771,0.0,0.0,0.0,0.0,0.0,0.0,0.0,0.0,0.0,0.0,0.0,0.0,0.0,0.0,0.0,0.0,0.0,0.0,0.0,0.0,0.0,0.0,0.0,0.0,0.0,0.0,0.0,0.0,0.0,0.0,0.0,0.0,0.0,0.0,0.0,0.0,0.0,0.0,0.0,0.0,0.0,0.0,0.0,0.0,0.0,0.0,0.0,0.0,0.0,0.0,0.0,0.0,0.0,0.0,0.0,0.0,0.0,0.0,0.0,0.0,0.0,0.0,0.0,0.0,0.0,0.0,0.0,0.0,0.0,0.0,0.0,0.0,0.0,0.0,0.0,0.0,0.0,0.0,0.0,0.0,0.0,0.0,0.0,0.0,0.0,0.0,0.0,0.0,0.0,0.0,0.0,0.0,0.0,0.0,0.0,0.0,0.0,0.0,0.0,0.0,0.0,0.0,0.0,0.0,0.0,0.0,0.0,0.0,0.0,-4.9396,-4.9066,-4.8343,-4.7221,-4.6758,-4.6515,0.0,0.0,0.0,0.0,0.0,0.0,0.0,0.0,0.0,0.0,0.0,0.0,0.0,0.0,0.0,0.0,0.0,0.0,0.0,0.0,0.0,0.0,0.0,0.0,0.0,0.0,0.0,0.0,0.0,0.0,0.0,0.0,0.0,0.0,0.0,0.0,0.0,0.0,0.0,0.0,0.0,0.0,0.0,0.0,0.0,0.0,0.0,0.0,0.0,0.0,0.0,0.0,0.0,0.0,0.0,0.0,0.0,0.0,0.0,0.0,0.0,0.0,0.0,0.0,0.0,0.0,0.0,0.0,0.0,0.0,0.0,0.0,0.0,0.0,0.0,0.0,0.0,0.0,0.0,0.0,0.0,0.0,0.0,0.0,0.0,0.0,0.0,0.0,0.0,0.0,0.0,0.0,0.0,0.0,0.0,0.0,0.0,0.0,0.0,0.0,0.0,0.0,0.0,0.0,0.0,0.0,0.0,0.0,-5.0011,-4.9982,-4.9683,-4.9061,-4.8172,-4.7607,-4.7259,0.0,0.0,0.0,0.0,0.0,0.0,0.0,0.0,0.0,0.0,0.0,0.0,0.0,0.0,0.0,0.0,0.0,0.0,0.0,0.0,0.0,0.0,0.0,0.0,0.0,0.0,0.0,0.0,0.0,0.0,0.0,0.0,0.0,0.0,0.0,0.0,0.0,0.0,0.0,0.0,0.0,0.0,0.0,0.0,0.0,0.0,0.0,0.0,0.0,0.0,0.0,0.0,0.0,0.0,0.0,0.0,0.0,0.0,0.0,0.0,0.0,0.0,0.0,0.0,0.0,0.0,0.0,0.0,0.0,0.0,0.0,0.0,0.0,0.0,0.0,0.0,0.0,0.0,0.0,0.0,0.0,0.0,0.0,0.0,0.0,0.0,0.0,0.0,0.0,0.0,0.0,0.0,0.0,0.0,0.0,0.0,0.0,0.0,0.0,0.0,0.0,0.0,0.0,0.0,0.0,0.0,0.0,0.0,-5.0085,-5.0085,-4.9889,-4.9676,-4.9573,-4.8591,-4.8007,0.0,0.0,0.0,0.0,0.0,0.0,0.0,0.0,0.0,0.0,0.0,0.0,0.0,0.0,0.0,0.0,0.0,0.0,0.0,0.0,0.0,0.0,0.0,0.0,0.0,0.0,0.0,0.0,0.0,0.0,0.0,0.0,0.0,0.0,0.0,0.0,0.0,0.0,0.0,0.0,0.0,0.0,0.0,0.0,0.0,0.0,0.0,0.0,0.0,0.0,0.0,0.0,0.0,0.0,0.0,0.0,0.0,0.0,0.0,0.0,0.0,0.0,0.0,0.0,0.0,0.0,0.0,0.0,0.0,0.0,0.0,0.0,0.0,0.0,0.0,0.0,0.0,0.0,0.0,0.0,0.0,0.0,0.0,0.0,0.0,0.0,0.0,0.0,0.0,0.0,0.0,0.0,0.0,0.0,0.0,0.0,0.0,0.0,0.0,0.0,0.0,0.0,0.0,0.0,0.0,0.0,0.0,0.0,-5.0695,-5.0729,-5.1066,-5.094,-5.0389,-4.9338,-4.8781,0.0,0.0,0.0,0.0,0.0,0.0,0.0,0.0,0.0,0.0,0.0,0.0,0.0,0.0,0.0,0.0,0.0,0.0,0.0,0.0,0.0,0.0,0.0,0.0,0.0,0.0,0.0,0.0,0.0,0.0,0.0,0.0,0.0,0.0,0.0,0.0,0.0,0.0,0.0,0.0,0.0,0.0,0.0,0.0,0.0,0.0,0.0,0.0,-4.1588,0.0,0.0,0.0,0.0,0.0,0.0,0.0,0.0,0.0,0.0,0.0,0.0,0.0,0.0,0.0,0.0,0.0,0.0,0.0,0.0,0.0,0.0,0.0,0.0,0.0,0.0,0.0,0.0,0.0,0.0,0.0,0.0,0.0,0.0,0.0,0.0,0.0,0.0,0.0,0.0,0.0,0.0,0.0,0.0,0.0,0.0,0.0,0.0,0.0,0.0,0.0,0.0,0.0,0.0,0.0,0.0,0.0,0.0,0.0,-5.0905,-5.0909,-5.1412,-5.135,-5.0598,-4.9882,-4.9357,0.0,0.0,0.0,0.0,0.0,0.0,0.0,0.0,0.0,0.0,0.0,0.0,0.0,0.0,0.0,0.0,0.0,0.0,0.0,0.0,0.0,0.0,0.0,0.0,0.0,0.0,0.0,0.0,0.0,0.0,0.0,0.0,0.0,0.0,0.0,0.0,0.0,0.0,0.0,0.0,0.0,0.0,0.0,0.0,0.0,0.0,0.0,0.0,0.0,0.0,0.0,0.0,0.0,0.0,0.0,0.0,0.0,0.0,0.0,0.0,0.0,0.0,0.0,0.0,0.0,0.0,0.0,0.0,0.0,0.0,0.0,0.0,0.0,0.0,0.0,0.0,0.0,0.0,0.0,0.0,0.0,0.0,0.0,0.0,0.0,0.0,0.0,0.0,0.0,0.0,0.0,0.0,0.0,0.0,0.0,0.0,0.0,0.0,0.0,0.0,0.0,0.0,0.0,0.0,0.0,0.0,0.0,-5.051,-5.1017,-5.1051,-5.1685,-5.1623,-5.0803,-5.0425,-4.9864,-4.9018,0.0,0.0,0.0,0.0,0.0,0.0,0.0,0.0,0.0,0.0,0.0,0.0,0.0,0.0,0.0,0.0,0.0,0.0,0.0,0.0,0.0,0.0,0.0,0.0,0.0,0.0,0.0,0.0,0.0,0.0,0.0,0.0,0.0,0.0,0.0,0.0,0.0,0.0,-4.1078,-4.2584,0.0,0.0,0.0,0.0,0.0,0.0,0.0,0.0,-4.2853,0.0,0.0,0.0,0.0,0.0,0.0,0.0,0.0,0.0,0.0,0.0,0.0,0.0,0.0,0.0,0.0,0.0,0.0,0.0,0.0,0.0,0.0,0.0,0.0,0.0,0.0,0.0,0.0,0.0,0.0,0.0,0.0,0.0,0.0,0.0,0.0,0.0,0.0,0.0,0.0,0.0,0.0,0.0,0.0,0.0,0.0,0.0,0.0,0.0,0.0,0.0,0.0,0.0,0.0,0.0,0.0,-4.926,-5.0841,-5.1648,-5.1682,-5.2919,-5.2987,-5.1654,-5.124,-5.0405,-4.9086,0.0,0.0,0.0,0.0,0.0,0.0,0.0,0.0,0.0,0.0,0.0,0.0,0.0,0.0,0.0,0.0,0.0,0.0,0.0,0.0,0.0,0.0,0.0,0.0,0.0,0.0,0.0,0.0,0.0,0.0,0.0,0.0,0.0,0.0,0.0,0.0,0.0,0.0,0.0,-4.3364,-4.3587,0.0,0.0,0.0,0.0,0.0,0.0,0.0,0.0,-4.3482,0.0,0.0,0.0,0.0,0.0,0.0,0.0,0.0,0.0,0.0,0.0,0.0,0.0,0.0,0.0,0.0,0.0,0.0,0.0,0.0,0.0,0.0,0.0,0.0,0.0,0.0,0.0,0.0,0.0,0.0,0.0,0.0,0.0,0.0,0.0,0.0,0.0,0.0,0.0,0.0,0.0,0.0,0.0,0.0,0.0,0.0,0.0,0.0,0.0,0.0,0.0,0.0,0.0,0.0,0.0,-4.9749,-5.1086,-5.193,-5.2213,-5.3367,-5.3231,-5.17,-5.1346,-5.0541,0.0,0.0,0.0,0.0,0.0,0.0,0.0,0.0,0.0,0.0,0.0,0.0,0.0,0.0,0.0,0.0,0.0,0.0,0.0,0.0,0.0,0.0,0.0,0.0,0.0,0.0,0.0,0.0,0.0,0.0,0.0,0.0,0.0,0.0,0.0,0.0,0.0,0.0,0.0,0.0,-4.4137,-4.4582,-4.4631,0.0,0.0,0.0,0.0,0.0,0.0,-4.4138,-4.3941,0.0,0.0,0.0,0.0,0.0,0.0,0.0,0.0,0.0,0.0,0.0,0.0,0.0,0.0,0.0,0.0,0.0,0.0,0.0,0.0,0.0,0.0,0.0,0.0,0.0,0.0,0.0,0.0,0.0,0.0,0.0,0.0,0.0,0.0,0.0,0.0,0.0,0.0,0.0,0.0,0.0,0.0,0.0,0.0,0.0,0.0,0.0,0.0,0.0,0.0,0.0,0.0,0.0,0.0,0.0,-5.0098,-5.1194,-5.2006,-5.2629,-5.3474,-5.3166,-5.1573,-5.1314,-5.0507,0.0,0.0,0.0,0.0,0.0,0.0,0.0,0.0,0.0,0.0,0.0,0.0,0.0,0.0,0.0,0.0,0.0,0.0,0.0,0.0,0.0,0.0,0.0,0.0,0.0,0.0,0.0,0.0,0.0,0.0,0.0,0.0,0.0,0.0,0.0,0.0,0.0,0.0,0.0,0.0,0.0,-4.5477,-4.5257,-4.5695,0.0,0.0,0.0,0.0,-4.4962,-4.4688,0.0,0.0,0.0,0.0,0.0,0.0,0.0,0.0,0.0,0.0,0.0,0.0,0.0,0.0,0.0,0.0,0.0,0.0,0.0,0.0,0.0,0.0,0.0,0.0,0.0,0.0,0.0,0.0,0.0,0.0,0.0,0.0,0.0,0.0,0.0,0.0,0.0,0.0,0.0,0.0,0.0,0.0,0.0,0.0,0.0,0.0,0.0,0.0,0.0,0.0,0.0,0.0,0.0,0.0,0.0,0.0,-5.0132,-5.1068,-5.1879,-5.2595,-5.3343,-5.3036,-5.1541,-5.1282,-5.0475,0.0,0.0,0.0,0.0,0.0,0.0,0.0,0.0,0.0,0.0,0.0,0.0,0.0,0.0,0.0,0.0,0.0,0.0,0.0,0.0,0.0,0.0,0.0,0.0,0.0,0.0,0.0,0.0,0.0,0.0,0.0,0.0,0.0,0.0,0.0,0.0,0.0,0.0,0.0,0.0,0.0,-4.5498,-4.5925,-4.5905,-4.5823,0.0,0.0,-4.5505,-4.5442,-4.5227,0.0,0.0,0.0,0.0,0.0,0.0,0.0,0.0,0.0,0.0,0.0,0.0,0.0,0.0,0.0,0.0,0.0,0.0,0.0,0.0,0.0,0.0,0.0,0.0,0.0,0.0,0.0,0.0,0.0,0.0,0.0,0.0,0.0,0.0,0.0,0.0,0.0,0.0,0.0,0.0,0.0,0.0,0.0,0.0,0.0,0.0,0.0,0.0,0.0,0.0,0.0,0.0,0.0,0.0,0.0,-4.9777,-5.0676,-5.124,-5.2019,-5.3042,-5.3481,-5.2938,-5.1348,-5.1249,-5.0507,0.0,0.0,0.0,0.0,0.0,0.0,0.0,0.0,0.0,0.0,0.0,0.0,0.0,0.0,0.0,0.0,0.0,0.0,0.0,0.0,0.0,0.0,0.0,0.0,0.0,0.0,0.0,0.0,0.0,0.0,0.0,0.0,0.0,0.0,0.0,0.0,0.0,0.0,0.0,0.0,0.0,0.0,-4.5905,-4.5859,0.0,0.0,0.0,-4.5494,-4.5346,0.0,0.0,0.0,0.0,0.0,0.0,0.0,0.0,0.0,0.0,0.0,0.0,0.0,0.0,0.0,0.0,0.0,0.0,0.0,0.0,0.0,0.0,0.0,0.0,0.0,0.0,0.0,0.0,0.0,0.0,0.0,0.0,0.0,0.0,0.0,0.0,0.0,0.0,0.0,0.0,0.0,0.0,0.0,0.0,0.0,0.0,0.0,0.0,0.0,0.0,0.0,0.0,0.0,0.0,0.0,0.0,0.0,-5.1183,-5.1346,-5.2092,-5.3416,-5.3584,-5.2872,-5.1285,-5.1217,0.0,0.0,0.0,0.0,0.0,0.0,0.0,0.0,0.0,0.0,0.0,0.0,0.0,0.0,0.0,0.0,0.0,0.0,0.0,0.0,0.0,0.0,0.0,0.0,0.0,0.0,0.0,-4.2523,0.0,0.0,0.0,0.0,0.0,0.0,0.0,0.0,0.0,0.0,0.0,0.0,0.0,0.0,-4.604,-4.5859,-4.5913,-4.5898,0.0,0.0,-4.5747,-4.541,-4.5228,-4.5022,0.0,0.0,0.0,0.0,0.0,0.0,0.0,0.0,0.0,0.0,0.0,0.0,0.0,0.0,0.0,0.0,0.0,0.0,0.0,0.0,0.0,0.0,0.0,0.0,0.0,0.0,0.0,0.0,0.0,0.0,0.0,0.0,0.0,0.0,0.0,0.0,0.0,0.0,0.0,0.0,0.0,0.0,0.0,0.0,0.0,0.0,0.0,0.0,0.0,0.0,0.0,0.0,0.0,0.0,0.0,-5.115,-5.1217,-5.1961,-5.345,-5.3518,-5.2773,-5.1285,-5.1217,-5.0507,0.0,0.0,0.0,0.0,0.0,0.0,0.0,0.0,0.0,0.0,0.0,0.0,0.0,0.0,0.0,0.0,0.0,0.0,0.0,0.0,0.0,0.0,0.0,0.0,0.0,0.0,0.0,0.0,0.0,0.0,0.0,0.0,0.0,0.0,0.0,0.0,0.0,0.0,0.0,0.0,0.0,-4.604,-4.5859,-4.6181,-4.6479,0.0,0.0,-4.6586,-4.5966,-4.565,-4.5349,-4.4733,0.0,0.0,0.0,0.0,0.0,0.0,0.0,0.0,0.0,0.0,0.0,0.0,0.0,0.0,0.0,0.0,0.0,0.0,0.0,0.0,0.0,0.0,0.0,0.0,0.0,0.0,0.0,0.0,0.0,0.0,0.0,0.0,0.0,0.0,0.0,0.0,0.0,0.0,0.0,0.0,0.0,0.0,0.0,0.0,0.0,0.0,0.0,0.0,0.0,0.0,0.0,0.0,0.0,-4.9791,-5.1183,-5.1217,-5.1961,-5.3416,-5.3518,-5.2773,-5.1219,-5.1217,-5.0507,0.0,0.0,0.0,0.0,0.0,0.0,0.0,0.0,0.0,0.0,0.0,0.0,0.0,0.0,0.0,0.0,0.0,0.0,0.0,0.0,0.0,0.0,0.0,0.0,0.0,0.0,0.0,0.0,-4.5289,-4.5334,-4.5832,0.0,0.0,0.0,0.0,0.0,0.0,0.0,0.0,0.0,0.0,-4.646,-4.6276,-4.673,0.0,0.0,-4.685,-4.6787,-4.6391,-4.6282,-4.5957,-4.5349,-4.5226,0.0,0.0,0.0,0.0,0.0,0.0,0.0,0.0,0.0,0.0,0.0,0.0,0.0,0.0,0.0,0.0,0.0,0.0,0.0,0.0,0.0,0.0,0.0,0.0,0.0,0.0,0.0,0.0,0.0,0.0,0.0,0.0,0.0,0.0,0.0,0.0,0.0,0.0,0.0,0.0,0.0,0.0,0.0,0.0,0.0,0.0,0.0,0.0,0.0,0.0,0.0,0.0,-4.9965,-5.1217,-5.142,-5.2164,-5.3484,-5.3518,-5.2773,-5.1252,-5.1217,-5.0509,0.0,0.0,0.0,0.0,0.0,0.0,0.0,0.0,0.0,0.0,0.0,0.0,0.0,0.0,0.0,0.0,0.0,0.0,0.0,0.0,0.0,0.0,0.0,0.0,0.0,0.0,0.0,0.0,-4.5992,-4.6127,-4.6386,0.0,0.0,0.0,0.0,0.0,0.0,0.0,0.0,0.0,0.0,-4.6728,-4.6542,-4.7181,-4.7622,-4.7238,-4.7305,-4.7287,-4.6982,-4.688,-4.6665,-4.5988,0.0,0.0,0.0,0.0,0.0,0.0,0.0,0.0,0.0,0.0,0.0,0.0,0.0,0.0,0.0,0.0,0.0,0.0,0.0,0.0,0.0,0.0,0.0,0.0,0.0,0.0,0.0,0.0,0.0,0.0,-5.3114,0.0,0.0,0.0,0.0,0.0,0.0,0.0,0.0,0.0,0.0,0.0,0.0,0.0,0.0,0.0,0.0,0.0,0.0,0.0,0.0,0.0,0.0,-5.0439,-5.1217,-5.1894,-5.2672,-5.3484,-5.3518,-5.2773,-5.1286,-5.1217,-5.0507,-4.9052,0.0,0.0,0.0,0.0,0.0,0.0,0.0,0.0,0.0,0.0,0.0,0.0,0.0,0.0,0.0,0.0,0.0,0.0,0.0,0.0,0.0,0.0,0.0,0.0,0.0,0.0,-4.6551,-4.6945,-4.7135,0.0,0.0,0.0,0.0,0.0,0.0,0.0,0.0,0.0,0.0,-4.6502,-4.676,-4.6573,-4.7504,-4.8182,-4.7911,-4.8265,-4.8327,-4.7681,-4.7588,-4.7342,0.0,0.0,0.0,0.0,0.0,0.0,0.0,0.0,0.0,0.0,0.0,0.0,0.0,0.0,0.0,0.0,0.0,0.0,0.0,0.0,0.0,0.0,0.0,0.0,0.0,0.0,0.0,-5.5207,-5.4539,0.0,0.0,0.0,0.0,0.0,0.0,0.0,0.0,0.0,0.0,0.0,-5.0757,-5.0564,0.0,0.0,0.0,0.0,0.0,0.0,0.0,0.0,0.0,0.0,0.0,0.0,-5.071,-5.1894,-5.2164,-5.2706,-5.3484,-5.3518,-5.301,-5.1961,-5.1454,-5.0443,-4.8931,0.0,0.0,0.0,0.0,0.0,0.0,0.0,0.0,0.0,0.0,0.0,0.0,0.0,0.0,0.0,0.0,0.0,0.0,0.0,0.0,0.0,0.0,0.0,0.0,0.0,-4.7046,0.0,0.0,0.0,0.0,0.0,0.0,0.0,0.0,0.0,0.0,0.0,-4.6707,-4.6565,-4.7423,-4.7917,-4.7723,-4.8306,-4.8655,0.0,0.0,0.0,0.0,0.0,0.0,0.0,0.0,0.0,0.0,0.0,0.0,0.0,0.0,-4.5257,-4.4527,-4.4266,-4.422,-4.422,0.0,0.0,0.0,0.0,0.0,0.0,0.0,0.0,0.0,0.0,0.0,0.0,0.0,0.0,-5.5708,0.0,-5.5033,0.0,0.0,0.0,0.0,0.0,0.0,0.0,0.0,-5.1618,-5.1479,-5.1339,-5.1169,-5.0916,0.0,-5.053,-5.0362,0.0,0.0,0.0,0.0,0.0,0.0,0.0,0.0,-5.1352,-5.2266,-5.257,-5.2976,-5.3484,-5.3518,-5.3112,-5.23,-5.1352,-5.0207,-4.8834,-4.8801,-4.8707,0.0,0.0,0.0,0.0,0.0,0.0,0.0,0.0,0.0,0.0,0.0,0.0,0.0,0.0,0.0,0.0,0.0,0.0,0.0,0.0,0.0,0.0,0.0,-4.7437,0.0,0.0,0.0,0.0,0.0,0.0,0.0,0.0,0.0,-4.6542,-4.6812,-4.7046,-4.7188,-4.8002,-4.853,-4.8332,0.0,0.0,0.0,0.0,0.0,0.0,0.0,-4.845,-4.8019,-4.7958,-4.7763,-4.7292,-4.7028,-4.6814,-4.6559,0.0,0.0,-4.5026,-4.4765,-4.4686,-4.4655,-4.4576,-4.4497,-4.4408,-4.4328,-4.4208,0.0,0.0,0.0,0.0,0.0,0.0,0.0,0.0,-5.6671,-5.6456,0.0,-5.6182,0.0,0.0,0.0,0.0,0.0,-5.3435,0.0,0.0,-5.2921,-5.2776,-5.2665,-5.2483,-5.2077,-5.132,-5.1173,-5.0804,-5.0149,-4.987,0.0,0.0,0.0,0.0,0.0,0.0,-5.2334,-5.2367,-5.3078,-5.3518,-5.3518,-5.3518,-5.3112,-5.2266,-5.0879,-4.9734,-4.8868,-4.8769,-4.8707,-4.8483,-4.8483,0.0,0.0,0.0,0.0,0.0,0.0,0.0,0.0,0.0,0.0,0.0,0.0,0.0,0.0,0.0,0.0,0.0,0.0,0.0,0.0,-4.737,0.0,0.0,0.0,0.0,0.0,0.0,0.0,0.0,0.0,0.0,-4.7034,-4.6945,-4.7119,-4.7846,0.0,0.0,0.0,0.0,-4.8914,-4.8635,-4.8604,-4.8604,-4.8604,-4.8604,-4.8604,-4.8604,0.0,0.0,-4.8313,-4.8103,-4.7752,-4.7103,-4.6785,-4.646,-4.602,-4.5849,-4.5819,-4.5778,-4.5626,-4.5604,-4.5533,-4.532,-4.5185,-5.9104,0.0,0.0,0.0,0.0,-5.66,-5.641,-5.641,-5.6217,-5.6106,-5.6049,-5.5986,0.0,0.0,0.0,0.0,0.0,0.0,-5.3013,-5.2956,-5.2724,-5.2612,-5.2552,-5.2403,-5.2175,-5.1933,-5.1908,-5.1774,-5.1567,-5.1261,-5.0834,-5.0294,0.0,0.0,0.0,0.0,-5.257,-5.3145,-5.3382,-5.3518,-5.3518,-5.3518,-5.2875,-5.1555,-5.1116,-5.0177,-4.8646,-4.8578,-4.8452,-4.8164,-4.8164,0.0,0.0,0.0,0.0,0.0,0.0,0.0,0.0,0.0,0.0,0.0,0.0,0.0,0.0,0.0,0.0,0.0,0.0,0.0,-4.737,-4.7132,-4.6996,0.0,0.0,0.0,0.0,0.0,0.0,0.0,0.0,0.0,-4.7547,-4.7631,-4.7846,0.0,0.0,-4.9059,-4.905,-4.8841,-4.8676,-4.8635,-4.8604,0.0,-4.8604,-4.8604,-4.8604,-4.8604,-4.851,-4.8343,-4.8133,-4.788,-4.7649,-4.7468,-4.7267,-4.7006,-4.6911,-4.61,-4.553,-4.547,-4.5428,-4.5387,-4.5387,-4.5346,-4.5304,-6.0297,-5.9219,-5.8498,-5.7906,-5.7449,-5.7178,-5.6858,-5.6539,-5.6368,-5.6075,-5.5735,-5.5642,-5.5584,-5.5525,-5.5525,0.0,0.0,0.0,-5.3718,-5.3629,-5.3484,-5.3363,-5.3303,-5.3145,-5.2946,-5.267,-5.2701,-5.2498,-5.2188,-5.2155,-5.1899,-5.1489,0.0,0.0,-5.23,-5.2638,-5.301,-5.3484,-5.3518,-5.3518,-5.3518,-5.3518,-5.2909,-5.1691,-5.1386,-5.0482,-4.9018,-4.8651,-4.8324,-4.8001,-4.8001,-4.8001,0.0,0.0,0.0,0.0,0.0,0.0,0.0,0.0,0.0,0.0,0.0,-4.9892,-4.9726,0.0,0.0,0.0,-4.7735,-4.7404,-4.7098,-4.6961,0.0,0.0,0.0,0.0,0.0,0.0,0.0,-4.6148,-4.604,-4.647,-4.7757,-4.7909,-4.8256,-4.9173,-4.929,-4.9259,-4.9259,0.0,-4.8604,-4.8604,-4.8604,-4.8604,-4.8604,-4.8604,-4.8563,-4.848,-4.8271,-4.8091,-4.788,-4.7624,-4.7452,-4.7482,-4.7396,-4.7309,-4.7309,-4.6621,-4.6082,-4.6112,-4.6082,-4.6082,-4.6082,-4.6082,-4.6082,-6.1671,-6.0543,-5.9277,-5.8627,-5.8449,-5.8308,-5.7824,-5.7117,-5.6935,-5.6364,-5.5518,-5.5294,-5.5109,-5.4992,-5.4992,0.0,-5.4992,-5.4992,-5.49,-5.478,-5.478,-5.4686,-5.4494,-5.4494,-5.4149,-5.3494,-5.3494,-5.3115,-5.2429,-5.2738,-5.2921,-5.2889,-5.2565,-5.2401,-5.2435,-5.3145,-5.3518,-5.3518,-5.3518,-5.3518,-5.3518,-5.3518,-5.3112,-5.2334,-5.1657,-5.0752,-4.9654,-4.8952,-4.8391,-4.8033,-4.8001,-4.8001,-4.8001,0.0,0.0,0.0,0.0,0.0,0.0,0.0,0.0,0.0,0.0,0.0,0.0,0.0,0.0,0.0,-4.7893,0.0,-4.7024,-4.6925,0.0,0.0,0.0,-4.6509,-4.6298,-4.6187,-4.6112,-4.6076,0.0,0.0,-4.7719,-4.7909,-4.8383,-4.9702,-4.9541,-4.9259,-4.9259,-4.8852,-4.8604,-4.8604,-4.8604,-4.8604,-4.8604,-4.8604,-4.8521,-4.8301,-4.8133,-4.7922,-4.7624,-4.7439,-4.7309,-4.7309,-4.7309,-4.7309,-4.7309,-4.7249,-4.7309,-4.7249,-4.7249,-4.7279,-4.7219,-4.7189,-4.7189,-6.211,-6.1274,-6.0822,-5.9655,-5.8094,-5.782,-5.7557,-5.7346,-5.6597,-5.6156,-5.5885,-5.5327,-5.5022,-5.4992,-5.4992,-5.4992,-5.4992,-5.4904,-5.4842,-5.478,-5.4655,-5.4526,-5.4494,-5.4494,-5.4425,-5.4253,-5.4253,-5.4149,-5.3946,-5.3766,-5.3707,-5.3707,-5.338,-5.3213,-5.3213,-5.3416,-5.3518,-5.3518,-5.3518,-5.3518,-5.3518,-5.3518,-5.3145,-5.2334,-5.2131,-5.1257,-4.9688,-4.9421,-4.8925,-4.8067,-4.8001,-4.8001,-4.8001,-4.8531,0.0,0.0,0.0,0.0,0.0,0.0,0.0,0.0,0.0,-5.0876,-5.0876,0.0,-5.0124,0.0,-4.8332,-4.7769,-4.7734,-4.7112,0.0,0.0,-4.6474,-4.6298,-4.6152,-4.6112,-4.604,-4.5896,-4.5823,-4.6329,-4.7719,-4.7909,-4.8306,-4.9473,-4.9461,-4.925,-4.9087,-4.88,-4.8604,-4.8604,-4.8604,-4.8604,-4.8604,-4.8604,-4.851,-4.8133,-4.8049,-4.7837,-4.7439,-4.7352,-4.7309,-4.7309,-4.7309,-4.7309,-4.7309,-4.7309,-4.7309,-4.7309,-4.7309,-4.7309,-4.7309,-4.7309,-4.7309,-6.2901,-6.238,-6.1548,-6.0463,-5.9299,-5.8759,-5.8282,-5.7869,-5.7355,-5.6877,-5.6432,-5.564,-5.5088,-5.4811,-5.4776,-5.4776,-5.4776,-5.4717,-5.4655,-5.4655,-5.4526,-5.4494,-5.4494,-5.4494,-5.4494,-5.4494,-5.4494,-5.4494,-5.4497,-5.4143,-5.398,-5.398,-5.3651,-5.3518,-5.3518,-5.3518,-5.3518,-5.3518,-5.3518,-5.3518,-5.3518,-5.3518,-5.3281,-5.2841,-5.2469,-5.1796,-5.0725,-5.0291,-4.9758,-4.9094,-4.8995,-4.8995,-4.8995,-4.9359,-4.9756,0.0,0.0,0.0,0.0,0.0,0.0,0.0,0.0,0.0,0.0,0.0,-5.066,-4.9726,-4.8832,-4.8175,-4.7884,-4.7323,-4.6827,-4.6401,-4.6294,-4.6152,-4.6004,-4.5968,-4.6027,-4.6202,-4.6234,-4.6771,-4.813,-4.832,-4.8653,-4.9496,-4.9452,-4.925,-4.9037,-4.8759,-4.8604,-4.8604,-4.8604,-4.8604,-4.8604,-4.8604,-4.848,-4.8218,-4.8049,-4.788,-4.7495,-4.7352,-4.7309,-4.7309,-4.7309,-4.7309,-4.7309,-4.7309,-4.7309,-4.7309,-4.7309,-4.7309,-4.7309,-4.7309,-4.7309,-6.3788,-6.3408,-6.1943,-6.1144,-6.0866,-6.0167,-5.9371,-5.8477,-5.8407,-5.7823,-5.6898,-5.6008,-5.5253,-5.4667,-5.4529,-5.4494,-5.4494,-5.4494,-5.4494,-5.4494,-5.4494,-5.4494,-5.4494,-5.4494,-5.4494,-5.4494,-5.4494,-5.4494,-5.4463,-5.4175,-5.4013,-5.398,-5.3685,-5.3517,-5.3518,-5.3518,-5.3518,-5.3518,-5.3518,-5.3518,-5.3518,-5.3518,-5.3518,-5.3484,-5.2807,-5.2369,-5.2101,-5.1296,-5.0694,-5.0426,-5.0255,-5.022,-5.022,-5.0286,-5.0618,0.0,-5.1382,0.0,0.0,0.0,0.0,0.0,0.0,0.0,0.0,-5.1573,-5.1127,-5.0256,-4.936,-4.861,-4.7995,-4.7654,-4.7185,-4.643,-4.633,-4.6258,-4.6076,-4.6076,-4.6297,-4.6898,-4.6929,-4.7435,-4.8667,-4.8889,-4.9063,-4.9496,-4.9452,-4.925,-4.9037,-4.8759,-4.8604,-4.8604,-4.8604,-4.8604,-4.8604,-4.8604,-4.8521,-4.8343,-4.8133,-4.7922,-4.7624,-4.7409,-4.7309,-4.7309,-4.7309,-4.7309,-4.7309,-4.7309,-4.7309,-4.7309,-4.7309,-4.7309,-4.7309,-4.7309,-4.7309,-6.4076,-6.3344,-6.2995,-6.1986,-6.06,-6.0426,-5.9872,-5.9075,-5.8353,-5.7561,-5.6769,-5.5977,-5.5529,-5.5357,-5.477,-5.4494,-5.4494,-5.4494,-5.4494,-5.4494,-5.4494,-5.4494,-5.4494,-5.4494,-5.4494,-5.4494,-5.4494,-5.4494,-5.4494,-5.4271,-5.411,-5.398,-5.3783,-5.3618,-5.3484,0.0,0.0,0.0,-5.3518,-5.3518,-5.3518,-5.3518,-5.3518,-5.3518,-5.3382,0.0,-5.2135,-5.1766,-5.1229,-5.0459,-5.0255,0.0,0.0,0.0,0.0,0.0,0.0,0.0,0.0,0.0,0.0,0.0,-5.1684,-5.1606,-5.1536,-5.1387,-5.1097,-5.0779,-5.0032,-4.947,-4.9192,-4.8456,-4.7893,-4.7728,-4.7616,-4.7536,-4.7498,-4.7498,-4.7561,-4.7688,-4.7688,-4.8004,-4.8762,-4.8889,-4.9063,-4.9527,-4.9452,-4.921,-4.9037,-4.8759,-4.8604,-4.8604,-4.8604,-4.8604,-4.8604,-4.8604,-4.8521,-4.8343,-4.8133,-4.7922,-4.7666,-4.7439,-4.7309,-4.7309,-4.7309,-4.7309,-4.7309,-4.7309,-4.7309,-4.7309,-4.7309,-4.7309,-4.7309,-4.7309,-4.7309,-6.4253,0.0,-6.3241,-6.2231,0.0,-6.0532,-5.9909,-5.9149,-5.8633,-5.8047,-5.7322,-5.6943,-5.6529,-5.6184,-5.5805,-5.5632,-5.5632,-5.5632,-5.5632,-5.5632,-5.5219,-5.5046,-5.5046,-5.4667,-5.4494,-5.4494,-5.4494,-5.4494,-5.4463,-5.4303,-5.4175,-5.4078,-5.3849,-5.3651,-5.3618,-5.3517,-5.3518,-5.3518,-5.3518,-5.3518,-5.3518,-5.3518,-5.3518,-5.3518,-5.3518,0.0,0.0,0.0,0.0,0.0,0.0,0.0,0.0,-5.1612,0.0,-5.1843,-5.221,-5.2338,-5.223,-5.205,-5.1868,-5.1684,-5.1462,-5.1312,-5.1199,-5.1124,-5.0972,-5.0781,-5.0314,-4.9847,-4.9381,-4.8841,-4.8377,-4.8023,-4.7953,-4.7909,-4.7909,-4.7909,-4.8035,-4.832,-4.8383,-4.8636,-4.9299,-4.9394,-4.9481,-4.971,-4.9461,-4.925,-4.9128,-4.8841,-4.8604,-4.8604,-4.8604,-4.8604,-4.8604,-4.8604,-4.8563,-4.8469,-4.8301,-4.8091,-4.7837,-4.7581,-4.7409,-4.7309,-4.7309,-4.7309,-4.7309,-4.7309,-4.7309,-4.7309,-4.7309,-4.7309,-4.7309,-4.7309,-4.7309,-6.4358,-6.4253,-6.3308,-6.2472,-6.1709,-6.0773,-5.9875,-5.9012,0.0,0.0,0.0,-5.7978,-5.7564,-5.7012,-5.684,-5.6805,-5.6805,-5.6805,-5.6805,-5.6771,-5.5977,-5.5632,-5.5598,-5.4839,-5.4494,-5.4494,-5.4494,-5.4494,-5.4494,-5.4335,-5.4239,-5.4175,-5.3915,-5.3717,-5.3651,-5.3551,-5.3518,-5.3518,-5.3518,-5.3518,-5.3518,-5.3518,-5.3518,-5.3518,-5.3518,-5.3518,-5.3518,-5.3314,-5.311,-5.2938,-5.2729,-5.2518,-5.2445,-5.2409,-5.2409,-5.2409,-5.2409,-5.2302,-5.2119,-5.1904,-5.1721,-5.1462,-5.1312,-5.1124,-5.0896,-5.0928,-5.0781,-5.055,-5.0395,-5.0023,-4.9413,-4.9195,-4.8857,-4.832,-4.8256,-4.8256,-4.8288,-4.8256,-4.8541,-4.8952,-4.9078,-4.9268,-4.9805,-4.9868,-4.99,-4.9852,-4.9582,-4.9331,-4.921,-4.8883,-4.8604,-4.8604,-4.8604,-4.8604,-4.8604,-4.8604,-4.8604,-4.8563,-4.8427,-4.826,-4.8049,-4.7794,-4.7538,-4.7396,-4.7352,-4.7309,-4.7309,-4.7309,-4.7309,-4.7309,-4.7309,-4.7309,-4.7309,-4.7309,-4.7309,-6.4252,-6.3965,-6.3788,-6.3195,-6.2291,-6.1496,-6.0323,-5.9047,-5.9012,-5.8944,-5.8806,-5.8185,-5.784,-5.7702,-5.7081,-5.6805,-5.6805,-5.6805,-5.6805,-5.6771,-5.5977,-5.5632,-5.5531,-5.4874,-5.4494,-5.4494,-5.4529,-5.4494,-5.4494,-5.4463,-5.4367,-5.4207,-5.4045,-5.3817,-5.3551,-5.3518,-5.3518,-5.3518,-5.3518,-5.3518,-5.3518,-5.3518,-5.3518,-5.3518,-5.3518,-5.3518,-5.3518,-5.3314,-5.3179,-5.3144,-5.2799,-5.2589,-5.2553,-5.2445,-5.2409,-5.2409,-5.2409,-5.2302,-5.2119,-5.1904,-5.1647,-5.128,-5.1237,-5.1124,-5.0896,-5.0928,-5.0743,-5.0395,-5.0317,-5.0136,-4.9852,-4.9742,-4.9679,-4.9576,-4.9576,-4.9647,-4.9552,-4.9552,-4.9584,-4.971,-4.9734,-4.9773,-4.9868,-4.99,-4.99,-4.986,-4.9693,-4.9452,-4.9118,-4.88,-4.8604,-4.8604,-4.8604,-4.8604,-4.8604,-4.8604,-4.8604,-4.8604,-4.8438,-4.8301,-4.826,-4.7922,-4.7624,-4.7568,-4.7439,-4.7352,-4.7309,-4.7309,-4.7309,-4.7309,-4.7309,-4.7309,-4.7309,-4.7309,-4.7309,-6.4144,-6.3891,-6.3783,-6.3259,-6.2393,-6.122,-6.0047,-5.9047,-5.9012,-5.9012,-5.8978,-5.8633,-5.853,-5.8495,-5.815,-5.8012,-5.8012,-5.8012,-5.8012,-5.7943,-5.7219,-5.684,-5.6805,-5.6115,-5.5529,-5.5115,-5.5115,-5.4908,-5.4529,-5.4494,-5.4431,-5.4335,-5.411,-5.4054,-5.4194,-5.372,-5.3687,-5.4093,-5.3721,-5.3518,-5.3518,-5.3518,-5.3518,-5.3518,-5.3518,-5.3518,-5.3518,-5.3416,-5.3314,-5.3213,-5.2938,-5.2694,-5.2589,-5.248,-5.2409,-5.2409,-5.2409,-5.2302,-5.2119,-5.1794,-5.1499,-5.1237,-5.1237,-5.1124,-5.0896,-5.0781,-5.055,-5.0129,-5.0089,-5.005,-4.9931,-4.99,-4.99,-4.99,-4.99,-4.99,-4.99,-4.99,-4.99,-4.99,-4.99,-4.99,-4.99,-4.99,-4.99,-4.9892,-4.9622,-4.9331,-4.9037,-4.8759,-4.8604,-4.8604,-4.8604,-4.8604,-4.8604,-4.8604,-4.8604,-4.8604,-4.8521,-4.8396,-4.8343,-4.8091,-4.7922,-4.7666,-4.7495,-4.7439,-4.7352,-4.7309,-4.7309,-4.7309,-4.7309,-4.7309,-4.7309,-4.7309,-4.7309,-6.4072,-6.382,-6.3673,-6.3048,-6.2117,-6.0944,-5.9909,-5.9047,-5.9012,-5.9012,-5.9012,-5.9012,-5.9012,-5.9012,-5.9012,-5.9012,-5.9012,-5.9012,-5.9012,-5.8944,-5.8254,-5.7909,-5.7805,-5.715,-5.646,-5.5943,-5.5874,-5.5563,-5.5081,-5.5046,-5.498,-5.4916,-5.4624,-5.47,-5.5009,-5.4364,-5.4262,-5.4769,-5.4126,-5.3687,-5.3518,-5.3518,-5.3518,-5.3518,-5.3518,-5.3518,-5.3518,-5.3518,-5.3416,-5.3247,-5.3076,-5.2868,-5.2659,-5.2516,-5.2445,-5.2409,-5.2409,-5.2302,-5.2086,-5.1721,-5.1424,-5.1275,-5.1237,-5.1124,-5.0896,-5.0743,-5.0512,-5.0089,-4.9971,-4.9931,-4.99,-4.99,-4.99,-4.99,-4.99,-4.99,-4.99,-4.99,-4.99,-4.99,-4.99,-4.99,-4.99,-4.99,-4.99,-4.9852,-4.9613,-4.9291,-4.9118,-4.8841,-4.8676,-4.8604,-4.8604,-4.8604,-4.8604,-4.8604,-4.8604,-4.8604,-4.8563,-4.8521,-4.8427,-4.8343,-4.8218,-4.7837,-4.7666,-4.7538,-4.7396,-4.7309,-4.7309,-4.7309,-4.7309,-4.7309,-4.7309,-4.7309,-4.7309,-6.3965,-6.3637,-6.36,-6.2737,-6.1461,-6.122,-6.0358,-5.9081,-5.9012,-5.9012,-5.9012,-5.9012,-5.9012,-5.9012,-5.9012,-5.9012,-5.9012,-5.9012,-5.9012,-5.8944,-5.8254,-5.7909,-5.7874,-5.7185,-5.6771,-5.6702,-5.6702,-5.6598,-5.646,-5.6495,-5.6498,-5.6299,-5.6098,-5.5928,-5.5859,-5.5618,-5.5513,-5.5615,-5.4871,-5.4194,-5.3551,-5.3518,-5.3518,-5.3518,-5.3518,-5.3518,-5.3518,-5.3518,-5.3518,-5.345,-5.3247,-5.3076,-5.2868,-5.2694,-5.2518,-5.2409,-5.2409,-5.2302,-5.2086,-5.1754,-5.1499,-5.1462,-5.1312,-5.1124,-5.0934,-5.0858,-5.0705,-5.0324,-5.005,-4.9931,-4.99,-4.99,-4.99,-4.99,-4.99,-4.99,-4.99,-4.99,-4.99,-4.99,-4.99,-4.99,-4.99,-4.99,-4.99,-4.9892,-4.9693,-4.9461,-4.9291,-4.9078,-4.88,-4.8646,-4.8604,-4.8604,-4.8604,-4.8604,-4.8604,-4.8604,-4.8604,-4.8563,-4.8521,-4.8396,-4.826,-4.8133,-4.788,-4.7666,-4.7538,-4.7439,-4.7309,-4.7309,-4.7309,-4.7309,-4.7309,-4.7309,-4.7309,-6.4037,-6.3747,-6.3637,-6.2703,-6.1392,-6.1323,-6.0427,-5.9047,-5.9012,-5.9012,-5.9012,-5.9012,-5.9012,-5.9012,-5.9012,-5.9012,-5.9012,-5.9012,-5.9012,-5.8978,-5.8702,-5.8564,-5.853,-5.8254,-5.7909,-5.7495,-5.746,-5.7219,-5.6874,-5.6805,-5.6772,-5.6638,-5.6371,-5.6406,-5.6644,-5.606,-5.5919,-5.6325,-5.5615,-5.5108,-5.4769,-5.3957,-5.3518,-5.3518,-5.3518,-5.3518,-5.3518,-5.3518,-5.3518,-5.3518,-5.3281,-5.311,-5.2903,-5.2694,-5.2551,-5.2409,-5.2409,-5.2302,-5.2086,-5.1941,-5.179,-5.1536,-5.1424,-5.1275,-5.1086,-5.0972,-5.0781,-5.0512,-5.0278,-5.0089,-4.9931,-4.99,-4.99,-4.99,-4.99,-4.99,-4.99,-4.99,-4.99,-4.99,-4.99,-4.99,-4.99,-4.99,-4.99,-4.9892,-4.9733,-4.9533,-4.9331,-4.9159,-4.8883,-4.8646,-4.8604,-4.8604,-4.8604,-4.8604,-4.8604,-4.8604,-4.8604,-4.8604,-4.8563,-4.8521,-4.8438,-4.8343,-4.8133,-4.788,-4.7624,-4.7538,-4.7452,-4.7396,-4.7309,-4.7309,-4.7309,-4.7309,-4.7309,-6.4108,-6.3856,-6.3673,-6.2841,-6.1634,-6.1392,-6.0565,-5.9392,-5.9116,-5.9012,-5.9012,-5.9012,-5.9012,-5.9012,-5.9012,-5.9012,-5.9012,-5.9012,-5.9012,-5.9012,-5.9012,-5.9012,-5.9012,-5.9012,-5.8737,-5.8288,-5.8219,-5.7943,-5.746,-5.7426,-5.7391,-5.7325,-5.7055,-5.7124,-5.7499,-5.6741,-5.6598,-5.7002,-5.6393,-5.6021,-5.5852,-5.4769,-5.4025,-5.3822,-5.3822,-5.3721,-5.3518,-5.3518,-5.3518,-5.3518,-5.3348,-5.3179,-5.3007,-5.2799,-5.2622,-5.2409,-5.2409,-5.2338,-5.2194,-5.232,-5.2236,-5.1904,-5.1992,-5.201,-5.182,-5.1629,-5.1476,-5.1314,-5.1055,-5.0787,-4.9971,-4.99,-4.99,-4.99,-4.99,-4.99,-4.99,-4.99,-4.99,-4.99,-4.99,-4.99,-4.99,-4.99,-4.99,-4.986,-4.9773,-4.9613,-4.9443,-4.9365,-4.9275,-4.9037,-4.9108,-4.9035,-4.8727,-4.8604,-4.8604,-4.8604,-4.8604,-4.8604,-4.8604,-4.8604,-4.8563,-4.8469,-4.8385,-4.8175,-4.7837,-4.7709,-4.7495,-4.7396,-4.7309,-4.7309,-4.7309,-4.7309,-4.7309,-6.4108,-6.3891,-6.3673,-6.3117,-6.2358,-6.1634,-6.0875,-6.0013,-5.9357,-5.9047,-5.9012,-5.9012,-5.9012,-5.9012,-5.9012,-5.9012,-5.9012,-5.9012,-5.9012,-5.9012,-5.9012,-5.9012,-5.9012,-5.9012,-5.8978,-5.8875,-5.884,-5.884,-5.8771,-5.884,-5.8909,-5.884,-5.86,-5.8529,-5.8353,-5.8108,-5.7961,-5.7715,-5.7103,-5.6765,-5.6664,-5.5987,-5.5277,-5.4668,-5.4532,-5.4262,-5.3687,-5.3551,-5.3551,-5.3551,-5.3585,-5.345,-5.3212,-5.3039,-5.2794,-5.2544,-5.2475,-5.244,-5.2503,-5.2924,-5.307,-5.2843,-5.3112,-5.3376,-5.3052,-5.2974,-5.2856,-5.2828,-5.2533,-5.1806,-5.039,-5.0184,-5.0121,-5.0058,-4.9955,-4.9963,-4.9923,-4.9923,-4.9931,-4.99,-4.99,-4.9963,-4.9963,-4.99,-5.0026,-5.0058,-4.9987,-4.9939,-4.9896,-5.0037,-5.0102,-5.0049,-5.0117,-5.0143,-4.8974,-4.8943,-4.885,-4.885,-4.9004,-4.8696,-4.8635,-4.8604,-4.8593,-4.8593,-4.8469,-4.826,-4.8007,-4.7794,-4.7538,-4.7396,-4.7309,-4.7309,-4.7309,-4.7309,-4.7309,-6.418,-6.3891,-6.3673,-6.3186,-6.2496,-6.2186,-6.1358,-6.022,-5.9909,-5.9461,-5.9047,-5.9012,-5.9012,-5.9012,-5.9012,-5.9012,-5.9012,-5.9012,-5.9012,-5.9012,-5.9012,-5.9012,-5.9012,-5.9012,-5.9012,-5.9012,-5.9012,-5.9012,-5.9012,-5.9012,-5.9012,-5.8978,-5.8875,-5.8701,-5.849,-5.8312,-5.8099,-5.7884,-5.7611,-5.7509,-5.7476,-5.7239,-5.6765,-5.6021,-5.5547,-5.5175,-5.4905,-5.4938,-5.4938,-5.4905,-5.4905,-5.4801,-5.4592,-5.4309,-5.4059,-5.3914,-5.3805,-5.3732,-5.3765,-5.389,-5.3944,-5.3757,-5.3727,-5.3765,-5.35,-5.3376,-5.3186,-5.3061,-5.2981,-5.2389,-5.1773,-5.134,-5.1259,-5.1195,-5.0848,-5.0595,-5.05,-5.0216,-4.99,-4.99,-4.9931,-5.0089,-5.05,-5.0595,-5.0785,-5.1164,-5.1259,-5.1073,-5.0973,-5.0986,-5.086,-5.0712,-5.0653,-5.0543,-5.0143,-4.9959,-4.9928,-4.9805,-4.9743,-4.9466,-4.9312,-4.8912,-4.885,-4.8881,-4.8695,-4.8446,-4.8236,-4.7837,-4.7624,-4.7396,-4.7352,-4.7382,-4.7309,-4.7429,-4.7399,-6.4217,-6.3892,-6.3747,-6.3397,-6.2841,-6.2599,-6.191,-6.0909,-6.0392,-5.9909,-5.9426,-5.915,-5.9012,-5.9012,-5.9012,-5.9012,-5.9012,-5.9012,-5.9012,-5.9012,-5.9012,-5.9012,-5.9012,-5.9012,-5.9012,-5.9012,-5.9012,-5.9012,-5.9012,-5.9012,-5.9012,-5.8978,-5.8909,-5.8736,-5.8525,-5.8348,-5.8171,-5.7954,-5.7881,-5.7881,-5.7881,-5.7881,-5.7645,-5.7171,-5.6664,-5.6121,-5.575,-5.5681,-5.5681,-5.5681,-5.5681,-5.5611,-5.54,-5.5149,-5.4968,-5.4822,-5.4675,-5.4564,-5.456,-5.4688,-5.4746,-5.4595,-5.4596,-5.4534,-5.43,-5.4103,-5.3905,-5.3785,-5.3705,-5.3535,-5.3218,-5.293,-5.2574,-5.2112,-5.1606,-5.1322,-5.129,-5.0911,-5.0618,-5.0658,-5.069,-5.0879,-5.1195,-5.129,-5.1512,-5.1954,-5.2017,-5.1935,-5.181,-5.179,-5.1662,-5.148,-5.1587,-5.1567,-5.1357,-5.1313,-5.079,-5.0574,-5.0359,-5.0112,-4.9897,-4.9466,-4.922,-4.9189,-4.9024,-4.8756,-4.8424,-4.7995,-4.7739,-4.7542,-4.7469,-4.7499,-4.7575,-4.7668,-4.7788,-6.4217,-6.3963,-6.3927,-6.3747,-6.3393,-6.2841,-6.2496,-6.2117,-6.0909,-6.0323,-6.0013,-5.9392,-5.9116,-5.9012,-5.9012,-5.9012,-5.9012,-5.9012,-5.9012,-5.9012,-5.9012,-5.9012,-5.9012,-5.9012,-5.9012,-5.9012,-5.9012,-5.9012,-5.9012,-5.9012,-5.9012,-5.9012,-5.8978,-5.8806,-5.849,-5.8455,-5.8312,-5.7991,-5.7881,-5.7881,-5.7881,-5.7881,-5.7848,-5.7814,-5.7746,-5.7137,-5.5886,-5.5852,-5.5919,-5.5886,-5.5852,-5.5645,-5.5673,-5.5532,-5.5322,-5.5098,-5.4922,-5.4778,-5.473,-5.5289,-5.5544,-5.5386,-5.5752,-5.5817,-5.5553,-5.5377,-5.5215,-5.5101,-5.5011,-5.4902,-5.4662,-5.4379,-5.3692,-5.2375,-5.2112,-5.2049,-5.2017,-5.1986,-5.1986,-5.1859,-5.1796,-5.1954,-5.2017,-5.2017,-5.2112,-5.2238,-5.2302,-5.2302,-5.2313,-5.2524,-5.2562,-5.2504,-5.243,-5.2396,-5.2541,-5.2606,-5.1805,-5.1159,-5.0913,-5.0697,-5.0636,-5.0328,-5.0112,-5.0051,-4.9805,-4.9535,-4.909,-4.8688,-4.8438,-4.8222,-4.7985,-4.7989,-4.8203,-4.8415,-4.858,-6.4287,-6.4073,-6.3963,-6.3783,-6.3565,-6.3324,-6.2979,-6.2496,-6.191,-6.1185,-6.0289,-5.9944,-5.953,-5.9116,-5.9012,-5.9012,-5.9012,-5.9012,-5.9012,-5.9012,-5.9012,-5.9012,-5.9012,-5.9012,-5.9012,-5.9012,-5.9012,-5.9012,-5.9012,-5.9012,-5.9012,-5.9012,-5.9012,-5.8806,-5.8525,-5.849,-5.8312,-5.7954,-5.7881,-5.7881,-5.7881,-5.7881,-5.7881,-5.7881,-5.7881,-5.7645,-5.7273,-5.7205,-5.7205,-5.7171,-5.7205,-5.7169,-5.7133,-5.6988,-5.6878,-5.6731,-5.6437,-5.6321,-5.6245,-5.626,-5.6316,-5.6266,-5.6309,-5.6211,-5.6006,-5.5806,-5.5604,-5.545,-5.5328,-5.5237,-5.5031,-5.4822,-5.4305,-5.3513,-5.306,-5.2776,-5.2712,-5.2365,-5.2049,-5.2017,-5.2017,-5.2207,-5.2618,-5.2744,-5.2902,-5.3281,-5.3376,-5.3376,-5.3397,-5.3332,-5.3326,-5.3171,-5.3201,-5.3042,-5.2833,-5.2774,-5.2329,-5.1836,-5.159,-5.1405,-5.1313,-5.119,-5.1005,-5.0759,-5.0513,-5.0181,-4.9763,-4.9481,-4.9217,-4.9135,-4.9095,-4.9114,-4.9163,-4.9224,-4.9329,-6.4428,-6.4287,-6.4073,-6.3927,-6.371,-6.3637,-6.3324,-6.2875,-6.2599,-6.1944,-6.1116,-6.0737,-6.0358,-5.9944,-5.984,-5.9875,-5.984,-5.9599,-5.9461,-5.9392,-5.9081,-5.9012,-5.9012,-5.9012,-5.9012,-5.9012,-5.9012,-5.9012,-5.9012,-5.9012,-5.9012,-5.9012,-5.9012,-5.8806,-5.8525,-5.849,-5.8278,-5.7954,-5.7881,-5.7881,-5.7881,-5.7881,-5.7881,-5.7881,-5.7881,-5.7881,-5.7881,-5.7881,-5.7881,-5.7881,-5.7881,-5.7881,-5.7881,-5.7738,-5.7662,-5.7551,-5.7327,-5.7067,-5.6987,-5.6762,-5.668,-5.6641,-5.6486,-5.6323,-5.6126,-5.5886,-5.5685,-5.545,-5.5409,-5.5319,-5.5113,-5.4938,-5.4613,-5.4242,-5.3766,-5.3502,-5.3408,-5.3092,-5.2839,-5.287,-5.2839,-5.3028,-5.3313,-5.3502,-5.3629,-5.404,-5.4103,-5.4103,-5.406,-5.3942,-5.3801,-5.3552,-5.3365,-5.3144,-5.2922,-5.2788,-5.2729,-5.2483,-5.2267,-5.2144,-5.2052,-5.1898,-5.1713,-5.1344,-5.1067,-5.079,-5.0371,-5.0309,-5.0131,-5.0157,-5.0089,-4.9926,-4.9823,-4.9855,-4.9945,-6.4602,-6.4393,-6.4287,-6.4073,-6.3856,-6.371,-6.3602,-6.3462,-6.291,-6.2496,-6.222,-6.1634,-6.1289,-6.1254,-6.1047,-6.1047,-6.1151,-6.0565,-6.0254,-6.0082,-5.9668,-5.9288,-5.9047,-5.9012,-5.9012,-5.9012,-5.9012,-5.9012,-5.9012,-5.9012,-5.9012,-5.9012,-5.8978,-5.884,-5.8561,-5.849,-5.8312,-5.7954,-5.7881,-5.7881,-5.7881,-5.7881,-5.7881,-5.7881,-5.7881,-5.7881,-5.7881,-5.7881,-5.7881,-5.7881,-5.7881,-5.7881,-5.7881,-5.7881,-5.7808,-5.7625,-5.7439,-5.7252,-5.7063,-5.6872,-5.6719,-5.668,-5.6525,-5.6362,-5.6165,-5.5966,-5.5766,-5.5523,-5.5409,-5.5328,-5.5155,-5.498,-5.4697,-5.4454,-5.4136,-5.3976,-5.4071,-5.4008,-5.385,-5.3913,-5.4071,-5.4071,-5.3976,-5.4008,-5.404,-5.4071,-5.4103,-5.4103,-5.4103,-5.4017,-5.3974,-5.3758,-5.3496,-5.3277,-5.3011,-5.2819,-5.2729,-5.2667,-5.2544,-5.2513,-5.2513,-5.239,-5.2298,-5.1959,-5.1652,-5.1344,-5.1208,-5.1208,-5.1059,-5.0988,-5.0842,-5.0603,-5.0546,-5.0683,-5.0577,-6.4602,-6.4393,-6.4358,-6.4181,-6.3892,-6.382,-6.371,-6.3565,-6.3393,-6.2979,-6.2565,-6.2289,-6.1875,-6.1358,-6.1358,-6.1323,-6.1323,-6.1116,-6.1013,-6.0978,-6.084,-6.0013,-5.9219,-5.9012,-5.9012,-5.9012,-5.9012,-5.9012,-5.9012,-5.9012,-5.9012,-5.9012,-5.8978,-5.8806,-5.8561,-5.849,-5.8278,-5.7954,-5.7881,-5.7881,-5.7881,-5.7881,-5.7881,-5.7881,-5.7881,-5.7881,-5.7881,-5.7881,-5.7881,-5.7881,-5.7881,-5.7881,-5.7881,-5.7881,-5.7845,-5.7772,-5.7625,-5.7439,-5.7214,-5.7025,-5.6872,-5.6719,-5.6641,-5.6525,-5.6362,-5.6126,-5.5927,-5.5726,-5.5523,-5.5369,-5.5287,-5.5113,-5.4864,-5.4454,-5.42,-5.4103,-5.4103,-5.4103,-5.4103,-5.4103,-5.4103,-5.4103,-5.4103,-5.4103,-5.4103,-5.4103,-5.4103,-5.4103,-5.4103,-5.4103,-5.4017,-5.3801,-5.354,-5.3321,-5.31,-5.2833,-5.2729,-5.2729,-5.2667,-5.2667,-5.2637,-5.2606,-5.2575,-5.2452,-5.2267,-5.199,-5.2175,-5.2223,-5.2055,-5.1734,-5.1723,-5.1574,-5.1592,-5.1638,-5.1333,-6.4637,-6.4533,-6.4428,-6.4252,-6.4001,-6.3963,-6.3783,-6.3637,-6.36,-6.3358,-6.3013,-6.2944,-6.2703,-6.2289,-6.2289,-6.2289,-6.222,-6.1944,-6.1806,-6.1737,-6.1427,-6.0599,-5.9668,-5.9254,-5.9012,-5.9012,-5.9012,-5.9012,-5.9012,-5.9012,-5.9012,-5.9012,-5.9012,-5.8806,-5.8525,-5.849,-5.8312,-5.7954,-5.7881,-5.7881,-5.7881,-5.7881,-5.7881,-5.7881,-5.7881,-5.7881,-5.7881,-5.7881,-5.7881,-5.7881,-5.7881,-5.7881,-5.7881,-5.7881,-5.7881,-5.7881,-5.7698,-5.7514,-5.7327,-5.7101,-5.6911,-5.6757,-5.668,-5.6603,-5.6441,-5.6244,-5.6006,-5.5766,-5.5564,-5.5409,-5.5328,-5.5155,-5.4822,-5.4454,-5.42,-5.4103,-5.4103,-5.4103,-5.4103,-5.4103,-5.4103,-5.4103,-5.4103,-5.4103,-5.4103,-5.4103,-5.4103,-5.4103,-5.4103,-5.4103,-5.406,-5.3888,-5.3671,-5.3496,-5.3277,-5.3011,-5.2774,-5.2774,-5.2729,-5.2729,-5.2729,-5.2729,-5.2698,-5.2667,-5.2698,-5.2729,-5.2729,-5.2729,-5.253,-5.2362,-5.2487,-5.2397,-5.2261,-5.2124,-5.1895,-6.4706,-6.4672,-6.4533,-6.4323,-6.418,-6.4036,-6.382,-6.3637,-6.36,-6.3565,-6.3531,-6.3565,-6.3427,-6.36,-6.3324,-6.3531,-6.3462,-6.2806,-6.2634,-6.2358,-6.191,-6.1116,-6.0565,-5.984,-5.9461,-5.9288,-5.915,-5.9081,-5.9047,-5.9012,-5.9012,-5.9012,-5.9012,-5.8806,-5.8561,-5.849,-5.8312,-5.7954,-5.7881,-5.7881,-5.7881,-5.7881,-5.7881,-5.7881,-5.7881,-5.7881,-5.7881,-5.7881,-5.7881,-5.7881,-5.7881,-5.7881,-5.7881,-5.7881,-5.7881,-5.7881,-5.7735,-5.7551,-5.7327,-5.7139,-5.6949,-5.6757,-5.668,-5.6641,-5.6447,-5.6244,-5.6046,-5.5886,-5.5604,-5.5409,-5.5328,-5.5031,-5.4739,-5.4497,-5.4274,-5.4146,-5.4103,-5.4103,-5.4103,-5.4103,-5.4103,-5.4103,-5.4103,-5.4103,-5.4103,-5.4103,-5.4103,-5.4103,-5.4103,-5.4103,-5.4103,-5.406,-5.3844,-5.3702,-5.3452,-5.3188,-5.2922,-5.2774,-5.2729,-5.2729,-5.2729,-5.2729,-5.2729,-5.2729,-5.2729,-5.2729,-5.2729,-5.2729,-5.2729,-5.2729,-5.2608,-5.2518,-5.2397,-5.2306,-5.2079,-6.4706,-6.4706,-6.4637,-6.4498,-6.4216,-6.4144,-6.3929,-6.36,-6.36,-6.36,-6.36,-6.36,-6.36,-6.36,-6.36,-6.36,-6.36,-6.3358,-6.3358,-6.3255,-6.2565,-6.222,-6.1806,-6.1151,-6.0496,-6.0116,-5.9944,-5.9633,-5.9254,-5.9185,-5.9047,-5.9081,-5.922,-5.884,-5.8663,-5.8695,-5.8312,-5.7954,-5.7949,-5.8017,-5.8017,-5.8017,-5.8017,-5.7949,-5.7881,-5.7881,-5.7881,-5.7881,-5.7881,-5.7881,-5.7881,-5.7881,-5.7881,-5.7881,-5.7881,-5.7881,-5.7845,-5.7662,-5.7364,-5.7252,-5.7063,-5.6757,-5.6719,-5.668,-5.6603,-5.6284,-5.6126,-5.5966,-5.5685,-5.5409,-5.5369,-5.5031,-5.4813,-5.4613,-5.4359,-5.4103,-5.4103,-5.4103,-5.4103,-5.4103,-5.4103,-5.4103,-5.4103,-5.4103,-5.4103,-5.4103,-5.4103,-5.4103,-5.4103,-5.4103,-5.4103,-5.4103,-5.3974,-5.3758,-5.3452,-5.3188,-5.2922,-5.2774,-5.2729,-5.2729,-5.2729,-5.2729,-5.2729,-5.2729,-5.2729,-5.2729,-5.2729,-5.2729,-5.2729,-5.2729,-5.2729,-5.2608,-5.2563,-5.2397,-5.2306,-6.4706,-6.4706,-6.4706,-6.4498,-6.4216,-6.418,-6.3965,-6.3637,-6.36,-6.36,-6.36,-6.36,-6.36,-6.36,-6.36,-6.36,-6.36,-6.36,-6.36,-6.3496,-6.3151,-6.3013,-6.2979,-6.253,-6.1875,-6.0909,-6.0703,-6.0427,-6.0185,-6.0047,-6.0185,-6.0082,-6.0082,-5.9974,-5.9585,-5.9481,-5.9366,-5.9072,-5.893,-5.893,-5.893,-5.893,-5.8693,-5.8355,-5.8084,-5.7881,-5.7881,-5.7881,-5.7881,-5.7881,-5.7881,-5.7881,-5.7881,-5.7881,-5.7881,-5.7881,-5.7881,-5.7772,-5.7514,-5.7327,-5.7176,-5.6872,-5.6757,-5.6719,-5.6603,-5.6323,-5.6126,-5.6006,-5.5693,-5.5409,-5.5369,-5.5031,-5.4854,-5.4729,-5.4359,-5.4146,-5.4103,-5.4103,-5.4103,-5.4103,-5.4103,-5.4103,-5.4103,-5.4103,-5.4103,-5.4103,-5.4103,-5.4103,-5.4103,-5.4103,-5.4103,-5.4103,-5.4017,-5.3801,-5.3452,-5.3144,-5.2877,-5.2743,-5.2729,-5.2729,-5.2729,-5.2729,-5.2729,-5.2729,-5.2729,-5.2729,-5.2729,-5.2729,-5.2729,-5.2729,-5.2729,-5.2729,-5.2653,-5.2563,-5.2427,-6.4706,-6.4706,-6.4706,-6.4533,-6.4216,-6.4215,-6.3965,-6.3637,-6.36,-6.36,-6.36,-6.36,-6.36,-6.36,-6.36,-6.36,-6.36,-6.36,-6.36,-6.3565,-6.3531,-6.3462,-6.3462,-6.3289,-6.2875,-6.1737,-6.153,-6.1392,-6.122,-6.1289,-6.1013,-6.122,-6.1254,-6.0869,-6.0718,-6.0674,-6.0356,-5.999,-5.9881,-5.9877,-5.9911,-5.9911,-5.9641,-5.9201,-5.8524,-5.8186,-5.8118,-5.8017,-5.7881,-5.7881,-5.7881,-5.7881,-5.7881,-5.7881,-5.7881,-5.7881,-5.7881,-5.7772,-5.7588,-5.7402,-5.7214,-5.7025,-5.6796,-5.6719,-5.6603,-5.6362,-5.6126,-5.6032,-5.5823,-5.5668,-5.553,-5.5481,-5.5271,-5.5144,-5.474,-5.4462,-5.4419,-5.4419,-5.4482,-5.4103,-5.4103,-5.4103,-5.4103,-5.4103,-5.4103,-5.4134,-5.4134,-5.4166,-5.4166,-5.4134,-5.4166,-5.4103,-5.406,-5.3844,-5.3465,-5.3055,-5.2788,-5.2743,-5.2729,-5.2729,-5.2729,-5.2729,-5.2729,-5.2729,-5.2729,-5.2729,-5.2729,-5.2729,-5.2729,-5.2729,-5.2729,-5.2729,-5.2729,-5.2729,-5.2518,-6.4706,-6.4706,-6.4706,-6.4533,-6.4216,-6.418,-6.3965,-6.3637,-6.36,-6.36,-6.36,-6.36,-6.36,-6.36,-6.36,-6.36,-6.36,-6.36,-6.36,-6.36,-6.36,-6.36,-6.36,-6.36,-6.3358,-6.3151,-6.2634,-6.2013,-6.1565,-6.1323,-6.1565,-6.1392,-6.1427,-6.1318,-6.1172,-6.0818,-6.0839,-6.0646,-6.0461,-6.0351,-6.0351,-6.025,-6.0182,-5.9844,-5.9201,-5.8829,-5.8626,-5.822,-5.7881,-5.7881,-5.7881,-5.7881,-5.7881,-5.7881,-5.7881,-5.7881,-5.7881,-5.7808,-5.7662,-5.7439,-5.7214,-5.7025,-5.6796,-5.6719,-5.6603,-5.6362,-5.6158,-5.6188,-5.6312,-5.6316,-5.6316,-5.6284,-5.6456,-5.639,-5.599,-5.5727,-5.5715,-5.562,-5.5241,-5.4577,-5.4324,-5.4261,-5.4482,-5.4577,-5.4609,-5.464,-5.4609,-5.4609,-5.4577,-5.4451,-5.4292,-5.4229,-5.4103,-5.3844,-5.3465,-5.3055,-5.2743,-5.2698,-5.2729,-5.2729,-5.2729,-5.2729,-5.2729,-5.2729,-5.2729,-5.2729,-5.2729,-5.2729,-5.2729,-5.2729,-5.2729,-5.2729,-5.2729,-5.2729,-5.2608,-6.4706,-6.4672,-6.4602,-6.4393,-6.418,-6.4073,-6.3856,-6.3637,-6.36,-6.36,-6.36,-6.36,-6.36,-6.36,-6.36,-6.36,-6.36,-6.36,-6.36,-6.36,-6.36,-6.36,-6.36,-6.36,-6.36,-6.3496,-6.3186,-6.2875,-6.253,-6.253,-6.2427,-6.2496,-6.2496,-6.2387,-6.2204,-6.205,-6.176,-6.1571,-6.1346,-6.1231,-6.1197,-6.096,-6.0723,-6.052,-5.9979,-5.9438,-5.8964,-5.8761,-5.8254,-5.7983,-5.7881,-5.7881,-5.7881,-5.7881,-5.7881,-5.7881,-5.7881,-5.7845,-5.7698,-5.7514,-5.7252,-5.7139,-5.6872,-5.6719,-5.6603,-5.6362,-5.6243,-5.6385,-5.6815,-5.7061,-5.7061,-5.7034,-5.6872,-5.6849,-5.653,-5.6296,-5.622,-5.622,-5.5809,-5.5272,-5.5367,-5.5399,-5.5335,-5.5335,-5.5241,-5.5177,-5.5114,-5.5083,-5.5019,-5.4956,-5.483,-5.4597,-5.4502,-5.4084,-5.3746,-5.333,-5.2973,-5.2897,-5.2729,-5.2729,-5.2729,-5.2729,-5.2729,-5.2729,-5.2729,-5.2729,-5.2729,-5.2729,-5.2729,-5.2729,-5.2729,-5.2729,-5.2729,-5.2653,-5.2608,-6.4706,-6.4672,-6.4463,-6.4323,-6.418,-6.3999,-6.3818,-6.3637,-6.36,-6.36,-6.36,-6.36,-6.36,-6.36,-6.36,-6.36,-6.36,-6.36,-6.36,-6.36,-6.36,-6.36,-6.36,-6.36,-6.36,-6.36,-6.3531,-6.36,-6.3427,-6.3393,-6.3531,-6.3427,-6.3531,-6.3526,-6.3237,-6.2878,-6.2923,-6.2731,-6.2498,-6.2415,-6.2245,-6.1873,-6.1535,-6.1467,-6.0757,-6.008,-5.9708,-5.9133,-5.8727,-5.8287,-5.8017,-5.7881,-5.7881,-5.7881,-5.7881,-5.7881,-5.7881,-5.7881,-5.7808,-5.7514,-5.7289,-5.7252,-5.7077,-5.6989,-5.6966,-5.685,-5.6678,-5.683,-5.7352,-5.7773,-5.7763,-5.7581,-5.7416,-5.7317,-5.7039,-5.6631,-5.6757,-5.6821,-5.6884,-5.6631,-5.6599,-5.6347,-5.6094,-5.5873,-5.5715,-5.5715,-5.5651,-5.5715,-5.5683,-5.5778,-5.5651,-5.5248,-5.4939,-5.4511,-5.4166,-5.3775,-5.3506,-5.3371,-5.2959,-5.2729,-5.2729,-5.2729,-5.2729,-5.2729,-5.2729,-5.2729,-5.2729,-5.2729,-5.2729,-5.2729,-5.2729,-5.2729,-5.2729,-5.2729,-5.2653,-6.4706,-6.4672,-6.4463,-6.4323,-6.418,-6.3965,-6.3783,-6.36,-6.36,-6.36,-6.36,-6.36,-6.36,-6.36,-6.36,-6.36,-6.36,-6.36,-6.36,-6.36,-6.36,-6.36,-6.36,-6.36,-6.36,-6.36,-6.36,-6.36,-6.36,-6.36,-6.36,-6.36,-6.36,-6.3563,-6.3489,-6.3227,-6.3,-6.2885,-6.2576,-6.2415,-6.2381,-6.2279,-6.2212,-6.2009,-6.1569,-6.1028,-6.0655,-5.9877,-5.9133,-5.8863,-5.8254,-5.7949,-5.7881,-5.7881,-5.7881,-5.7881,-5.7881,-5.7881,-5.7845,-5.7514,-5.739,-5.7486,-5.7476,-5.7614,-5.7615,-5.7804,-5.7756,-5.7502,-5.8097,-5.8486,-5.8529,-5.8599,-5.871,-5.8454,-5.8024,-5.786,-5.7878,-5.7453,-5.7516,-5.7625,-5.7453,-5.6947,-5.6568,-5.6347,-5.6157,-5.6189,-5.622,-5.6283,-5.6347,-5.6441,-5.641,-5.6049,-5.5582,-5.5165,-5.4818,-5.4393,-5.3982,-5.3847,-5.3357,-5.2852,-5.2729,-5.2729,-5.2729,-5.2729,-5.2729,-5.2729,-5.2729,-5.2729,-5.2729,-5.2729,-5.2729,-5.2729,-5.2729,-5.2729,-5.2729,-6.4706,-6.4672,-6.4393,-6.4251,-6.4144,-6.3856,-6.3673,-6.36,-6.36,-6.36,-6.36,-6.36,-6.36,-6.36,-6.36,-6.36,-6.36,-6.36,-6.36,-6.36,-6.36,-6.36,-6.36,-6.36,-6.36,-6.36,-6.36,-6.36,-6.36,-6.36,-6.36,-6.36,-6.36,-6.36,-6.3563,-6.3302,-6.3114,-6.2923,-6.2615,-6.2454,-6.2415,-6.2415,-6.2415,-6.2381,-6.2076,-6.1738,-6.1231,-6.0825,-6.0047,-5.9674,-5.893,-5.8524,-5.8389,-5.8152,-5.7881,-5.7915,-5.8321,-5.8321,-5.7946,-5.7581,-5.7633,-5.7783,-5.7875,-5.7827,-5.8082,-5.8503,-5.8629,-5.8237,-5.8842,-5.9166,-5.9143,-5.9081,-5.8998,-5.8869,-5.855,-5.8413,-5.8321,-5.8321,-5.8162,-5.8257,-5.8257,-5.7642,-5.7231,-5.7231,-5.7137,-5.72,-5.7231,-5.7326,-5.7231,-5.7105,-5.701,-5.6821,-5.632,-5.5821,-5.5503,-5.5152,-5.4538,-5.4264,-5.3789,-5.3298,-5.2821,-5.2729,-5.279,-5.276,-5.2729,-5.2729,-5.2729,-5.2729,-5.2729,-5.2729,-5.2729,-5.2729,-5.2729,-5.2729,-5.2729,-6.4706,-6.4637,-6.4322,-6.4215,-6.4144,-6.3783,-6.36,-6.36,-6.36,-6.36,-6.36,-6.36,-6.36,-6.36,-6.36,-6.36,-6.36,-6.36,-6.36,-6.36,-6.36,-6.36,-6.36,-6.36,-6.36,-6.36,-6.36,-6.36,-6.36,-6.36,-6.36,-6.36,-6.36,-6.36,-6.3563,-6.3377,-6.3152,-6.2885,-6.2576,-6.2454,-6.2415,-6.2415,-6.2415,-6.2415,-6.2347,-6.2144,-6.167,-6.1298,-6.0858,-6.0419,-5.9674,-5.9302,-5.9201,-5.8896,-5.866,-5.8727,-5.9099,-5.9062,-5.8646,-5.8283,-5.816,-5.8336,-5.8495,-5.8558,-5.8855,-5.9254,-5.9347,-5.8907,-5.9263,-5.9543,-5.9508,-5.9197,-5.8972,-5.8792,-5.855,-5.8413,-5.8321,-5.8321,-5.8321,-5.8321,-5.8321,-5.8321,-5.8022,-5.8162,-5.8194,-5.8257,-5.8321,-5.8321,-5.8022,-5.7674,-5.7579,-5.7421,-5.7218,-5.6825,-5.6626,-5.6148,-5.5468,-5.4789,-5.4313,-5.376,-5.3314,-5.3037,-5.3006,-5.2944,-5.279,-5.2729,-5.2729,-5.2729,-5.2729,-5.2729,-5.2729,-5.2729,-5.2729,-5.2729,-5.276,-6.4706,-6.4672,-6.4322,-6.4215,-6.4144,-6.3783,-6.36,-6.36,-6.36,-6.36,-6.36,-6.36,-6.36,-6.36,-6.36,-6.36,-6.36,-6.36,-6.36,-6.36,-6.36,-6.36,-6.36,-6.36,-6.36,-6.36,-6.36,-6.36,-6.36,-6.36,-6.36,-6.36,-6.36,-6.36,-6.3526,-6.3377,-6.3114,-6.2808,-6.2537,-6.2415,-6.2415,-6.2415,-6.2415,-6.2415,-6.2415,-6.2347,-6.2245,-6.1738,-6.14,-6.1163,-6.0452,-6.0047,-5.9979,-5.9742,-5.9573,-5.9641,-5.9877,-5.9836,-5.9506,-5.918,-5.9221,-5.9245,-5.9323,-5.9523,-5.983,-5.9945,-5.9849,-5.9566,-5.9652,-5.9552,-5.9375,-5.9107,-5.8927,-5.8701,-5.8504,-5.8367,-5.8321,-5.8321,-5.8321,-5.8321,-5.8321,-5.8321,-5.8321,-5.8321,-5.8321,-5.8321,-5.8321,-5.8321,-5.8321,-5.8022,-5.8085,-5.8053,-5.8085,-5.7958,-5.7958,-5.735,-5.6432,-5.575,-5.524,-5.4514,-5.3806,-5.3591,-5.3283,-5.3037,-5.2883,-5.279,-5.2729,-5.2729,-5.2729,-5.2729,-5.2729,-5.2729,-5.2729,-5.2729,-5.279,-6.4706,-6.4672,-6.4322,-6.4215,-6.4144,-6.3783,-6.36,-6.36,-6.36,-6.36,-6.36,-6.36,-6.36,-6.36,-6.36,-6.36,-6.36,-6.36,-6.36,-6.36,-6.36,-6.36,-6.36,-6.36,-6.36,-6.36,-6.36,-6.36,-6.36,-6.36,-6.36,-6.36,-6.36,-6.36,-6.3526,-6.3302,-6.3038,-6.2847,-6.2576,-6.2415,-6.2415,-6.2415,-6.2415,-6.2415,-6.2415,-6.2415,-6.2347,-6.2144,-6.2009,-6.1772,-6.1197,-6.0926,-6.0757,-6.0452,-6.025,-6.0317,-6.0588,-6.0637,-6.0259,-5.9901,-5.9543,-5.9783,-6.0027,-6.0337,-6.0378,-6.0239,-5.9979,-5.9804,-5.9673,-5.9552,-5.9331,-5.9107,-5.8882,-5.8655,-5.8473,-5.8367,-5.8321,-5.8321,-5.8321,-5.8321,-5.8321,-5.8321,-5.8321,-5.8321,-5.8321,-5.8321,-5.8321,-5.8321,-5.8321,-5.8321,-5.8321,-5.8321,-5.8321,-5.8321,-5.8211,-5.7774,-5.726,-5.6715,-5.6109,-5.5333,-5.4545,-5.3837,-5.3529,-5.3252,-5.3037,-5.2914,-5.2821,-5.276,-5.2729,-5.2729,-5.2729,-5.2729,-5.2729,-5.279,-5.3006,-6.4706,-6.4637,-6.4358,-6.4216,-6.4144,-6.3783,-6.36,-6.36,-6.36,-6.36,-6.36,-6.36,-6.36,-6.36,-6.36,-6.36,-6.36,-6.36,-6.36,-6.36,-6.36,-6.36,-6.36,-6.36,-6.36,-6.36,-6.36,-6.36,-6.36,-6.36,-6.36,-6.36,-6.36,-6.36,-6.3526,-6.3227,-6.3,-6.2923,-6.2615,-6.2415,-6.2415,-6.2415,-6.2415,-6.2415,-6.2415,-6.2415,-6.2415,-6.2313,-6.2313,-6.2178,-6.1907,-6.167,-6.1434,-6.1163,-6.0825,-6.096,-6.1158,-6.1374,-6.0891,-6.0405,-6.0118,-6.0398,-6.0364,-6.045,-6.0378,-6.0152,-5.9848,-5.976,-5.9628,-5.9464,-5.9241,-5.8972,-5.8746,-5.8473,-5.8413,-5.8321,-5.8321,-5.8321,-5.8321,-5.8321,-5.8321,-5.8321,-5.8321,-5.8321,-5.8321,-5.8321,-5.8321,-5.8321,-5.8321,-5.8321,-5.8321,-5.8321,-5.8321,-5.8321,-5.8243,-5.7946,-5.765,-5.7386,-5.6778,-5.6155,-5.5364,-5.4607,-5.4052,-5.396,-5.3652,-5.3191,-5.2975,-5.2975,-5.2852,-5.2729,-5.2729,-5.279,-5.3129,-5.3283,-5.356,-6.4706,-6.4672,-6.4463,-6.4323,-6.418,-6.3783,-6.36,-6.3637,-6.36,-6.36,-6.36,-6.36,-6.36,-6.36,-6.36,-6.36,-6.36,-6.36,-6.36,-6.36,-6.36,-6.36,-6.36,-6.36,-6.36,-6.36,-6.36,-6.36,-6.36,-6.36,-6.36,-6.3669,-6.3703,-6.3703,-6.3597,-6.3227,-6.3038,-6.2923,-6.2576,-6.242,-6.2415,-6.2415,-6.2415,-6.2415,-6.2415,-6.2415,-6.2415,-6.2415,-6.2415,-6.2347,-6.2313,-6.2178,-6.2144,-6.211,-6.2042,-6.211,-6.2178,-6.2082,-6.1683,-6.1276,-6.1003,-6.0846,-6.0685,-6.0463,-6.0292,-6.0033,-5.976,-5.9673,-5.9508,-5.9286,-5.9017,-5.8792,-5.8564,-5.8427,-5.8321,-5.8321,-5.8321,-5.8321,-5.8321,-5.8321,-5.8321,-5.8321,-5.8321,-5.8321,-5.8321,-5.8321,-5.8321,-5.8321,-5.8321,-5.8321,-5.8321,-5.8321,-5.8321,-5.8321,-5.8321,-5.8321,-5.8119,-5.7855,-5.7418,-5.6762,-5.6169,-5.5517,-5.5054,-5.473,-5.4268,-5.3775,-5.3468,-5.3221,-5.3283,-5.3345,-5.2944,-5.3006,-5.333,-5.373,-5.4037,-6.4706,-6.4672,-6.4463,-6.4393,-6.4287,-6.3965,-6.3783,-6.3747,-6.3673,-6.36,-6.36,-6.36,-6.36,-6.36,-6.36,-6.36,-6.36,-6.36,-6.36,-6.36,-6.36,-6.36,-6.36,-6.36,-6.36,-6.36,-6.36,-6.3669,-6.36,-6.3772,-6.3669,-6.3669,-6.4117,-6.4014,-6.3626,-6.3227,-6.3,-6.2923,-6.2654,-6.2415,-6.2415,-6.2415,-6.2415,-6.2415,-6.2415,-6.2415,-6.2415,-6.2415,-6.2415,-6.2415,-6.2415,-6.2415,-6.2415,-6.2415,-6.2415,-6.2381,-6.2381,-6.2183,-6.175,-6.1342,-6.1086,-6.0994,-6.0708,-6.042,-6.0335,-5.9979,-5.976,-5.9628,-5.9419,-5.9197,-5.9017,-5.8746,-5.8564,-5.8381,-5.8321,-5.8321,-5.8321,-5.8321,-5.8321,-5.8321,-5.8321,-5.8321,-5.8321,-5.8321,-5.8321,-5.8321,-5.8321,-5.8321,-5.8321,-5.8321,-5.8321,-5.8321,-5.8321,-5.8321,-5.8321,-5.8321,-5.8228,-5.7965,-5.7653,-5.7245,-5.6729,-5.6182,-5.5793,-5.5376,-5.4853,-5.4314,-5.4114,-5.3929,-5.4083,-5.4052,-5.3745,-5.3714,-5.4176,-5.4437,-5.4699,-6.4706,-6.4672,-6.4568,-6.4533,-6.4463,-6.4144,-6.3999,-6.3891,-6.3673,-6.36,-6.36,-6.36,-6.36,-6.36,-6.36,-6.36,-6.36,-6.36,-6.36,-6.36,-6.36,-6.36,-6.36,-6.36,-6.36,-6.3669,-6.3876,-6.4014,-6.4083,-6.4289,-6.4462,-6.4669,-6.4841,-6.4876,-6.4418,-6.3951,-6.341,-6.326,-6.2926,-6.2415,-6.2415,-6.2415,-6.2415,-6.2415,-6.2415,-6.2415,-6.2415,-6.2415,-6.2415,-6.2415,-6.2415,-6.2415,-6.2415,-6.2415,-6.2415,-6.2381,-6.2183,-6.1991,-6.1669,-6.17,-6.1558,-6.1508,-6.083,-6.0453,-6.0292,-5.9979,-5.976,-5.9628,-5.9439,-5.9261,-5.9068,-5.8842,-5.86,-5.8447,-5.8401,-5.8401,-5.8447,-5.8401,-5.8401,-5.8401,-5.8401,-5.8415,-5.8352,-5.8321,-5.8321,-5.8321,-5.8321,-5.8321,-5.8321,-5.8321,-5.8321,-5.8321,-5.8321,-5.8321,-5.8321,-5.8321,-5.8228,-5.8089,-5.7778,-5.7448,-5.7165,-5.6696,-5.632,-5.5992,-5.5468,-5.5037,-5.4714,-5.4621,-5.473,-5.4791,-5.473,-5.4791,-5.5037,-5.5161,-5.5315,-6.4706,-6.4706,-6.4706,-6.4672,-6.4637,-6.4322,-6.4073,-6.3856,-6.371,-6.36,-6.36,-6.36,-6.36,-6.36,-6.36,-6.36,-6.36,-6.36,-6.36,-6.36,-6.36,-6.36,-6.36,-6.36,-6.3703,-6.3945,-6.422,-6.4531,-6.4772,-6.5152,-6.5531,-6.5807,-6.588,-6.5876,-6.5589,-6.5014,-6.4371,-6.3942,-6.3192,-6.2759,-6.2685,-6.2448,-6.2415,-6.2415,-6.2415,-6.2415,-6.2415,-6.2415,-6.2415,-6.2415,-6.2415,-6.2415,-6.2415,-6.2415,-6.2415,-6.233,-6.2085,-6.1958,-6.2063,-6.2224,-6.2188,-6.2103,-6.1258,-6.0725,-6.051,-6.0434,-6.0279,-6.0069,-5.9878,-5.9537,-5.9215,-5.8928,-5.8715,-5.8622,-5.8622,-5.8622,-5.859,-5.859,-5.8622,-5.8622,-5.8654,-5.8654,-5.8559,-5.8496,-5.8559,-5.8321,-5.8321,-5.8321,-5.8321,-5.8321,-5.8321,-5.8321,-5.8321,-5.8321,-5.8321,-5.8321,-5.8182,-5.8043,-5.7731,-5.7448,-5.7275,-5.7053,-5.6659,-5.63,-5.6023,-5.5745,-5.553,-5.5345,-5.5253,-5.5345,-5.553,-5.5622,-5.5745,-5.5776,-5.593,-6.4706,-6.4706,-6.4706,-6.4706,-6.4672,-6.4463,-6.4145,-6.3927,-6.3854,-6.3747,-6.36,-6.36,-6.36,-6.36,-6.36,-6.36,-6.36,-6.36,-6.36,-6.36,-6.36,-6.36,-6.36,-6.3634,-6.3876,-6.4289,-6.4634,-6.5048,-6.5462,-6.5911,-6.6324,-6.6566,-6.6669,-6.6911,-6.6828,-6.6313,-6.5573,-6.4761,-6.3798,-6.3334,-6.3024,-6.2787,-6.2685,-6.2584,-6.2618,-6.2618,-6.2618,-6.2584,-6.255,-6.2482,-6.2448,-6.2415,-6.2415,-6.2415,-6.2477,-6.2851,-6.2669,-6.2631,-6.2966,-6.2979,-6.2984,-6.2888,-6.2311,-6.2103,-6.1818,-6.1454,-6.1077,-6.0735,-6.0463,-6.0216,-6.0,-5.9708,-5.9443,-5.9349,-5.9349,-5.9349,-5.9349,-5.9349,-5.9349,-5.9349,-5.9349,-5.9222,-5.9096,-5.9033,-5.9033,-5.8559,-5.8384,-5.8432,-5.8384,-5.8415,-5.8321,-5.8321,-5.8321,-5.8321,-5.8321,-5.8321,-5.815,-5.8011,-5.7731,-5.7448,-5.718,-5.6988,-5.6858,-5.6686,-5.6361,-5.633,-5.6361,-5.6146,-5.5899,-5.6176,-5.6361,-5.6471,-5.6471,-5.6409,-5.633,-6.4706,-6.4706,-6.4706,-6.4706,-6.4672,-6.4568,-6.4358,-6.4109,-6.3965,-6.3854,-6.3745,-6.3637,-6.36,-6.36,-6.36,-6.36,-6.36,-6.36,-6.36,-6.36,-6.36,-6.36,-6.36,-6.3669,-6.4014,-6.4496,-6.5117,-6.5635,-6.6186,-6.6704,-6.7118,-6.7359,-6.7428,-6.7669,-6.7655,-6.717,-6.6662,-6.5778,-6.493,-6.4146,-6.3734,-6.3463,-6.3362,-6.3193,-6.3193,-6.3193,-6.3193,-6.3193,-6.3226,-6.3226,-6.326,-6.326,-6.3294,-6.3328,-6.3282,-6.3579,-6.3407,-6.3292,-6.3491,-6.3677,-6.368,-6.3682,-6.3539,-6.3481,-6.2962,-6.2398,-6.1912,-6.1504,-6.1234,-6.1006,-6.0818,-6.063,-6.0456,-6.0234,-6.0234,-6.0234,-6.0234,-6.0234,-6.0234,-6.0234,-6.0139,-5.9981,-5.9854,-5.976,-5.9665,-5.9444,-5.9317,-5.9349,-5.9001,-5.859,-5.8401,-5.8321,-5.8321,-5.8321,-5.8274,-5.8274,-5.8104,-5.7918,-5.7684,-5.7448,-5.7132,-5.6971,-5.681,-5.681,-5.6779,-5.6717,-5.6656,-5.6717,-5.6625,-5.681,-5.681,-5.6717,-5.6656,-5.6656,-5.6686,-6.4706,-6.4706,-6.4706,-6.4706,-6.4706,-6.4672,-6.4568,-6.4358,-6.4073,-6.3892,-6.382,-6.3673,-6.36,-6.36,-6.36,-6.36,-6.36,-6.36,-6.36,-6.36,-6.36,-6.36,-6.36,-6.3669,-6.4186,-6.4807,-6.5497,-6.6117,-6.7014,-6.7463,-6.7738,-6.8083,-6.8014,-6.8049,-6.7896,-6.7576,-6.7168,-6.6766,-6.5773,-6.4884,-6.4681,-6.4613,-6.4613,-6.4478,-6.4444,-6.4478,-6.4478,-6.4546,-6.4613,-6.458,-6.4512,-6.4444,-6.441,-6.4377,-6.4356,-6.4319,-6.4103,-6.4051,-6.4105,-6.4287,-6.4409,-6.4498,-6.4548,-6.4433,-6.3845,-6.3166,-6.2645,-6.2409,-6.2181,-6.1899,-6.171,-6.1376,-6.1104,-6.1055,-6.1055,-6.1055,-6.1055,-6.1055,-6.1024,-6.1024,-6.1024,-6.0834,-6.0518,-6.0423,-6.0202,-6.0202,-6.0076,-6.0044,-5.9823,-5.9159,-5.8843,-5.8559,-5.8306,-5.8306,-5.8274,-5.8228,-5.8089,-5.7871,-5.7637,-5.7353,-5.7019,-5.6875,-5.681,-5.681,-5.681,-5.681,-5.6779,-5.681,-5.681,-5.681,-5.681,-5.681,-5.681,-5.681,-5.681,-6.4706,-6.4706,-6.4706,-6.4706,-6.4706,-6.4706,-6.4602,-6.4428,-6.4216,-6.4001,-6.3891,-6.371,-6.36,-6.36,-6.36,-6.36,-6.36,-6.36,-6.36,-6.36,-6.36,-6.36,-6.36,-6.3634,-6.4358,-6.529,-6.5979,-6.6635,-6.7532,-6.798,-6.8083,-6.8083,-6.8083,-6.8078,-6.7919,-6.7597,-6.7435,-6.7236,-6.6615,-6.5764,-6.5459,-6.4884,-6.4613,-6.4647,-6.4681,-6.4783,-6.4783,-6.4715,-6.4647,-6.458,-6.458,-6.458,-6.458,-6.4647,-6.4713,-6.4749,-6.4756,-6.4743,-6.4816,-6.494,-6.4995,-6.4961,-6.4889,-6.4773,-6.4401,-6.3836,-6.3394,-6.3221,-6.3,-6.2763,-6.2444,-6.2075,-6.1733,-6.1782,-6.1814,-6.1814,-6.1814,-6.1782,-6.1782,-6.1814,-6.1814,-6.1593,-6.1245,-6.1024,-6.0771,-6.0581,-6.0329,-6.0265,-6.0329,-5.9981,-5.9696,-5.9286,-5.8527,-5.8369,-5.8369,-5.8136,-5.7965,-5.7684,-5.7448,-5.7163,-5.6923,-5.6858,-5.681,-5.681,-5.681,-5.681,-5.681,-5.681,-5.681,-5.681,-5.681,-5.681,-5.681,-5.681,-5.681,-6.4425,-6.4706,-6.4706,-6.4706,-6.4706,-6.4706,-6.4602,-6.4428,-6.4251,-6.4073,-6.3891,-6.371,-6.36,-6.36,-6.36,-6.36,-6.36,-6.36,-6.36,-6.36,-6.36,-6.36,-6.36,-6.3634,-6.46,-6.5566,-6.66,-6.7428,-6.8014,-6.8083,-6.8083,-6.8083,-6.8083,-6.7999,-6.7799,-6.7597,-6.7428,-6.718,-6.6896,-6.6542,-6.6136,-6.5764,-6.5595,-6.5595,-6.5561,-6.5561,-6.5595,-6.5595,-6.5595,-6.5595,-6.5696,-6.5662,-6.5696,-6.573,-6.5581,-6.5487,-6.5483,-6.5444,-6.5426,-6.5425,-6.5425,-6.5258,-6.4943,-6.4715,-6.461,-6.4091,-6.3797,-6.3623,-6.3212,-6.2972,-6.2796,-6.2456,-6.2211,-6.2112,-6.2112,-6.2112,-6.2112,-6.2112,-6.2112,-6.2112,-6.2112,-6.213,-6.1877,-6.1845,-6.1656,-6.1624,-6.1308,-6.115,-6.1119,-6.0834,-6.055,-6.0139,-5.9412,-5.8875,-5.8843,-5.8373,-5.7825,-5.7543,-5.7289,-5.7067,-5.6875,-5.6858,-5.681,-5.681,-5.681,-5.681,-5.681,-5.681,-5.681,-5.681,-5.681,-5.681,-5.681,-5.681,-5.681,-6.3863,-6.453,-6.4566,-6.4636,-6.4672,-6.4672,-6.4533,-6.4358,-6.4216,-6.4072,-6.382,-6.3673,-6.36,-6.36,-6.36,-6.36,-6.36,-6.36,-6.36,-6.36,-6.36,-6.36,-6.36,-6.3703,-6.4669,-6.5911,-6.7152,-6.7635,-6.8083,-6.8083,-6.8083,-6.8083,-6.8044,-6.7999,-6.7799,-6.7557,-6.7353,-6.7105,-6.6896,-6.6812,-6.6779,-6.6812,-6.6677,-6.6711,-6.6812,-6.6812,-6.6812,-6.6779,-6.6779,-6.6711,-6.6576,-6.6542,-6.6466,-6.639,-6.617,-6.6048,-6.5841,-6.569,-6.5481,-6.5425,-6.5425,-6.5291,-6.493,-6.4702,-6.4643,-6.4398,-6.415,-6.3867,-6.3533,-6.318,-6.3034,-6.279,-6.2545,-6.2396,-6.2396,-6.2396,-6.2396,-6.2396,-6.2396,-6.2396,-6.2396,-6.2365,-6.2365,-6.2333,-6.2365,-6.2396,-6.2396,-6.2396,-6.2207,-6.1782,-6.1403,-6.0992,-6.0455,-5.9981,-5.9491,-5.8751,-5.8028,-5.7635,-5.7411,-5.7095,-5.6906,-5.681,-5.681,-5.681,-5.681,-5.681,-5.681,-5.681,-5.681,-5.681,-5.681,-5.681,-5.681,-5.681,-5.681,-6.3091,-6.3793,-6.3793,-6.4109,-6.4601,-6.4498,-6.4358,-6.4216,-6.4037,-6.382,-6.371,-6.3637,-6.36,-6.36,-6.36,-6.36,-6.36,-6.36,-6.36,-6.36,-6.36,-6.36,-6.3703,-6.3945,-6.4634,-6.5911,-6.7256,-6.7945,-6.8083,-6.8083,-6.8083,-6.8083,-6.8083,-6.7925,-6.7597,-6.7435,-6.7312,-6.7022,-6.6854,-6.6812,-6.6812,-6.6812,-6.6812,-6.6812,-6.6812,-6.6812,-6.6812,-6.6812,-6.6812,-6.6812,-6.6812,-6.6812,-6.6728,-6.6677,-6.6388,-6.6139,-6.5965,-6.5702,-6.5514,-6.5425,-6.5425,-6.5546,-6.5218,-6.4899,-6.4747,-6.4533,-6.433,-6.414,-6.379,-6.3405,-6.313,-6.2692,-6.2446,-6.2396,-6.2396,-6.2396,-6.2396,-6.2396,-6.2396,-6.2396,-6.2396,-6.2396,-6.2396,-6.2365,-6.2365,-6.2396,-6.2396,-6.2396,-6.2396,-6.2238,-6.2161,-6.1751,-6.1308,-6.0658,-5.9946,-5.9126,-5.8448,-5.7942,-5.7452,-5.7122,-5.695,-5.681,-5.681,-5.681,-5.681,-5.681,-5.681,-5.681,-5.681,-5.681,-5.681,-5.681,-5.681,-5.681,-5.681]},{"header":{"parameterUnit":"m.s-1","parameterCategory":1,"la1":31.0,"la2":29.5877,"lo1":-88.7671,"lo2":-86.6584,"dy":0.0162,"dx":0.0185,"nx":115,"ny":88,"refTime":"2023-04-03T00:00:00:Z","depth":0,"parameterNumber":3,"parameterNumberName":"V-component_of_WINDS"},"data":[0.0,0.0,0.0,0.0,0.0,0.0,0.0,0.0,0.0,0.0,0.0,0.0,0.0,0.0,0.0,0.0,0.0,0.0,0.0,0.0,0.0,0.0,0.0,0.0,0.0,0.0,0.0,0.0,0.0,0.0,0.0,0.0,0.0,0.0,0.0,0.0,0.0,0.0,0.0,0.0,0.0,0.0,0.0,0.0,0.0,0.0,0.0,0.0,0.0,0.0,0.0,0.0,0.0,0.0,0.0,0.0,0.0,0.0,0.0,0.0,0.0,0.0,0.0,0.0,0.0,0.0,0.0,0.0,0.0,0.0,0.0,0.0,0.0,0.0,0.0,0.0,0.0,0.0,0.0,0.0,0.0,0.0,0.0,0.0,0.0,0.0,0.0,0.0,0.0,0.0,0.0,0.0,0.0,0.0,0.0,0.0,0.0,0.0,0.0,0.0,0.0,0.0,0.0,0.0,0.0,0.0,0.0,0.0,0.0,0.0,0.0,0.0,0.0,0.0,0.0,0.0,0.0,0.0,0.0,0.0,0.0,0.0,0.0,0.0,0.0,0.0,0.0,0.0,0.0,0.0,0.0,0.0,0.0,0.0,0.0,0.0,0.0,0.0,0.0,0.0,0.0,0.0,0.0,0.0,0.0,0.0,0.0,0.0,0.0,0.0,0.0,0.0,0.0,0.0,0.0,0.0,0.0,0.0,0.0,0.0,0.0,0.0,0.0,0.0,0.0,0.0,0.0,0.0,0.0,0.0,0.0,0.0,0.0,0.0,0.0,0.0,0.0,0.0,0.0,0.0,0.0,0.0,0.0,0.0,0.0,0.0,0.0,0.0,0.0,0.0,0.0,0.0,0.0,0.0,0.0,0.0,0.0,0.0,0.0,0.0,0.0,0.0,0.0,0.0,0.0,0.0,0.0,0.0,0.0,0.0,0.0,0.0,0.0,0.0,0.0,0.0,0.0,0.0,0.0,0.0,0.0,0.0,0.0,0.0,0.0,0.0,0.0,0.0,0.0,0.0,0.0,0.0,0.0,0.0,0.0,0.0,0.0,0.0,0.0,0.0,0.0,0.0,0.0,0.0,0.0,0.0,0.0,0.0,0.0,0.0,0.0,0.0,0.0,0.0,0.0,0.0,0.0,0.0,0.0,0.0,0.0,0.0,0.0,0.0,0.0,0.0,0.0,0.0,0.0,0.0,0.0,0.0,0.0,0.0,0.0,0.0,0.0,0.0,0.0,0.0,0.0,0.0,0.0,0.0,0.0,0.0,0.0,0.0,0.0,0.0,0.0,0.0,0.0,0.0,0.0,0.0,0.0,0.0,0.0,0.0,0.0,0.0,0.0,0.0,0.0,0.0,0.0,0.0,0.0,0.0,0.0,0.0,0.0,0.0,0.0,0.0,0.0,0.0,0.0,0.0,0.0,0.0,0.0,0.0,0.0,0.0,0.0,0.0,0.0,0.0,0.0,0.0,0.0,0.0,0.0,0.0,0.0,0.0,0.0,0.0,0.0,0.0,0.0,0.0,0.0,0.0,0.0,0.0,0.0,0.0,0.0,0.0,0.0,0.0,0.0,0.0,0.0,0.0,0.0,0.0,0.0,0.0,0.0,0.0,0.0,0.0,0.0,0.0,0.0,0.0,0.0,0.0,0.0,0.0,0.0,0.0,0.0,0.0,0.0,0.0,0.0,0.0,0.0,0.0,0.0,0.0,0.0,0.0,0.0,0.0,0.0,0.0,0.0,0.0,0.0,0.0,0.0,0.0,0.0,0.0,0.0,0.0,0.0,0.0,0.0,0.0,0.0,0.0,0.0,0.0,0.0,0.0,0.0,0.0,0.0,0.0,0.0,0.0,0.0,0.0,0.0,0.0,0.0,0.0,0.0,0.0,0.0,0.0,0.0,0.0,0.0,0.0,0.0,0.0,0.0,0.0,0.0,0.0,0.0,0.0,0.0,0.0,0.0,0.0,0.0,0.0,0.0,0.0,0.0,0.0,0.0,0.0,0.0,0.0,0.0,0.0,0.0,0.0,0.0,0.0,0.0,0.0,0.0,0.0,0.0,0.0,0.0,0.0,0.0,0.0,0.0,0.0,0.0,0.0,0.0,0.0,0.0,0.0,0.0,0.0,0.0,0.0,0.0,0.0,0.0,0.0,0.0,0.0,0.0,0.0,0.0,0.0,0.0,0.0,0.0,0.0,0.0,0.0,0.0,0.0,0.0,0.0,0.0,0.0,0.0,0.0,0.0,0.0,0.0,0.0,0.0,0.0,0.0,0.0,0.0,0.0,0.0,0.0,0.0,0.0,0.0,0.0,0.0,0.0,0.0,0.0,0.0,0.0,0.0,0.0,0.0,0.0,0.0,0.0,0.0,0.0,0.0,0.0,0.0,0.0,0.0,0.0,0.0,0.0,0.0,0.0,0.0,0.0,0.0,0.0,0.0,0.0,0.0,0.0,0.0,0.0,0.0,0.0,0.0,0.0,0.0,0.0,0.0,0.0,0.0,0.0,0.0,0.0,0.0,0.0,0.0,0.0,0.0,0.0,0.0,0.0,0.0,0.0,0.0,0.0,0.0,0.0,0.0,0.0,0.0,0.0,0.0,0.0,0.0,0.0,0.0,0.0,0.0,0.0,0.0,0.0,0.0,0.0,0.0,0.0,0.0,0.0,0.0,0.0,0.0,0.0,0.0,0.0,0.0,0.0,0.0,0.0,0.0,0.0,0.0,0.0,0.0,0.0,0.0,0.0,0.0,0.0,0.0,0.0,0.0,0.0,0.0,0.0,0.0,0.0,0.0,0.0,0.0,0.0,0.0,0.0,0.0,0.0,0.0,0.0,0.0,0.0,0.0,0.0,0.0,0.0,0.0,0.0,0.0,0.0,0.0,0.0,0.0,0.0,0.0,0.0,0.0,0.0,0.0,0.0,0.0,0.0,0.0,0.0,0.0,0.0,0.0,0.0,0.0,0.0,0.0,0.0,0.0,0.0,0.0,0.0,0.0,0.0,0.0,0.0,0.0,0.0,0.0,0.0,0.0,0.0,0.0,0.0,0.0,0.0,0.0,0.0,0.0,0.0,0.0,0.0,0.0,0.0,0.0,0.0,0.0,0.0,0.0,0.0,0.0,0.0,0.0,0.0,0.0,0.0,0.0,0.0,0.0,0.0,0.0,0.0,0.0,0.0,0.0,0.0,0.0,0.0,0.0,0.0,0.0,0.0,0.0,0.0,0.0,0.0,0.0,0.0,0.0,0.0,0.0,0.0,0.0,0.0,0.0,0.0,0.0,0.0,0.0,0.0,0.0,0.0,0.0,0.0,0.0,0.0,0.0,0.0,0.0,0.0,0.0,0.0,0.0,0.0,0.0,0.0,0.0,0.0,0.0,0.0,0.0,0.0,0.0,0.0,0.0,0.0,0.0,0.0,0.0,0.0,0.0,0.0,0.0,0.0,0.0,0.0,0.0,0.0,0.0,0.0,0.0,0.0,0.0,0.0,0.0,0.0,0.0,0.0,0.0,0.0,0.0,0.0,0.0,0.0,0.0,0.0,0.0,0.0,0.0,0.0,0.0,0.0,0.0,0.0,0.0,0.0,0.0,0.0,0.0,0.0,0.0,0.0,0.0,0.0,0.0,0.0,0.0,0.0,0.0,0.0,0.0,0.0,0.0,0.0,0.0,0.0,0.0,0.0,0.0,0.0,0.0,0.0,0.0,0.0,0.0,0.0,0.0,0.0,0.0,0.0,0.0,0.0,0.0,0.0,0.0,0.0,0.0,0.0,0.0,0.0,0.0,0.0,0.0,0.0,0.0,0.0,0.0,0.0,0.0,0.0,0.0,0.0,0.0,0.0,0.0,0.0,0.0,0.0,0.0,0.0,0.0,0.0,0.0,0.0,0.0,0.0,0.0,0.0,0.0,0.0,0.0,0.0,0.0,0.0,0.0,0.0,0.0,0.0,0.0,0.0,0.0,0.0,0.0,0.0,0.0,0.0,0.0,0.0,0.0,0.0,0.0,0.0,0.0,0.0,0.0,0.0,0.0,0.0,0.0,0.0,0.0,0.0,0.0,0.0,0.0,0.0,0.0,0.0,0.0,0.0,0.0,0.0,0.0,0.0,0.0,0.0,0.0,0.0,0.0,0.0,0.0,0.0,0.0,0.0,0.0,0.0,0.0,0.0,0.0,0.0,0.0,0.0,0.0,0.0,0.0,0.0,0.0,0.0,0.0,0.0,0.0,0.0,0.0,0.0,0.0,0.0,0.0,0.0,0.0,0.0,0.0,0.0,2.2348,0.0,0.0,0.0,0.0,0.0,0.0,0.0,0.0,0.0,0.0,0.0,0.0,0.0,0.0,0.0,0.0,0.0,0.0,0.0,0.0,0.0,0.0,0.0,0.0,0.0,0.0,0.0,0.0,0.0,0.0,0.0,0.0,0.0,0.0,0.0,0.0,0.0,0.0,0.0,0.0,0.0,0.0,0.0,0.0,0.0,0.0,0.0,0.0,0.0,0.0,0.0,0.0,0.0,0.0,0.0,0.0,0.0,0.0,0.0,0.0,0.0,0.0,0.0,0.0,0.0,0.0,0.0,0.0,0.0,0.0,0.0,0.0,0.0,0.0,0.0,0.0,0.0,0.0,0.0,0.0,0.0,0.0,0.0,0.0,0.0,0.0,0.0,0.0,0.0,0.0,0.0,0.0,0.0,0.0,0.0,0.0,0.0,0.0,0.0,0.0,0.0,0.0,0.0,0.0,0.0,0.0,0.0,0.0,0.0,0.0,2.298,2.3065,2.2908,2.2868,2.2941,0.0,0.0,0.0,0.0,0.0,0.0,0.0,0.0,0.0,0.0,0.0,0.0,0.0,0.0,0.0,0.0,0.0,0.0,0.0,0.0,0.0,0.0,0.0,0.0,0.0,0.0,0.0,0.0,0.0,0.0,0.0,0.0,0.0,0.0,0.0,0.0,0.0,0.0,0.0,0.0,0.0,0.0,0.0,0.0,0.0,0.0,0.0,0.0,0.0,0.0,0.0,0.0,0.0,0.0,0.0,0.0,0.0,0.0,0.0,0.0,0.0,0.0,0.0,0.0,0.0,0.0,0.0,0.0,0.0,0.0,0.0,0.0,0.0,0.0,0.0,0.0,0.0,0.0,0.0,0.0,0.0,0.0,0.0,0.0,0.0,0.0,0.0,0.0,0.0,0.0,0.0,0.0,0.0,0.0,0.0,0.0,0.0,0.0,0.0,0.0,0.0,0.0,0.0,0.0,0.0,0.0,0.0,0.0,0.0,0.0,0.0,0.0,2.3248,2.3153,2.3295,0.0,0.0,0.0,0.0,0.0,0.0,0.0,0.0,0.0,0.0,0.0,0.0,0.0,0.0,0.0,0.0,0.0,0.0,0.0,0.0,0.0,0.0,0.0,0.0,0.0,0.0,0.0,0.0,0.0,0.0,0.0,0.0,0.0,0.0,0.0,0.0,0.0,0.0,0.0,0.0,0.0,0.0,0.0,0.0,0.0,0.0,0.0,0.0,0.0,0.0,0.0,0.0,0.0,0.0,0.0,0.0,0.0,0.0,0.0,0.0,0.0,0.0,0.0,0.0,0.0,0.0,0.0,0.0,0.0,0.0,0.0,0.0,0.0,0.0,0.0,0.0,0.0,0.0,0.0,0.0,0.0,0.0,0.0,0.0,0.0,0.0,0.0,0.0,0.0,0.0,0.0,0.0,0.0,0.0,0.0,0.0,0.0,0.0,0.0,0.0,0.0,0.0,0.0,0.0,0.0,0.0,0.0,0.0,0.0,0.0,2.3878,2.353,2.3399,0.0,2.3116,0.0,0.0,0.0,0.0,0.0,0.0,0.0,0.0,0.0,0.0,0.0,0.0,0.0,0.0,0.0,0.0,0.0,0.0,0.0,0.0,0.0,0.0,0.0,0.0,0.0,0.0,0.0,0.0,0.0,0.0,0.0,0.0,0.0,0.0,0.0,0.0,0.0,0.0,0.0,0.0,0.0,0.0,0.0,0.0,0.0,0.0,0.0,0.0,0.0,0.0,0.0,0.0,0.0,0.0,0.0,0.0,0.0,0.0,0.0,0.0,0.0,0.0,0.0,0.0,0.0,0.0,0.0,0.0,0.0,0.0,0.0,0.0,0.0,0.0,0.0,0.0,0.0,0.0,0.0,0.0,0.0,0.0,0.0,0.0,0.0,0.0,0.0,0.0,0.0,0.0,0.0,0.0,0.0,0.0,0.0,0.0,0.0,0.0,0.0,0.0,0.0,0.0,0.0,0.0,0.0,0.0,0.0,0.0,0.0,0.0,2.407,2.3992,2.3903,2.3863,0.0,0.0,0.0,0.0,0.0,0.0,0.0,0.0,0.0,0.0,0.0,0.0,0.0,0.0,0.0,0.0,0.0,0.0,0.0,0.0,0.0,0.0,0.0,0.0,0.0,0.0,0.0,0.0,0.0,0.0,0.0,0.0,0.0,0.0,0.0,0.0,0.0,0.0,0.0,0.0,0.0,0.0,0.0,0.0,0.0,0.0,0.0,0.0,0.0,0.0,0.0,0.0,0.0,0.0,0.0,0.0,0.0,0.0,0.0,0.0,0.0,0.0,0.0,0.0,0.0,0.0,0.0,0.0,0.0,0.0,0.0,0.0,0.0,0.0,0.0,0.0,0.0,0.0,0.0,0.0,0.0,0.0,0.0,0.0,0.0,0.0,0.0,0.0,0.0,0.0,0.0,0.0,0.0,0.0,0.0,0.0,0.0,0.0,0.0,0.0,0.0,0.0,0.0,0.0,0.0,0.0,0.0,0.0,0.0,0.0,2.4281,2.4223,2.4256,2.4249,2.4332,2.448,0.0,0.0,0.0,0.0,0.0,0.0,0.0,0.0,0.0,0.0,0.0,0.0,0.0,0.0,0.0,0.0,0.0,0.0,0.0,0.0,0.0,0.0,0.0,0.0,0.0,0.0,0.0,0.0,0.0,0.0,0.0,0.0,0.0,0.0,0.0,0.0,0.0,0.0,0.0,0.0,0.0,0.0,0.0,0.0,0.0,0.0,0.0,0.0,0.0,0.0,0.0,0.0,0.0,0.0,0.0,0.0,0.0,0.0,0.0,0.0,0.0,0.0,0.0,0.0,0.0,0.0,0.0,0.0,0.0,0.0,0.0,0.0,0.0,0.0,0.0,0.0,0.0,0.0,0.0,0.0,0.0,0.0,0.0,0.0,0.0,0.0,0.0,0.0,0.0,0.0,0.0,0.0,0.0,0.0,0.0,0.0,0.0,0.0,0.0,0.0,0.0,0.0,0.0,0.0,0.0,0.0,0.0,0.0,2.4574,2.4401,2.4289,2.4207,2.4399,2.448,0.0,0.0,0.0,0.0,0.0,0.0,0.0,0.0,0.0,0.0,0.0,0.0,0.0,0.0,0.0,0.0,0.0,0.0,0.0,0.0,0.0,0.0,0.0,0.0,0.0,0.0,0.0,0.0,0.0,0.0,0.0,0.0,0.0,0.0,0.0,0.0,0.0,0.0,0.0,0.0,0.0,0.0,0.0,0.0,0.0,0.0,0.0,0.0,0.0,0.0,0.0,0.0,0.0,0.0,0.0,0.0,0.0,0.0,0.0,0.0,0.0,0.0,0.0,0.0,0.0,0.0,0.0,0.0,0.0,0.0,0.0,0.0,0.0,0.0,0.0,0.0,0.0,0.0,0.0,0.0,0.0,0.0,0.0,0.0,0.0,0.0,0.0,0.0,0.0,0.0,0.0,0.0,0.0,0.0,0.0,0.0,0.0,0.0,0.0,0.0,0.0,0.0,0.0,0.0,0.0,0.0,0.0,0.0,0.0,2.4419,2.4293,2.4299,2.4399,2.448,2.4677,0.0,0.0,0.0,0.0,0.0,0.0,0.0,0.0,0.0,0.0,0.0,0.0,0.0,0.0,0.0,0.0,0.0,0.0,0.0,0.0,0.0,0.0,0.0,0.0,0.0,0.0,0.0,0.0,0.0,0.0,0.0,0.0,0.0,0.0,0.0,0.0,0.0,0.0,0.0,0.0,0.0,0.0,0.0,0.0,0.0,0.0,0.0,0.0,0.0,0.0,0.0,0.0,0.0,0.0,0.0,0.0,0.0,0.0,0.0,0.0,0.0,0.0,0.0,0.0,0.0,0.0,0.0,0.0,0.0,0.0,0.0,0.0,0.0,0.0,0.0,0.0,0.0,0.0,0.0,0.0,0.0,0.0,0.0,0.0,0.0,0.0,0.0,0.0,0.0,0.0,0.0,0.0,0.0,0.0,0.0,0.0,0.0,0.0,0.0,0.0,0.0,0.0,0.0,0.0,0.0,0.0,0.0,0.0,0.0,2.4289,0.0,2.4332,2.448,2.4695,2.4941,0.0,0.0,0.0,0.0,0.0,0.0,0.0,0.0,0.0,0.0,0.0,0.0,0.0,0.0,0.0,0.0,0.0,0.0,0.0,0.0,0.0,0.0,0.0,0.0,0.0,0.0,0.0,0.0,0.0,0.0,0.0,0.0,0.0,0.0,0.0,0.0,0.0,0.0,0.0,0.0,0.0,0.0,0.0,0.0,0.0,0.0,0.0,0.0,0.0,0.0,0.0,0.0,0.0,0.0,0.0,0.0,0.0,0.0,0.0,0.0,0.0,0.0,0.0,0.0,0.0,0.0,0.0,0.0,0.0,0.0,0.0,0.0,0.0,0.0,0.0,0.0,0.0,0.0,0.0,0.0,0.0,0.0,0.0,0.0,0.0,0.0,0.0,0.0,0.0,0.0,0.0,0.0,0.0,0.0,0.0,0.0,0.0,0.0,0.0,0.0,0.0,0.0,0.0,0.0,0.0,0.0,0.0,0.0,2.4669,2.4238,2.4399,2.448,2.448,2.499,2.5284,0.0,0.0,0.0,0.0,0.0,0.0,0.0,0.0,0.0,0.0,0.0,0.0,0.0,0.0,0.0,0.0,0.0,0.0,0.0,0.0,0.0,0.0,0.0,0.0,0.0,0.0,0.0,0.0,0.0,0.0,0.0,0.0,0.0,0.0,0.0,0.0,0.0,0.0,0.0,0.0,0.0,0.0,0.0,0.0,0.0,0.0,0.0,0.0,0.0,0.0,0.0,0.0,0.0,0.0,0.0,0.0,0.0,0.0,0.0,0.0,0.0,0.0,0.0,0.0,0.0,0.0,0.0,0.0,0.0,0.0,0.0,0.0,0.0,0.0,0.0,0.0,0.0,0.0,0.0,0.0,0.0,0.0,0.0,0.0,0.0,0.0,0.0,0.0,0.0,0.0,0.0,0.0,0.0,0.0,0.0,0.0,0.0,0.0,0.0,0.0,0.0,0.0,0.0,0.0,0.0,0.0,0.0,0.0,0.0,2.4238,2.4381,2.4578,2.4775,2.5137,2.5382,0.0,0.0,0.0,0.0,0.0,0.0,0.0,0.0,0.0,0.0,0.0,0.0,0.0,0.0,0.0,0.0,0.0,0.0,0.0,0.0,0.0,0.0,0.0,0.0,0.0,0.0,0.0,0.0,0.0,0.0,0.0,0.0,0.0,0.0,0.0,0.0,0.0,0.0,0.0,0.0,0.0,0.0,0.0,0.0,0.0,0.0,0.0,0.0,0.0,0.0,0.0,0.0,0.0,0.0,0.0,0.0,0.0,0.0,0.0,0.0,0.0,0.0,0.0,0.0,0.0,0.0,0.0,0.0,0.0,0.0,0.0,0.0,0.0,0.0,0.0,0.0,0.0,0.0,0.0,0.0,0.0,0.0,0.0,0.0,0.0,0.0,0.0,0.0,0.0,0.0,0.0,0.0,0.0,0.0,0.0,0.0,0.0,0.0,0.0,0.0,0.0,0.0,0.0,0.0,0.0,0.0,0.0,0.0,0.0,2.4679,2.4945,2.5246,2.5396,2.561,2.578,2.5927,0.0,0.0,0.0,0.0,0.0,0.0,0.0,0.0,0.0,0.0,0.0,0.0,0.0,0.0,0.0,0.0,0.0,0.0,0.0,0.0,0.0,0.0,0.0,0.0,0.0,0.0,0.0,0.0,0.0,0.0,0.0,0.0,0.0,0.0,0.0,0.0,0.0,0.0,0.0,0.0,0.0,0.0,0.0,0.0,0.0,0.0,0.0,0.0,0.0,0.0,0.0,0.0,0.0,0.0,0.0,0.0,0.0,0.0,0.0,0.0,0.0,0.0,0.0,0.0,0.0,0.0,0.0,0.0,0.0,0.0,0.0,0.0,0.0,0.0,0.0,0.0,0.0,0.0,0.0,0.0,0.0,0.0,0.0,0.0,0.0,0.0,0.0,0.0,0.0,0.0,0.0,0.0,0.0,0.0,0.0,0.0,0.0,0.0,0.0,0.0,0.0,0.0,0.0,0.0,0.0,0.0,0.0,0.0,2.5454,2.5989,2.6262,2.6205,2.6369,2.6426,0.0,0.0,0.0,0.0,0.0,0.0,0.0,0.0,0.0,0.0,0.0,0.0,0.0,0.0,0.0,0.0,0.0,0.0,0.0,0.0,0.0,0.0,0.0,0.0,0.0,0.0,0.0,0.0,0.0,0.0,0.0,0.0,0.0,0.0,0.0,0.0,0.0,0.0,0.0,0.0,0.0,0.0,0.0,0.0,0.0,0.0,0.0,0.0,0.0,0.0,0.0,0.0,0.0,0.0,0.0,0.0,0.0,0.0,0.0,0.0,0.0,0.0,0.0,0.0,0.0,0.0,0.0,0.0,0.0,0.0,0.0,0.0,0.0,0.0,0.0,0.0,0.0,0.0,0.0,0.0,0.0,0.0,0.0,0.0,0.0,0.0,0.0,0.0,0.0,0.0,0.0,0.0,0.0,0.0,0.0,0.0,0.0,0.0,0.0,0.0,0.0,0.0,0.0,0.0,0.0,0.0,0.0,0.0,0.0,2.6333,2.6779,2.6797,2.6243,2.6589,2.6855,0.0,0.0,0.0,0.0,0.0,0.0,0.0,0.0,0.0,0.0,0.0,0.0,0.0,0.0,0.0,0.0,0.0,0.0,0.0,0.0,0.0,0.0,0.0,0.0,0.0,0.0,0.0,0.0,0.0,0.0,0.0,0.0,0.0,0.0,0.0,0.0,0.0,0.0,0.0,0.0,0.0,0.0,0.0,0.0,0.0,0.0,0.0,0.0,0.0,0.0,0.0,0.0,0.0,0.0,0.0,0.0,0.0,0.0,0.0,0.0,0.0,0.0,0.0,0.0,0.0,0.0,0.0,0.0,0.0,0.0,0.0,0.0,0.0,0.0,0.0,0.0,0.0,0.0,0.0,0.0,0.0,0.0,0.0,0.0,0.0,0.0,0.0,0.0,0.0,0.0,0.0,0.0,0.0,0.0,0.0,0.0,0.0,0.0,0.0,0.0,0.0,0.0,0.0,0.0,0.0,0.0,0.0,0.0,2.6591,2.6646,2.7116,2.7195,2.6702,2.7072,2.7285,0.0,0.0,0.0,0.0,0.0,0.0,0.0,0.0,0.0,0.0,0.0,0.0,0.0,0.0,0.0,0.0,0.0,0.0,0.0,0.0,0.0,0.0,0.0,0.0,0.0,0.0,0.0,0.0,0.0,0.0,0.0,0.0,0.0,0.0,0.0,0.0,0.0,0.0,0.0,0.0,0.0,0.0,0.0,0.0,0.0,0.0,0.0,0.0,0.0,0.0,0.0,0.0,0.0,0.0,0.0,0.0,0.0,0.0,0.0,0.0,0.0,0.0,0.0,0.0,0.0,0.0,0.0,0.0,0.0,0.0,0.0,0.0,0.0,0.0,0.0,0.0,0.0,0.0,0.0,0.0,0.0,0.0,0.0,0.0,0.0,0.0,0.0,0.0,0.0,0.0,0.0,0.0,0.0,0.0,0.0,0.0,0.0,0.0,0.0,0.0,0.0,0.0,0.0,0.0,0.0,0.0,0.0,0.0,2.6701,2.6701,2.7229,2.7536,2.7479,2.7632,2.7787,0.0,0.0,0.0,0.0,0.0,0.0,0.0,0.0,0.0,0.0,0.0,0.0,0.0,0.0,0.0,0.0,0.0,0.0,0.0,0.0,0.0,0.0,0.0,0.0,0.0,0.0,0.0,0.0,0.0,0.0,0.0,0.0,0.0,0.0,0.0,0.0,0.0,0.0,0.0,0.0,0.0,0.0,0.0,0.0,0.0,0.0,0.0,0.0,0.0,0.0,0.0,0.0,0.0,0.0,0.0,0.0,0.0,0.0,0.0,0.0,0.0,0.0,0.0,0.0,0.0,0.0,0.0,0.0,0.0,0.0,0.0,0.0,0.0,0.0,0.0,0.0,0.0,0.0,0.0,0.0,0.0,0.0,0.0,0.0,0.0,0.0,0.0,0.0,0.0,0.0,0.0,0.0,0.0,0.0,0.0,0.0,0.0,0.0,0.0,0.0,0.0,0.0,0.0,0.0,0.0,0.0,0.0,0.0,2.7382,2.7401,2.8088,2.8236,2.7859,2.8057,2.8164,0.0,0.0,0.0,0.0,0.0,0.0,0.0,0.0,0.0,0.0,0.0,0.0,0.0,0.0,0.0,0.0,0.0,0.0,0.0,0.0,0.0,0.0,0.0,0.0,0.0,0.0,0.0,0.0,0.0,0.0,0.0,0.0,0.0,0.0,0.0,0.0,0.0,0.0,0.0,0.0,0.0,0.0,0.0,0.0,0.0,0.0,0.0,0.0,3.0216,0.0,0.0,0.0,0.0,0.0,0.0,0.0,0.0,0.0,0.0,0.0,0.0,0.0,0.0,0.0,0.0,0.0,0.0,0.0,0.0,0.0,0.0,0.0,0.0,0.0,0.0,0.0,0.0,0.0,0.0,0.0,0.0,0.0,0.0,0.0,0.0,0.0,0.0,0.0,0.0,0.0,0.0,0.0,0.0,0.0,0.0,0.0,0.0,0.0,0.0,0.0,0.0,0.0,0.0,0.0,0.0,0.0,0.0,0.0,2.7567,2.7642,2.8351,2.8464,2.8047,2.8365,2.8496,0.0,0.0,0.0,0.0,0.0,0.0,0.0,0.0,0.0,0.0,0.0,0.0,0.0,0.0,0.0,0.0,0.0,0.0,0.0,0.0,0.0,0.0,0.0,0.0,0.0,0.0,0.0,0.0,0.0,0.0,0.0,0.0,0.0,0.0,0.0,0.0,0.0,0.0,0.0,0.0,0.0,0.0,0.0,0.0,0.0,0.0,0.0,0.0,0.0,0.0,0.0,0.0,0.0,0.0,0.0,0.0,0.0,0.0,0.0,0.0,0.0,0.0,0.0,0.0,0.0,0.0,0.0,0.0,0.0,0.0,0.0,0.0,0.0,0.0,0.0,0.0,0.0,0.0,0.0,0.0,0.0,0.0,0.0,0.0,0.0,0.0,0.0,0.0,0.0,0.0,0.0,0.0,0.0,0.0,0.0,0.0,0.0,0.0,0.0,0.0,0.0,0.0,0.0,0.0,0.0,0.0,0.0,2.7639,2.7772,2.779,2.8502,2.8615,2.8161,2.8674,2.8789,2.8301,0.0,0.0,0.0,0.0,0.0,0.0,0.0,0.0,0.0,0.0,0.0,0.0,0.0,0.0,0.0,0.0,0.0,0.0,0.0,0.0,0.0,0.0,0.0,0.0,0.0,0.0,0.0,0.0,0.0,0.0,0.0,0.0,0.0,0.0,0.0,0.0,0.0,0.0,2.7254,2.8656,0.0,0.0,0.0,0.0,0.0,0.0,0.0,0.0,3.1134,0.0,0.0,0.0,0.0,0.0,0.0,0.0,0.0,0.0,0.0,0.0,0.0,0.0,0.0,0.0,0.0,0.0,0.0,0.0,0.0,0.0,0.0,0.0,0.0,0.0,0.0,0.0,0.0,0.0,0.0,0.0,0.0,0.0,0.0,0.0,0.0,0.0,0.0,0.0,0.0,0.0,0.0,0.0,0.0,0.0,0.0,0.0,0.0,0.0,0.0,0.0,0.0,0.0,0.0,0.0,0.0,2.7799,2.8254,2.8408,2.8427,2.9258,2.9296,2.8559,2.9138,2.9101,2.834,0.0,0.0,0.0,0.0,0.0,0.0,0.0,0.0,0.0,0.0,0.0,0.0,0.0,0.0,0.0,0.0,0.0,0.0,0.0,0.0,0.0,0.0,0.0,0.0,0.0,0.0,0.0,0.0,0.0,0.0,0.0,0.0,0.0,0.0,0.0,0.0,0.0,0.0,0.0,2.9525,3.0097,0.0,0.0,0.0,0.0,0.0,0.0,0.0,0.0,3.1664,0.0,0.0,0.0,0.0,0.0,0.0,0.0,0.0,0.0,0.0,0.0,0.0,0.0,0.0,0.0,0.0,0.0,0.0,0.0,0.0,0.0,0.0,0.0,0.0,0.0,0.0,0.0,0.0,0.0,0.0,0.0,0.0,0.0,0.0,0.0,0.0,0.0,0.0,0.0,0.0,0.0,0.0,0.0,0.0,0.0,0.0,0.0,0.0,0.0,0.0,0.0,0.0,0.0,0.0,0.0,2.8362,2.8536,2.8786,2.9241,2.9658,2.9582,2.8879,2.9346,2.918,0.0,0.0,0.0,0.0,0.0,0.0,0.0,0.0,0.0,0.0,0.0,0.0,0.0,0.0,0.0,0.0,0.0,0.0,0.0,0.0,0.0,0.0,0.0,0.0,0.0,0.0,0.0,0.0,0.0,0.0,0.0,0.0,0.0,0.0,0.0,0.0,0.0,0.0,0.0,0.0,3.0263,3.0856,3.1469,0.0,0.0,0.0,0.0,0.0,0.0,3.2289,3.2293,0.0,0.0,0.0,0.0,0.0,0.0,0.0,0.0,0.0,0.0,0.0,0.0,0.0,0.0,0.0,0.0,0.0,0.0,0.0,0.0,0.0,0.0,0.0,0.0,0.0,0.0,0.0,0.0,0.0,0.0,0.0,0.0,0.0,0.0,0.0,0.0,0.0,0.0,0.0,0.0,0.0,0.0,0.0,0.0,0.0,0.0,0.0,0.0,0.0,0.0,0.0,0.0,0.0,0.0,0.0,2.8852,2.8743,2.9051,2.9776,2.9947,2.9698,2.9104,2.9402,2.916,0.0,0.0,0.0,0.0,0.0,0.0,0.0,0.0,0.0,0.0,0.0,0.0,0.0,0.0,0.0,0.0,0.0,0.0,0.0,0.0,0.0,0.0,0.0,0.0,0.0,0.0,0.0,0.0,0.0,0.0,0.0,0.0,0.0,0.0,0.0,0.0,0.0,0.0,0.0,0.0,0.0,3.1622,3.2207,3.2669,0.0,0.0,0.0,0.0,3.2817,3.2992,0.0,0.0,0.0,0.0,0.0,0.0,0.0,0.0,0.0,0.0,0.0,0.0,0.0,0.0,0.0,0.0,0.0,0.0,0.0,0.0,0.0,0.0,0.0,0.0,0.0,0.0,0.0,0.0,0.0,0.0,0.0,0.0,0.0,0.0,0.0,0.0,0.0,0.0,0.0,0.0,0.0,0.0,0.0,0.0,0.0,0.0,0.0,0.0,0.0,0.0,0.0,0.0,0.0,0.0,0.0,0.0,2.8871,2.8966,2.9277,2.9757,3.018,2.993,2.9161,2.9458,2.9215,0.0,0.0,0.0,0.0,0.0,0.0,0.0,0.0,0.0,0.0,0.0,0.0,0.0,0.0,0.0,0.0,0.0,0.0,0.0,0.0,0.0,0.0,0.0,0.0,0.0,0.0,0.0,0.0,0.0,0.0,0.0,0.0,0.0,0.0,0.0,0.0,0.0,0.0,0.0,0.0,0.0,3.1932,3.2682,3.3047,3.3292,0.0,0.0,3.3595,3.3549,3.3773,0.0,0.0,0.0,0.0,0.0,0.0,0.0,0.0,0.0,0.0,0.0,0.0,0.0,0.0,0.0,0.0,0.0,0.0,0.0,0.0,0.0,0.0,0.0,0.0,0.0,0.0,0.0,0.0,0.0,0.0,0.0,0.0,0.0,0.0,0.0,0.0,0.0,0.0,0.0,0.0,0.0,0.0,0.0,0.0,0.0,0.0,0.0,0.0,0.0,0.0,0.0,0.0,0.0,0.0,0.0,2.8234,2.9258,2.9138,2.9506,3.0393,3.0412,3.0103,2.9422,2.9514,2.916,0.0,0.0,0.0,0.0,0.0,0.0,0.0,0.0,0.0,0.0,0.0,0.0,0.0,0.0,0.0,0.0,0.0,0.0,0.0,0.0,0.0,0.0,0.0,0.0,0.0,0.0,0.0,0.0,0.0,0.0,0.0,0.0,0.0,0.0,0.0,0.0,0.0,0.0,0.0,0.0,0.0,0.0,3.3047,3.3242,0.0,0.0,0.0,3.3741,3.3939,0.0,0.0,0.0,0.0,0.0,0.0,0.0,0.0,0.0,0.0,0.0,0.0,0.0,0.0,0.0,0.0,0.0,0.0,0.0,0.0,0.0,0.0,0.0,0.0,0.0,0.0,0.0,0.0,0.0,0.0,0.0,0.0,0.0,0.0,0.0,0.0,0.0,0.0,0.0,0.0,0.0,0.0,0.0,0.0,0.0,0.0,0.0,0.0,0.0,0.0,0.0,0.0,0.0,0.0,0.0,0.0,0.0,2.9551,2.9346,2.9773,3.084,3.0626,3.0219,2.9609,2.957,0.0,0.0,0.0,0.0,0.0,0.0,0.0,0.0,0.0,0.0,0.0,0.0,0.0,0.0,0.0,0.0,0.0,0.0,0.0,0.0,0.0,0.0,0.0,0.0,0.0,0.0,0.0,2.5551,0.0,0.0,0.0,0.0,0.0,0.0,0.0,0.0,0.0,0.0,0.0,0.0,0.0,0.0,3.2992,3.3242,3.3434,3.3654,0.0,0.0,3.4316,3.4374,3.4548,3.4625,0.0,0.0,0.0,0.0,0.0,0.0,0.0,0.0,0.0,0.0,0.0,0.0,0.0,0.0,0.0,0.0,0.0,0.0,0.0,0.0,0.0,0.0,0.0,0.0,0.0,0.0,0.0,0.0,0.0,0.0,0.0,0.0,0.0,0.0,0.0,0.0,0.0,0.0,0.0,0.0,0.0,0.0,0.0,0.0,0.0,0.0,0.0,0.0,0.0,0.0,0.0,0.0,0.0,0.0,0.0,2.9531,2.957,3.0,3.0859,3.0898,3.0469,2.9609,2.957,2.916,0.0,0.0,0.0,0.0,0.0,0.0,0.0,0.0,0.0,0.0,0.0,0.0,0.0,0.0,0.0,0.0,0.0,0.0,0.0,0.0,0.0,0.0,0.0,0.0,0.0,0.0,0.0,0.0,0.0,0.0,0.0,0.0,0.0,0.0,0.0,0.0,0.0,0.0,0.0,0.0,0.0,3.2992,3.3242,3.3862,3.4314,0.0,0.0,3.5666,3.5191,3.5346,3.5351,3.4871,0.0,0.0,0.0,0.0,0.0,0.0,0.0,0.0,0.0,0.0,0.0,0.0,0.0,0.0,0.0,0.0,0.0,0.0,0.0,0.0,0.0,0.0,0.0,0.0,0.0,0.0,0.0,0.0,0.0,0.0,0.0,0.0,0.0,0.0,0.0,0.0,0.0,0.0,0.0,0.0,0.0,0.0,0.0,0.0,0.0,0.0,0.0,0.0,0.0,0.0,0.0,0.0,0.0,2.8602,2.9551,2.957,3.0,3.084,3.0898,3.0469,2.9646,2.957,2.916,0.0,0.0,0.0,0.0,0.0,0.0,0.0,0.0,0.0,0.0,0.0,0.0,0.0,0.0,0.0,0.0,0.0,0.0,0.0,0.0,0.0,0.0,0.0,0.0,0.0,0.0,0.0,0.0,2.8437,2.895,2.9835,0.0,0.0,0.0,0.0,0.0,0.0,0.0,0.0,0.0,0.0,3.3678,3.3931,3.45,0.0,0.0,3.5707,3.5982,3.592,3.5997,3.5905,3.5351,3.5255,0.0,0.0,0.0,0.0,0.0,0.0,0.0,0.0,0.0,0.0,0.0,0.0,0.0,0.0,0.0,0.0,0.0,0.0,0.0,0.0,0.0,0.0,0.0,0.0,0.0,0.0,0.0,0.0,0.0,0.0,0.0,0.0,0.0,0.0,0.0,0.0,0.0,0.0,0.0,0.0,0.0,0.0,0.0,0.0,0.0,0.0,0.0,0.0,0.0,0.0,0.0,0.0,2.8848,2.957,2.9687,3.0117,3.0879,3.0898,3.0469,2.9665,2.957,2.9235,0.0,0.0,0.0,0.0,0.0,0.0,0.0,0.0,0.0,0.0,0.0,0.0,0.0,0.0,0.0,0.0,0.0,0.0,0.0,0.0,0.0,0.0,0.0,0.0,0.0,0.0,0.0,0.0,2.9371,2.9955,3.0629,0.0,0.0,0.0,0.0,0.0,0.0,0.0,0.0,0.0,0.0,3.4106,3.4361,3.5072,3.5723,3.6165,3.6462,3.6613,3.6624,3.6627,3.6459,3.593,0.0,0.0,0.0,0.0,0.0,0.0,0.0,0.0,0.0,0.0,0.0,0.0,0.0,0.0,0.0,0.0,0.0,0.0,0.0,0.0,0.0,0.0,0.0,0.0,0.0,0.0,0.0,0.0,0.0,0.0,2.3026,0.0,0.0,0.0,0.0,0.0,0.0,0.0,0.0,0.0,0.0,0.0,0.0,0.0,0.0,0.0,0.0,0.0,0.0,0.0,0.0,0.0,0.0,2.9121,2.957,2.9961,3.041,3.0879,3.0898,3.0469,2.9685,2.957,2.916,2.832,0.0,0.0,0.0,0.0,0.0,0.0,0.0,0.0,0.0,0.0,0.0,0.0,0.0,0.0,0.0,0.0,0.0,0.0,0.0,0.0,0.0,0.0,0.0,0.0,0.0,0.0,2.9585,3.0559,3.1124,0.0,0.0,0.0,0.0,0.0,0.0,0.0,0.0,0.0,0.0,3.3554,3.4129,3.4384,3.5554,3.6473,3.6763,3.7455,3.7757,3.7252,3.718,3.6988,0.0,0.0,0.0,0.0,0.0,0.0,0.0,0.0,0.0,0.0,0.0,0.0,0.0,0.0,0.0,0.0,0.0,0.0,0.0,0.0,0.0,0.0,0.0,0.0,0.0,0.0,0.0,2.2586,2.287,0.0,0.0,0.0,0.0,0.0,0.0,0.0,0.0,0.0,0.0,0.0,2.4962,2.5348,0.0,0.0,0.0,0.0,0.0,0.0,0.0,0.0,0.0,0.0,0.0,0.0,2.9277,2.9961,3.0117,3.043,3.0879,3.0898,3.0605,3.0,2.9707,2.927,2.8607,0.0,0.0,0.0,0.0,0.0,0.0,0.0,0.0,0.0,0.0,0.0,0.0,0.0,0.0,0.0,0.0,0.0,0.0,0.0,0.0,0.0,0.0,0.0,0.0,0.0,3.0043,0.0,0.0,0.0,0.0,0.0,0.0,0.0,0.0,0.0,0.0,0.0,3.347,3.3599,3.4613,3.5457,3.5718,3.6567,3.7334,0.0,0.0,0.0,0.0,0.0,0.0,0.0,0.0,0.0,0.0,0.0,0.0,0.0,0.0,3.6161,3.526,3.5211,3.5332,3.5332,0.0,0.0,0.0,0.0,0.0,0.0,0.0,0.0,0.0,0.0,0.0,0.0,0.0,0.0,2.3718,0.0,2.4001,0.0,0.0,0.0,0.0,0.0,0.0,0.0,0.0,2.5245,2.5527,2.5807,2.6142,2.6294,0.0,2.6444,2.6427,0.0,0.0,0.0,0.0,0.0,0.0,0.0,0.0,2.9648,3.0176,3.0351,3.0586,3.0879,3.0898,3.0664,3.0195,2.9648,2.9133,2.8694,2.8674,2.8834,0.0,0.0,0.0,0.0,0.0,0.0,0.0,0.0,0.0,0.0,0.0,0.0,0.0,0.0,0.0,0.0,0.0,0.0,0.0,0.0,0.0,0.0,0.0,3.0806,0.0,0.0,0.0,0.0,0.0,0.0,0.0,0.0,0.0,3.2893,3.339,3.3868,3.4205,3.5277,3.6074,3.6338,0.0,0.0,0.0,0.0,0.0,0.0,0.0,3.7853,3.7517,3.7469,3.7401,3.7115,3.7324,3.7404,3.7285,0.0,0.0,3.6137,3.6088,3.6186,3.6161,3.6259,3.6356,3.6526,3.6623,3.6768,0.0,0.0,0.0,0.0,0.0,0.0,0.0,0.0,2.4348,2.4841,0.0,2.5456,0.0,0.0,0.0,0.0,0.0,2.5344,0.0,0.0,2.6313,2.6601,2.6907,2.7176,2.711,2.6787,2.7066,2.7013,2.6664,2.6936,0.0,0.0,0.0,0.0,0.0,0.0,3.0215,3.0234,3.0644,3.0898,3.0898,3.0898,3.0664,3.0176,2.9375,2.8859,2.8714,2.8727,2.8834,2.9132,2.9132,0.0,0.0,0.0,0.0,0.0,0.0,0.0,0.0,0.0,0.0,0.0,0.0,0.0,0.0,0.0,0.0,0.0,0.0,0.0,0.0,3.0909,0.0,0.0,0.0,0.0,0.0,0.0,0.0,0.0,0.0,0.0,3.3549,3.3874,3.4234,3.4762,0.0,0.0,0.0,0.0,3.7702,3.7998,3.7974,3.7974,3.7974,3.7974,3.7974,3.7974,0.0,0.0,3.8344,3.8607,3.8669,3.8228,3.831,3.8213,3.7517,3.7294,3.7269,3.7319,3.7444,3.7593,3.7618,3.7692,3.7914,2.4406,0.0,0.0,0.0,0.0,2.461,2.5042,2.5042,2.5472,2.5717,2.5839,2.5884,0.0,0.0,0.0,0.0,0.0,0.0,2.6215,2.6331,2.6792,2.7097,2.7211,2.7498,2.7596,2.7468,2.76,2.7601,2.7491,2.7977,2.8105,2.795,0.0,0.0,0.0,0.0,3.0351,3.0684,3.082,3.0898,3.0898,3.0898,3.0527,2.9766,2.9512,2.9262,2.9013,2.8973,2.9185,2.9732,2.9732,0.0,0.0,0.0,0.0,0.0,0.0,0.0,0.0,0.0,0.0,0.0,0.0,0.0,0.0,0.0,0.0,0.0,0.0,0.0,3.0909,3.127,3.1476,0.0,0.0,0.0,0.0,0.0,0.0,0.0,0.0,0.0,3.4308,3.4526,3.4762,0.0,0.0,3.6801,3.6878,3.7477,3.7945,3.7998,3.7974,0.0,3.7974,3.7974,3.7974,3.7974,3.8157,3.8368,3.8631,3.8945,3.9104,3.8956,3.9137,3.9268,3.9016,3.8341,3.7867,3.7817,3.7866,3.7916,3.7916,3.7965,3.8015,2.6296,2.5442,2.5436,2.5329,2.5203,2.5907,2.6137,2.599,2.636,2.6522,2.651,2.6614,2.6736,2.6857,2.6857,0.0,0.0,0.0,2.7076,2.7252,2.762,2.7853,2.797,2.8184,2.8226,2.8079,2.8022,2.7987,2.7822,2.8539,2.8842,2.8614,0.0,0.0,3.0195,3.0391,3.0605,3.0879,3.0898,3.0898,3.0898,3.0898,3.0547,2.9844,2.9668,2.9514,2.938,2.9232,2.9396,2.9994,2.9994,2.9994,0.0,0.0,0.0,0.0,0.0,0.0,0.0,0.0,0.0,0.0,0.0,3.0275,3.0472,0.0,0.0,0.0,3.0704,3.0858,3.1322,3.1527,0.0,0.0,0.0,0.0,0.0,0.0,0.0,3.2841,3.2992,3.3531,3.4618,3.4808,3.506,3.5726,3.6556,3.712,3.712,0.0,3.7974,3.7974,3.7974,3.7974,3.7974,3.7974,3.8027,3.8133,3.8396,3.8684,3.8945,3.9258,3.9465,3.949,3.9594,3.9697,3.9697,3.912,3.8668,3.8693,3.8668,3.8668,3.8668,3.8668,3.8668,2.8105,2.8312,2.7327,2.6872,2.6791,2.7189,2.7118,2.6786,2.708,2.7187,2.7228,2.7418,2.7702,2.802,2.802,0.0,2.802,2.802,2.8199,2.8517,2.8517,2.8696,2.8975,2.8975,2.8792,2.8443,2.8443,2.8242,2.795,2.8858,2.9335,2.9392,2.9968,3.0254,3.0273,3.0684,3.0898,3.0898,3.0898,3.0898,3.0898,3.0898,3.0664,3.0215,2.9824,2.9672,2.9762,2.9413,2.9436,2.9942,2.9994,2.9994,2.9994,0.0,0.0,0.0,0.0,0.0,0.0,0.0,0.0,0.0,0.0,0.0,0.0,0.0,0.0,0.0,3.1251,0.0,3.1644,3.1651,0.0,0.0,0.0,3.219,3.2493,3.2718,3.2891,3.2942,0.0,0.0,3.467,3.4808,3.5152,3.6194,3.6742,3.712,3.712,3.7655,3.7974,3.7974,3.7974,3.7974,3.7974,3.7974,3.808,3.8421,3.8631,3.8893,3.9258,3.9542,3.9697,3.9697,3.9697,3.9697,3.9697,3.9647,3.9697,3.9647,3.9647,3.9672,3.9622,3.9597,3.9597,2.9293,2.9144,2.9092,2.8454,2.7554,2.8123,2.8306,2.8202,2.8218,2.8228,2.8245,2.7963,2.796,2.802,2.802,2.802,2.802,2.8277,2.8397,2.8517,2.8755,2.8916,2.8975,2.8975,2.8938,2.8847,2.8847,2.8792,2.8759,2.9421,2.977,2.977,3.0432,3.0723,3.0723,3.084,3.0898,3.0898,3.0898,3.0898,3.0898,3.0898,3.0684,3.0215,3.0098,2.9967,2.9782,2.9695,2.9761,2.9962,2.9994,2.9994,2.9994,3.0325,0.0,0.0,0.0,0.0,0.0,0.0,0.0,0.0,0.0,3.21,3.21,0.0,3.2551,0.0,3.2218,3.2145,3.2197,3.2002,0.0,0.0,3.224,3.2493,3.2768,3.2891,3.2992,3.3192,3.3292,3.366,3.467,3.4808,3.5258,3.6441,3.685,3.7197,3.7411,3.7785,3.7974,3.7974,3.7974,3.7974,3.7974,3.7974,3.8157,3.8631,3.8736,3.8998,3.9542,3.9645,3.9697,3.9697,3.9697,3.9697,3.9697,3.9697,3.9697,3.9697,3.9697,3.9697,3.9697,3.9697,3.9697,3.0087,3.0089,3.0102,2.9653,2.8922,2.9136,2.9217,2.9168,2.9145,2.9137,2.9064,2.881,2.8601,2.8457,2.8439,2.8439,2.8439,2.8636,2.8755,2.8755,2.8916,2.8975,2.8975,2.8975,2.8975,2.8975,2.8975,2.8975,2.9053,2.9627,2.9922,2.9922,3.0587,3.0898,3.0898,3.0898,3.0898,3.0898,3.0898,3.0898,3.0898,3.0898,3.0762,3.0508,3.0293,3.0207,3.0178,3.0143,3.0194,3.0381,3.0541,3.0615,3.0615,3.0843,3.1091,0.0,0.0,0.0,0.0,0.0,0.0,0.0,0.0,0.0,0.0,0.0,3.3372,3.3226,3.3015,3.2801,3.2603,3.2524,3.2485,3.2415,3.2566,3.2768,3.3042,3.3092,3.3211,3.3568,3.3591,3.3981,3.4969,3.5106,3.5511,3.6541,3.6928,3.7197,3.7542,3.7838,3.7974,3.7974,3.7974,3.7974,3.7974,3.7974,3.8133,3.8526,3.8736,3.8945,3.9413,3.9645,3.9697,3.9697,3.9697,3.9697,3.9697,3.9697,3.9697,3.9697,3.9697,3.9697,3.9697,3.9697,3.9697,3.0767,3.1012,3.0715,3.0568,3.0513,3.0162,3.0007,2.9956,2.9921,2.9861,2.9777,2.9623,2.9379,2.9067,2.8993,2.8975,2.8975,2.8975,2.8975,2.8975,2.8975,2.8975,2.8975,2.8975,2.8975,2.8975,2.8975,2.8975,2.9035,2.9568,2.9863,2.9922,3.0528,3.082,3.0898,3.0898,3.0898,3.0898,3.0898,3.0898,3.0898,3.0898,3.0898,3.0879,3.0488,3.0388,3.0613,3.0594,3.0686,3.0901,3.1251,3.1381,3.1381,3.1422,3.1629,0.0,3.2029,0.0,0.0,0.0,0.0,0.0,0.0,0.0,0.0,3.3974,3.4081,3.3978,3.3766,3.3409,3.3063,3.3213,3.327,3.3118,3.3123,3.3224,3.3476,3.3476,3.3637,3.4073,3.4096,3.4463,3.5359,3.552,3.581,3.6541,3.6928,3.7197,3.7542,3.7838,3.7974,3.7974,3.7974,3.7974,3.7974,3.7974,3.808,3.8368,3.8631,3.8893,3.9258,3.9517,3.9697,3.9697,3.9697,3.9697,3.9697,3.9697,3.9697,3.9697,3.9697,3.9697,3.9697,3.9697,3.9697,3.1425,3.1496,3.1408,3.1328,3.1294,3.1205,3.1001,3.0671,3.062,3.0445,3.0105,2.9764,2.9525,2.9434,2.9122,2.8975,2.8975,2.8975,2.8975,2.8975,2.8975,2.8975,2.8975,2.8975,2.8975,2.8975,2.8975,2.8975,2.8975,2.939,2.9686,2.9922,3.0274,3.0645,3.0879,0.0,0.0,0.0,3.0898,3.0898,3.0898,3.0898,3.0898,3.0898,3.082,0.0,3.0633,3.0874,3.0934,3.0921,3.1251,0.0,0.0,0.0,0.0,0.0,0.0,0.0,0.0,0.0,0.0,0.0,3.3805,3.3995,3.403,3.4255,3.4547,3.4736,3.4306,3.4159,3.4285,3.4245,3.4162,3.4123,3.4279,3.4458,3.4509,3.4509,3.4555,3.4647,3.4647,3.4877,3.5428,3.552,3.581,3.6565,3.6928,3.7251,3.7542,3.7838,3.7974,3.7974,3.7974,3.7974,3.7974,3.7974,3.808,3.8368,3.8631,3.8893,3.9206,3.9542,3.9697,3.9697,3.9697,3.9697,3.9697,3.9697,3.9697,3.9697,3.9697,3.9697,3.9697,3.9697,3.9697,3.1861,0.0,3.2049,3.1965,0.0,3.1763,3.152,3.112,3.1093,3.0864,3.0479,3.0277,3.0057,2.9874,2.9672,2.958,2.958,2.958,2.958,2.958,2.936,2.9269,2.9269,2.9067,2.8975,2.8975,2.8975,2.8975,2.9035,2.9331,2.9568,2.9745,3.0157,3.0509,3.0645,3.082,3.0898,3.0898,3.0898,3.0898,3.0898,3.0898,3.0898,3.0898,3.0898,0.0,0.0,0.0,0.0,0.0,0.0,0.0,0.0,3.225,0.0,3.2395,3.2545,3.2784,3.2955,3.3239,3.3523,3.3805,3.4142,3.4367,3.4534,3.4646,3.4869,3.5146,3.5067,3.4984,3.4899,3.4918,3.4827,3.4651,3.468,3.4808,3.4808,3.4808,3.49,3.5106,3.5152,3.5336,3.5818,3.5887,3.6033,3.6449,3.685,3.7197,3.7358,3.7732,3.7974,3.7974,3.7974,3.7974,3.7974,3.7974,3.8027,3.821,3.8421,3.8684,3.8998,3.931,3.9517,3.9697,3.9697,3.9697,3.9697,3.9697,3.9697,3.9697,3.9697,3.9697,3.9697,3.9697,3.9697,3.2175,3.2298,3.2606,3.2521,3.2209,3.2144,3.1836,3.1377,0.0,0.0,0.0,3.0827,3.0607,3.0314,3.0222,3.0204,3.0204,3.0204,3.0204,3.0185,2.9764,2.958,2.9562,2.9159,2.8975,2.8975,2.8975,2.8975,2.8975,2.9272,2.945,2.9568,3.0039,3.0392,3.0509,3.0762,3.0898,3.0898,3.0898,3.0898,3.0898,3.0898,3.0898,3.0898,3.0898,3.0898,3.0898,3.117,3.1441,3.173,3.2076,3.242,3.2612,3.2669,3.2669,3.2669,3.2669,3.2841,3.3203,3.3466,3.3749,3.4142,3.4367,3.4646,3.498,3.5002,3.5146,3.5478,3.5698,3.5681,3.5327,3.5497,3.5497,3.5106,3.506,3.506,3.5083,3.506,3.5267,3.5566,3.5657,3.5795,3.6185,3.6231,3.6254,3.6386,3.6688,3.7089,3.7251,3.7679,3.7974,3.7974,3.7974,3.7974,3.7974,3.7974,3.7974,3.8027,3.8262,3.8473,3.8736,3.905,3.9362,3.9594,3.9645,3.9697,3.9697,3.9697,3.9697,3.9697,3.9697,3.9697,3.9697,3.9697,3.9697,3.2474,3.3121,3.3206,3.3161,3.3033,3.2698,3.2074,3.1396,3.1377,3.1341,3.1267,3.0937,3.0754,3.0681,3.0351,3.0204,3.0204,3.0204,3.0204,3.0185,2.9764,2.958,2.9604,2.9177,2.8975,2.8975,2.8993,2.8975,2.8975,2.9035,2.9213,2.9509,2.9804,3.0294,3.0762,3.0898,3.0898,3.0898,3.0898,3.0898,3.0898,3.0898,3.0898,3.0898,3.0898,3.0898,3.0898,3.117,3.1325,3.1383,3.196,3.2305,3.2363,3.2612,3.2669,3.2669,3.2669,3.2841,3.3203,3.3466,3.3861,3.4345,3.4479,3.4646,3.498,3.5002,3.5202,3.5698,3.5808,3.5927,3.6054,3.614,3.6094,3.6102,3.6102,3.6071,3.6002,3.6002,3.6025,3.6117,3.6217,3.6162,3.6231,3.6254,3.6254,3.6309,3.6603,3.6928,3.7435,3.7785,3.7974,3.7974,3.7974,3.7974,3.7974,3.7974,3.7974,3.7974,3.8185,3.8421,3.8473,3.8893,3.9258,3.9387,3.9542,3.9645,3.9697,3.9697,3.9697,3.9697,3.9697,3.9697,3.9697,3.9697,3.9697,3.2771,3.3348,3.3469,3.3459,3.3175,3.2551,3.1928,3.1396,3.1377,3.1377,3.1359,3.1176,3.1121,3.1102,3.0919,3.0846,3.0846,3.0846,3.0846,3.0809,3.0424,3.0222,3.0204,2.9837,2.9525,2.9305,2.9305,2.9195,2.8993,2.8975,2.9094,2.9272,2.9686,3.0272,3.0896,3.0937,3.0996,3.123,3.1016,3.0898,3.0898,3.0898,3.0898,3.0898,3.0898,3.0898,3.0898,3.0995,3.117,3.1267,3.173,3.2133,3.2305,3.2555,3.2669,3.2669,3.2669,3.2841,3.3203,3.3636,3.4086,3.4479,3.4479,3.4646,3.498,3.5146,3.5478,3.6004,3.6059,3.6114,3.6277,3.6254,3.6254,3.6254,3.6254,3.6254,3.6254,3.6254,3.6254,3.6254,3.6254,3.6254,3.6254,3.6254,3.6254,3.6332,3.6634,3.7089,3.7542,3.7838,3.7974,3.7974,3.7974,3.7974,3.7974,3.7974,3.7974,3.7974,3.808,3.8238,3.8368,3.8684,3.8893,3.9206,3.9413,3.9542,3.9645,3.9697,3.9697,3.9697,3.9697,3.9697,3.9697,3.9697,3.9697,3.2999,3.34,3.3678,3.3523,3.3028,3.2404,3.1854,3.1396,3.1377,3.1377,3.1377,3.1377,3.1377,3.1377,3.1377,3.1377,3.1377,3.1377,3.1377,3.1341,3.0974,3.0791,3.0736,3.0387,3.002,2.9745,2.9709,2.9544,2.9287,2.9269,2.931,2.943,2.9968,3.0477,3.1123,3.115,3.1328,3.1621,3.125,3.0996,3.0898,3.0898,3.0898,3.0898,3.0898,3.0898,3.0898,3.0898,3.0995,3.1208,3.1498,3.1845,3.219,3.2498,3.2612,3.2669,3.2669,3.2841,3.3182,3.3749,3.4199,3.4423,3.4479,3.4646,3.498,3.5202,3.5533,3.6059,3.6223,3.6277,3.6254,3.6254,3.6254,3.6254,3.6254,3.6254,3.6254,3.6254,3.6254,3.6254,3.6254,3.6254,3.6254,3.6254,3.6254,3.6386,3.6712,3.7143,3.7435,3.7732,3.7945,3.7974,3.7974,3.7974,3.7974,3.7974,3.7974,3.7974,3.8027,3.808,3.8262,3.8368,3.8526,3.8998,3.9206,3.9362,3.9594,3.9697,3.9697,3.9697,3.9697,3.9697,3.9697,3.9697,3.9697,3.3121,3.3747,3.3817,3.3358,3.268,3.2551,3.2093,3.1414,3.1377,3.1377,3.1377,3.1377,3.1377,3.1377,3.1377,3.1377,3.1377,3.1377,3.1377,3.1341,3.0974,3.0791,3.0772,3.0406,3.0185,3.0149,3.0149,3.0094,3.002,3.0039,3.0199,3.0568,3.0936,3.1161,3.1523,3.1869,3.2051,3.2109,3.168,3.1289,3.0918,3.0898,3.0898,3.0898,3.0898,3.0898,3.0898,3.0898,3.0898,3.0937,3.1208,3.1498,3.1845,3.2133,3.242,3.2669,3.2669,3.2841,3.3182,3.377,3.4086,3.4142,3.4367,3.4646,3.4924,3.5035,3.5257,3.573,3.6114,3.6277,3.6254,3.6254,3.6254,3.6254,3.6254,3.6254,3.6254,3.6254,3.6254,3.6254,3.6254,3.6254,3.6254,3.6254,3.6254,3.6332,3.6603,3.685,3.7143,3.7489,3.7785,3.7921,3.7974,3.7974,3.7974,3.7974,3.7974,3.7974,3.7974,3.8027,3.808,3.8238,3.8473,3.8631,3.8945,3.9206,3.9362,3.9542,3.9697,3.9697,3.9697,3.9697,3.9697,3.9697,3.9697,3.2981,3.3539,3.3747,3.334,3.2643,3.2606,3.2129,3.1396,3.1377,3.1377,3.1377,3.1377,3.1377,3.1377,3.1377,3.1377,3.1377,3.1377,3.1377,3.1359,3.1212,3.1139,3.1121,3.0974,3.0791,3.0571,3.0552,3.0424,3.0241,3.0204,3.0266,3.0433,3.0926,3.1347,3.1722,3.2041,3.2285,3.2519,3.2109,3.1816,3.1621,3.1152,3.0898,3.0898,3.0898,3.0898,3.0898,3.0898,3.0898,3.0898,3.115,3.1441,3.1787,3.2133,3.244,3.2669,3.2669,3.2841,3.3182,3.3409,3.3713,3.403,3.4199,3.4423,3.4702,3.4869,3.5146,3.5533,3.5863,3.6059,3.6277,3.6254,3.6254,3.6254,3.6254,3.6254,3.6254,3.6254,3.6254,3.6254,3.6254,3.6254,3.6254,3.6254,3.6254,3.6332,3.6549,3.682,3.7089,3.7382,3.7679,3.7921,3.7974,3.7974,3.7974,3.7974,3.7974,3.7974,3.7974,3.7974,3.8027,3.808,3.8185,3.8368,3.8631,3.8945,3.9258,3.9362,3.9465,3.9594,3.9697,3.9697,3.9697,3.9697,3.9697,3.2929,3.333,3.3678,3.3413,3.2771,3.2643,3.2203,3.1579,3.1433,3.1377,3.1377,3.1377,3.1377,3.1377,3.1377,3.1377,3.1377,3.1377,3.1377,3.1377,3.1377,3.1377,3.1377,3.1377,3.1231,3.0992,3.0956,3.0809,3.0552,3.0534,3.0516,3.0641,3.114,3.1583,3.1954,3.2266,3.2594,3.291,3.2559,3.2344,3.2246,3.1621,3.1191,3.1074,3.1074,3.1016,3.0898,3.0898,3.0898,3.0898,3.1112,3.1325,3.1614,3.196,3.2326,3.2669,3.2669,3.2784,3.3012,3.3251,3.36,3.4111,3.4331,3.4588,3.4871,3.5153,3.5378,3.5681,3.5915,3.6226,3.6223,3.6254,3.6254,3.6254,3.6254,3.6254,3.6254,3.6254,3.6254,3.6254,3.6254,3.6254,3.6254,3.6254,3.6254,3.6309,3.6495,3.6712,3.7005,3.7369,3.781,3.8054,3.8281,3.831,3.807,3.7974,3.7974,3.7974,3.7974,3.7974,3.7974,3.7974,3.8027,3.821,3.8315,3.8579,3.8998,3.9154,3.9413,3.9594,3.9697,3.9697,3.9697,3.9697,3.9697,3.2929,3.3348,3.3678,3.356,3.3156,3.2771,3.2368,3.1909,3.1561,3.1396,3.1377,3.1377,3.1377,3.1377,3.1377,3.1377,3.1377,3.1377,3.1377,3.1377,3.1377,3.1377,3.1377,3.1377,3.1359,3.1304,3.1286,3.1286,3.1332,3.1286,3.1322,3.1368,3.1652,3.2027,3.2346,3.2625,3.3044,3.3238,3.2969,3.2773,3.2715,3.2324,3.1914,3.1562,3.1484,3.1328,3.0996,3.0918,3.0918,3.0918,3.1015,3.1093,3.1344,3.1712,3.2194,3.2674,3.2711,3.2768,3.2887,3.3393,3.3891,3.4316,3.4904,3.5496,3.57,3.5815,3.5989,3.6307,3.6528,3.6613,3.6443,3.6461,3.6415,3.6369,3.6378,3.63,3.6355,3.6355,3.6277,3.6254,3.6254,3.63,3.63,3.6254,3.6346,3.6369,3.6401,3.6533,3.6921,3.745,3.8013,3.8404,3.8892,3.9176,3.8262,3.8238,3.8166,3.8166,3.8286,3.8046,3.7998,3.7974,3.8051,3.8051,3.821,3.8473,3.8788,3.905,3.9362,3.9594,3.9697,3.9697,3.9697,3.9697,3.9697,3.2701,3.3348,3.3678,3.3596,3.323,3.3065,3.2625,3.2019,3.1854,3.1616,3.1396,3.1377,3.1377,3.1377,3.1377,3.1377,3.1377,3.1377,3.1377,3.1377,3.1377,3.1377,3.1377,3.1377,3.1377,3.1377,3.1377,3.1377,3.1377,3.1377,3.1377,3.1442,3.1717,3.2038,3.2422,3.274,3.3038,3.3335,3.3262,3.3203,3.3184,3.3047,3.2773,3.2344,3.207,3.1855,3.1699,3.1719,3.1719,3.1699,3.1699,3.1879,3.2157,3.2632,3.3046,3.3282,3.3458,3.3575,3.3596,3.3838,3.4118,3.4412,3.4891,3.5334,3.5663,3.5918,3.6129,3.6382,3.6498,3.6598,3.6929,3.713,3.7242,3.7196,3.6943,3.6759,3.6691,3.6484,3.6254,3.6254,3.6277,3.6392,3.6691,3.6759,3.6897,3.7173,3.7242,3.7363,3.7632,3.8073,3.85,3.8824,3.922,3.9489,3.9176,3.9032,3.9008,3.8912,3.8864,3.8647,3.8527,3.8214,3.8166,3.819,3.8302,3.8364,3.8627,3.8998,3.9258,3.9594,3.9645,3.9671,3.9697,3.9798,3.9772,3.2544,3.326,3.3539,3.3532,3.3413,3.3285,3.2918,3.2386,3.2111,3.1854,3.1598,3.1451,3.1377,3.1377,3.1377,3.1377,3.1377,3.1377,3.1377,3.1377,3.1377,3.1377,3.1377,3.1377,3.1377,3.1377,3.1377,3.1377,3.1377,3.1377,3.1377,3.1442,3.1653,3.1974,3.2358,3.2676,3.2912,3.3292,3.3418,3.3418,3.3418,3.3418,3.3281,3.3008,3.2715,3.2483,3.2187,3.2229,3.2229,3.2229,3.2229,3.235,3.2633,3.3055,3.3355,3.3595,3.3834,3.4013,3.4093,3.4256,3.4458,3.4697,3.5202,3.5584,3.5941,3.6236,3.6531,3.6707,3.6824,3.7139,3.7524,3.7929,3.8022,3.7862,3.7494,3.7288,3.7265,3.6989,3.6861,3.6805,3.6828,3.6966,3.7196,3.7265,3.7425,3.7747,3.7793,3.7906,3.8076,3.8498,3.893,3.9235,3.9673,4.0018,4.0034,4.009,3.9681,3.9513,3.9345,3.9152,3.8984,3.8647,3.8455,3.8431,3.8388,3.835,3.8518,3.8865,3.9179,3.954,3.9567,3.9592,3.9744,3.9998,4.0099,3.2544,3.3209,3.3278,3.3539,3.3707,3.3413,3.323,3.3028,3.2386,3.2074,3.1909,3.1579,3.1433,3.1377,3.1377,3.1377,3.1377,3.1377,3.1377,3.1377,3.1377,3.1377,3.1377,3.1377,3.1377,3.1377,3.1377,3.1377,3.1377,3.1377,3.1377,3.1377,3.1442,3.1763,3.2422,3.2485,3.274,3.3228,3.3418,3.3418,3.3418,3.3418,3.3398,3.3379,3.334,3.2988,3.2266,3.2246,3.2285,3.2266,3.2246,3.237,3.2631,3.2793,3.2995,3.3517,3.3656,3.3815,3.4116,3.4548,3.4876,3.52,3.5861,3.6335,3.6596,3.7002,3.7243,3.7341,3.7544,3.791,3.8186,3.8521,3.8475,3.7965,3.7862,3.7816,3.7793,3.777,3.777,3.7678,3.7632,3.7747,3.7793,3.7793,3.7862,3.7953,3.7999,3.7999,3.8182,3.8688,3.9161,3.9565,4.005,4.0478,4.0865,4.11,4.0475,3.997,3.9777,3.9609,3.9561,3.932,3.9152,3.9104,3.8912,3.8876,3.8873,3.9251,3.9312,3.9575,3.9556,3.9735,4.009,4.0445,4.0674,3.2403,3.2911,3.3209,3.3469,3.3798,3.367,3.3486,3.323,3.2918,3.2533,3.2056,3.1873,3.1653,3.1433,3.1377,3.1377,3.1377,3.1377,3.1377,3.1377,3.1377,3.1377,3.1377,3.1377,3.1377,3.1377,3.1377,3.1377,3.1377,3.1377,3.1377,3.1377,3.1377,3.1763,3.2358,3.2422,3.274,3.3292,3.3418,3.3418,3.3418,3.3418,3.3418,3.3418,3.3418,3.3281,3.3066,3.3027,3.3027,3.3008,3.3027,3.309,3.3152,3.3401,3.3587,3.3835,3.4247,3.4513,3.4636,3.4984,3.519,3.5416,3.5786,3.6156,3.6545,3.685,3.7154,3.7314,3.7495,3.7698,3.7998,3.8298,3.8557,3.879,3.855,3.8344,3.8298,3.8045,3.7816,3.7793,3.7793,3.793,3.8229,3.8321,3.8436,3.8711,3.878,3.878,3.8884,3.9105,3.964,3.9977,4.0455,4.0792,4.1,4.1139,4.0884,4.0499,4.0306,4.0162,4.009,3.9994,3.985,3.9657,3.9465,3.9382,3.9407,3.9447,3.9589,3.9878,4.0112,4.0397,4.0707,4.0939,4.1118,3.2123,3.2491,3.2911,3.3278,3.3608,3.3747,3.367,3.3431,3.3285,3.2936,3.2496,3.2294,3.2093,3.1873,3.1818,3.1836,3.1818,3.1689,3.1616,3.1579,3.1414,3.1377,3.1377,3.1377,3.1377,3.1377,3.1377,3.1377,3.1377,3.1377,3.1377,3.1377,3.1377,3.1763,3.2358,3.2422,3.2721,3.3292,3.3418,3.3418,3.3418,3.3418,3.3418,3.3418,3.3418,3.3418,3.3418,3.3418,3.3418,3.3418,3.3418,3.3418,3.3418,3.3587,3.3796,3.3985,3.436,3.4715,3.4922,3.5211,3.5418,3.5479,3.5726,3.6055,3.6361,3.6728,3.7032,3.7314,3.7374,3.7577,3.7878,3.8201,3.8596,3.9049,3.8974,3.8872,3.8803,3.8573,3.839,3.8413,3.839,3.8527,3.8734,3.8872,3.8964,3.9262,3.9308,3.9308,3.9367,3.9462,3.972,3.9989,4.0305,4.0595,4.0884,4.1057,4.1196,4.1004,4.0836,4.0739,4.0667,4.0547,4.0403,4.0114,3.9898,3.9681,3.9709,3.9661,3.9698,4.0166,4.0562,4.0701,4.0889,4.128,4.1538,3.1771,3.2105,3.2491,3.2911,3.333,3.3608,3.3729,3.3743,3.345,3.323,3.3083,3.2771,3.2588,3.257,3.2459,3.2459,3.2514,3.2203,3.2038,3.1946,3.1726,3.1524,3.1396,3.1377,3.1377,3.1377,3.1377,3.1377,3.1377,3.1377,3.1377,3.1377,3.1442,3.1699,3.2294,3.2422,3.274,3.3292,3.3418,3.3418,3.3418,3.3418,3.3418,3.3418,3.3418,3.3418,3.3418,3.3418,3.3418,3.3418,3.3418,3.3418,3.3418,3.3418,3.3544,3.3859,3.4173,3.4485,3.4797,3.5108,3.5356,3.5418,3.5665,3.5993,3.63,3.6606,3.6911,3.7275,3.7374,3.7495,3.7818,3.8141,3.8477,3.8752,3.9062,3.9216,3.9285,3.9239,3.9124,3.917,3.9285,3.9285,3.9216,3.9239,3.9262,3.9285,3.9308,3.9308,3.9308,3.9426,3.9485,3.9779,4.013,4.0421,4.0769,4.1081,4.1196,4.1148,4.1052,4.1028,4.1028,4.0932,4.086,4.0595,4.0355,4.0114,4.0098,4.0098,4.0161,4.0377,4.0623,4.0795,4.1114,4.1502,4.1878,3.1771,3.2105,3.2175,3.2614,3.326,3.34,3.3608,3.3798,3.3707,3.3486,3.3266,3.312,3.29,3.2625,3.2625,3.2606,3.2606,3.2496,3.2441,3.2423,3.2349,3.1909,3.1488,3.1377,3.1377,3.1377,3.1377,3.1377,3.1377,3.1377,3.1377,3.1377,3.1442,3.1763,3.2294,3.2422,3.2721,3.3292,3.3418,3.3418,3.3418,3.3418,3.3418,3.3418,3.3418,3.3418,3.3418,3.3418,3.3418,3.3418,3.3418,3.3418,3.3418,3.3418,3.3481,3.3607,3.3859,3.4173,3.4548,3.4859,3.5108,3.5356,3.5479,3.5665,3.5993,3.6361,3.6667,3.6972,3.7275,3.7435,3.7555,3.7878,3.8238,3.8752,3.9108,3.9308,3.9308,3.9308,3.9308,3.9308,3.9308,3.9308,3.9308,3.9308,3.9308,3.9308,3.9308,3.9308,3.9308,3.9308,3.9426,3.972,4.0071,4.0363,4.0653,4.1,4.1196,4.1196,4.1148,4.1148,4.1124,4.11,4.1076,4.098,4.0836,4.0619,4.0763,4.0893,4.0853,4.0692,4.0959,4.1208,4.1499,4.1815,4.2128,3.17,3.1912,3.2035,3.2474,3.3051,3.3209,3.3469,3.3747,3.3817,3.3688,3.3505,3.3468,3.334,3.312,3.312,3.312,3.3083,3.2936,3.2863,3.2826,3.2661,3.2221,3.1726,3.1506,3.1377,3.1377,3.1377,3.1377,3.1377,3.1377,3.1377,3.1377,3.1377,3.1763,3.2358,3.2422,3.274,3.3292,3.3418,3.3418,3.3418,3.3418,3.3418,3.3418,3.3418,3.3418,3.3418,3.3418,3.3418,3.3418,3.3418,3.3418,3.3418,3.3418,3.3418,3.3418,3.3733,3.4047,3.436,3.4735,3.5046,3.5294,3.5418,3.5541,3.587,3.6178,3.6545,3.6911,3.7214,3.7374,3.7495,3.7818,3.8298,3.8752,3.9108,3.9308,3.9308,3.9308,3.9308,3.9308,3.9308,3.9308,3.9308,3.9308,3.9308,3.9308,3.9308,3.9308,3.9308,3.9308,3.9367,3.9603,3.9896,4.013,4.0421,4.0769,4.1139,4.1139,4.1196,4.1196,4.1196,4.1196,4.1172,4.1148,4.1172,4.1196,4.1196,4.1196,4.1133,4.1094,4.1378,4.1492,4.1663,4.1834,4.2118,3.1559,3.163,3.1912,3.2333,3.2701,3.3069,3.34,3.3747,3.3817,3.3798,3.378,3.3798,3.3725,3.3817,3.367,3.378,3.3743,3.3395,3.3303,3.3156,3.2918,3.2496,3.2203,3.1818,3.1616,3.1524,3.1451,3.1414,3.1396,3.1377,3.1377,3.1377,3.1377,3.1763,3.2294,3.2422,3.274,3.3292,3.3418,3.3418,3.3418,3.3418,3.3418,3.3418,3.3418,3.3418,3.3418,3.3418,3.3418,3.3418,3.3418,3.3418,3.3418,3.3418,3.3418,3.3418,3.367,3.3985,3.436,3.4673,3.4984,3.5294,3.5418,3.5479,3.5788,3.6178,3.6484,3.6728,3.7154,3.7374,3.7495,3.7998,3.8418,3.8693,3.9072,3.9249,3.9308,3.9308,3.9308,3.9308,3.9308,3.9308,3.9308,3.9308,3.9308,3.9308,3.9308,3.9308,3.9308,3.9308,3.9308,3.9367,3.9661,3.9919,4.0188,4.0537,4.0884,4.1139,4.1196,4.1196,4.1196,4.1196,4.1196,4.1196,4.1196,4.1196,4.1196,4.1196,4.1196,4.1196,4.1287,4.1402,4.1492,4.1606,4.1891,3.1559,3.1559,3.17,3.207,3.2631,3.2771,3.3191,3.3817,3.3817,3.3817,3.3817,3.3817,3.3817,3.3817,3.3817,3.3817,3.3817,3.3688,3.3688,3.3633,3.3266,3.3083,3.2863,3.2514,3.2166,3.1964,3.1873,3.1708,3.1506,3.1469,3.1396,3.1414,3.157,3.1782,3.235,3.2535,3.274,3.3292,3.3457,3.3496,3.3496,3.3496,3.3496,3.3457,3.3418,3.3418,3.3418,3.3418,3.3418,3.3418,3.3418,3.3418,3.3418,3.3418,3.3418,3.3418,3.3481,3.3796,3.4298,3.4485,3.4797,3.5294,3.5356,3.5418,3.5541,3.6116,3.6361,3.6606,3.7032,3.7374,3.7435,3.7998,3.838,3.8596,3.8953,3.9308,3.9308,3.9308,3.9308,3.9308,3.9308,3.9308,3.9308,3.9308,3.9308,3.9308,3.9308,3.9308,3.9308,3.9308,3.9308,3.9308,3.9485,3.9779,4.0188,4.0537,4.0884,4.1139,4.1196,4.1196,4.1196,4.1196,4.1196,4.1196,4.1196,4.1196,4.1196,4.1196,4.1196,4.1196,4.1196,4.1287,4.1344,4.1492,4.1606,3.1559,3.1559,3.1559,3.207,3.2631,3.2701,3.3121,3.3747,3.3817,3.3817,3.3817,3.3817,3.3817,3.3817,3.3817,3.3817,3.3817,3.3817,3.3817,3.3762,3.3578,3.3505,3.3486,3.3248,3.29,3.2386,3.2276,3.2129,3.2001,3.1928,3.2001,3.1946,3.1946,3.2394,3.2944,3.2971,3.3417,3.3934,3.4023,3.4023,3.4023,3.4023,3.3887,3.3691,3.3535,3.3418,3.3418,3.3418,3.3418,3.3418,3.3418,3.3418,3.3418,3.3418,3.3418,3.3418,3.3418,3.3607,3.4047,3.436,3.461,3.5108,3.5294,3.5356,3.5541,3.6055,3.6361,3.6545,3.695,3.7374,3.7435,3.7998,3.832,3.85,3.8953,3.9249,3.9308,3.9308,3.9308,3.9308,3.9308,3.9308,3.9308,3.9308,3.9308,3.9308,3.9308,3.9308,3.9308,3.9308,3.9308,3.9308,3.9426,3.972,4.0188,4.0595,4.0942,4.1115,4.1196,4.1196,4.1196,4.1196,4.1196,4.1196,4.1196,4.1196,4.1196,4.1196,4.1196,4.1196,4.1196,4.1196,4.123,4.1344,4.1516,3.1559,3.1559,3.1559,3.1999,3.2631,3.2719,3.3121,3.3747,3.3817,3.3817,3.3817,3.3817,3.3817,3.3817,3.3817,3.3817,3.3817,3.3817,3.3817,3.3798,3.378,3.3743,3.3743,3.3651,3.3431,3.2826,3.2716,3.2643,3.2551,3.2588,3.2441,3.2551,3.257,3.2792,3.3397,3.3719,3.3888,3.4374,3.4485,3.457,3.459,3.459,3.4434,3.418,3.3789,3.3594,3.3555,3.3496,3.3418,3.3418,3.3418,3.3418,3.3418,3.3418,3.3418,3.3418,3.3418,3.3607,3.3922,3.4235,3.4548,3.4859,3.5232,3.5356,3.5541,3.5993,3.6361,3.6649,3.7036,3.7549,3.7544,3.8309,3.8611,3.8792,3.9226,3.9478,3.9538,3.9538,3.9584,3.9308,3.9308,3.9308,3.9308,3.9308,3.9308,3.9331,3.9331,3.9354,3.9354,3.9331,3.9354,3.9308,3.9367,3.9661,4.0106,4.0711,4.1057,4.1115,4.1196,4.1196,4.1196,4.1196,4.1196,4.1196,4.1196,4.1196,4.1196,4.1196,4.1196,4.1196,4.1196,4.1196,4.1196,4.1196,4.1402,3.1559,3.1559,3.1559,3.1999,3.2631,3.2701,3.3121,3.3747,3.3817,3.3817,3.3817,3.3817,3.3817,3.3817,3.3817,3.3817,3.3817,3.3817,3.3817,3.3817,3.3817,3.3817,3.3817,3.3817,3.3688,3.3578,3.3303,3.2973,3.2735,3.2606,3.2735,3.2643,3.2661,3.2947,3.33,3.3539,3.3984,3.4487,3.4731,3.4844,3.4844,3.4785,3.4746,3.4551,3.418,3.3965,3.3848,3.3613,3.3418,3.3418,3.3418,3.3418,3.3418,3.3418,3.3418,3.3418,3.3418,3.3544,3.3796,3.4173,3.4548,3.4859,3.5232,3.5356,3.5541,3.5993,3.6383,3.6838,3.736,3.7986,3.7986,3.8864,3.9439,3.9668,4.003,4.0395,4.0479,4.041,4.0135,3.9652,3.9469,3.9423,3.9584,3.9652,3.9675,3.9698,3.9675,3.9675,3.9652,3.9561,3.9446,3.94,3.9308,3.9661,4.0106,4.0711,4.1115,4.1172,4.1196,4.1196,4.1196,4.1196,4.1196,4.1196,4.1196,4.1196,4.1196,4.1196,4.1196,4.1196,4.1196,4.1196,4.1196,4.1196,4.1287,3.1559,3.163,3.1771,3.2193,3.2701,3.2911,3.333,3.3747,3.3817,3.3817,3.3817,3.3817,3.3817,3.3817,3.3817,3.3817,3.3817,3.3817,3.3817,3.3817,3.3817,3.3817,3.3817,3.3817,3.3817,3.3762,3.3596,3.3431,3.3248,3.3248,3.3193,3.323,3.323,3.3434,3.3774,3.4218,3.4499,3.4835,3.5151,3.5351,3.5332,3.5195,3.5059,3.4941,3.4629,3.4316,3.4043,3.3926,3.3633,3.3476,3.3418,3.3418,3.3418,3.3418,3.3418,3.3418,3.3418,3.3481,3.3733,3.4047,3.4485,3.4673,3.5108,3.5356,3.5541,3.5993,3.6612,3.732,3.7873,3.8488,3.8488,3.929,3.973,3.9899,4.0416,4.0808,4.0846,4.0846,4.0548,4.0158,4.0226,4.0249,4.0203,4.0203,4.0135,4.0089,4.0043,4.002,3.9974,3.9928,3.9836,3.9758,3.9689,3.9929,4.0317,4.0737,4.1201,4.1235,4.1196,4.1196,4.1196,4.1196,4.1196,4.1196,4.1196,4.1196,4.1196,4.1196,4.1196,4.1196,4.1196,4.1196,4.1196,4.123,4.1287,3.1559,3.163,3.1965,3.2333,3.2701,3.3139,3.3487,3.3747,3.3817,3.3817,3.3817,3.3817,3.3817,3.3817,3.3817,3.3817,3.3817,3.3817,3.3817,3.3817,3.3817,3.3817,3.3817,3.3817,3.3817,3.3817,3.378,3.3817,3.3725,3.3707,3.378,3.3725,3.378,3.3955,3.4245,3.4496,3.5059,3.5401,3.5811,3.6035,3.5937,3.5723,3.5527,3.5488,3.5078,3.4687,3.4473,3.4141,3.3906,3.3652,3.3496,3.3418,3.3418,3.3418,3.3418,3.3418,3.3418,3.3418,3.3544,3.4047,3.4423,3.4485,3.5148,3.5438,3.577,3.6392,3.716,3.8062,3.8685,3.8969,3.9054,3.9667,4.011,4.032,4.0779,4.1145,4.1237,4.1283,4.1329,4.1145,4.1122,4.0938,4.0755,4.0594,4.0479,4.0479,4.0433,4.0479,4.0456,4.0525,4.0433,4.0324,4.0283,4.0336,4.0539,4.0799,4.115,4.1325,4.1283,4.1196,4.1196,4.1196,4.1196,4.1196,4.1196,4.1196,4.1196,4.1196,4.1196,4.1196,4.1196,4.1196,4.1196,4.1196,4.123,3.1559,3.163,3.1965,3.2333,3.2701,3.3121,3.3469,3.3817,3.3817,3.3817,3.3817,3.3817,3.3817,3.3817,3.3817,3.3817,3.3817,3.3817,3.3817,3.3817,3.3817,3.3817,3.3817,3.3817,3.3817,3.3817,3.3817,3.3817,3.3817,3.3817,3.3817,3.3817,3.3817,3.3886,3.4024,3.4508,3.4921,3.5127,3.5675,3.6035,3.6016,3.5957,3.5918,3.5801,3.5547,3.5234,3.5019,3.457,3.4141,3.3984,3.3633,3.3457,3.3418,3.3418,3.3418,3.3418,3.3418,3.3418,3.3481,3.4047,3.4483,3.4627,3.5394,3.5914,3.6352,3.7002,3.7866,3.8603,3.9187,3.9449,3.9664,4.0462,4.0918,4.1216,4.1484,4.1845,4.1954,4.1742,4.1788,4.1771,4.1742,4.1374,4.1099,4.0938,4.08,4.0823,4.0846,4.0892,4.0938,4.1007,4.0984,4.0816,4.0661,4.0634,4.0841,4.1081,4.1235,4.1412,4.1407,4.1293,4.1196,4.1196,4.1196,4.1196,4.1196,4.1196,4.1196,4.1196,4.1196,4.1196,4.1196,4.1196,4.1196,4.1196,4.1196,3.1559,3.163,3.2193,3.2561,3.2771,3.333,3.3678,3.3817,3.3817,3.3817,3.3817,3.3817,3.3817,3.3817,3.3817,3.3817,3.3817,3.3817,3.3817,3.3817,3.3817,3.3817,3.3817,3.3817,3.3817,3.3817,3.3817,3.3817,3.3817,3.3817,3.3817,3.3817,3.3817,3.3817,3.3886,3.437,3.4715,3.5059,3.5606,3.5967,3.6035,3.6035,3.6035,3.6016,3.584,3.5644,3.5351,3.5117,3.4668,3.4453,3.4023,3.3789,3.3711,3.3574,3.3418,3.3437,3.3672,3.3672,3.354,3.4087,3.4458,3.4891,3.564,3.631,3.7002,3.7721,3.853,3.9189,3.9689,3.9908,4.0081,4.0795,4.1119,4.1508,4.1956,4.2148,4.2275,4.2275,4.2161,4.2229,4.2229,4.188,4.1581,4.1581,4.1512,4.1558,4.1581,4.165,4.1581,4.1489,4.142,4.1283,4.1107,4.093,4.1164,4.1372,4.1472,4.1638,4.1742,4.1547,4.1268,4.1196,4.1244,4.122,4.1196,4.1196,4.1196,4.1196,4.1196,4.1196,4.1196,4.1196,4.1196,4.1196,4.1196,3.1559,3.17,3.2421,3.2719,3.2771,3.3469,3.3817,3.3817,3.3817,3.3817,3.3817,3.3817,3.3817,3.3817,3.3817,3.3817,3.3817,3.3817,3.3817,3.3817,3.3817,3.3817,3.3817,3.3817,3.3817,3.3817,3.3817,3.3817,3.3817,3.3817,3.3817,3.3817,3.3817,3.3817,3.3886,3.4232,3.4646,3.5127,3.5675,3.5967,3.6035,3.6035,3.6035,3.6035,3.5996,3.5879,3.5605,3.5391,3.5137,3.4883,3.4453,3.4238,3.418,3.4004,3.3867,3.3906,3.4121,3.4185,3.4201,3.4588,3.4946,3.5486,3.6198,3.7126,3.8039,3.8572,3.9002,3.9733,3.9973,4.0257,4.0517,4.0971,4.1293,4.155,4.1956,4.2148,4.2275,4.2275,4.2275,4.2275,4.2275,4.2275,4.2155,4.2161,4.2184,4.2229,4.2275,4.2275,4.2155,4.1903,4.1834,4.1719,4.1667,4.1476,4.1615,4.1737,4.1798,4.1852,4.1959,4.1907,4.1653,4.1437,4.1413,4.1365,4.1244,4.1196,4.1196,4.1196,4.1196,4.1196,4.1196,4.1196,4.1196,4.1196,4.122,3.1559,3.163,3.2421,3.2719,3.2771,3.3469,3.3817,3.3817,3.3817,3.3817,3.3817,3.3817,3.3817,3.3817,3.3817,3.3817,3.3817,3.3817,3.3817,3.3817,3.3817,3.3817,3.3817,3.3817,3.3817,3.3817,3.3817,3.3817,3.3817,3.3817,3.3817,3.3817,3.3817,3.3817,3.3955,3.4232,3.4715,3.5264,3.5743,3.6035,3.6035,3.6035,3.6035,3.6035,3.6035,3.5996,3.5937,3.5644,3.5449,3.5312,3.4902,3.4668,3.4629,3.4492,3.4394,3.4434,3.457,3.472,3.5052,3.5296,3.5759,3.6395,3.7159,3.8012,3.8761,3.9301,3.9801,4.0083,4.0236,4.0453,4.0712,4.11,4.1357,4.1678,4.202,4.2212,4.2275,4.2275,4.2275,4.2275,4.2275,4.2275,4.2275,4.2275,4.2275,4.2275,4.2275,4.2275,4.2275,4.2155,4.2201,4.2178,4.2201,4.2109,4.2109,4.2147,4.214,4.2202,4.2291,4.2209,4.2038,4.187,4.1629,4.1437,4.1317,4.1244,4.1196,4.1196,4.1196,4.1196,4.1196,4.1196,4.1196,4.1196,4.1244,3.1559,3.163,3.2421,3.2719,3.2771,3.3469,3.3817,3.3817,3.3817,3.3817,3.3817,3.3817,3.3817,3.3817,3.3817,3.3817,3.3817,3.3817,3.3817,3.3817,3.3817,3.3817,3.3817,3.3817,3.3817,3.3817,3.3817,3.3817,3.3817,3.3817,3.3817,3.3817,3.3817,3.3817,3.3955,3.437,3.4853,3.5196,3.5675,3.6035,3.6035,3.6035,3.6035,3.6035,3.6035,3.6035,3.5996,3.5879,3.5801,3.5664,3.5332,3.5176,3.5078,3.4902,3.4785,3.4824,3.498,3.5362,3.585,3.5992,3.6132,3.7085,3.7874,3.8624,3.921,3.9494,3.9888,4.0149,4.0344,4.0453,4.0777,4.11,4.1421,4.1742,4.1998,4.2212,4.2275,4.2275,4.2275,4.2275,4.2275,4.2275,4.2275,4.2275,4.2275,4.2275,4.2275,4.2275,4.2275,4.2275,4.2275,4.2275,4.2275,4.2275,4.2293,4.2362,4.2467,4.2544,4.2569,4.2555,4.2424,4.2062,4.1822,4.1605,4.1437,4.1341,4.1268,4.122,4.1196,4.1196,4.1196,4.1196,4.1196,4.1244,4.1413,3.1559,3.17,3.2263,3.2631,3.2771,3.3469,3.3817,3.3817,3.3817,3.3817,3.3817,3.3817,3.3817,3.3817,3.3817,3.3817,3.3817,3.3817,3.3817,3.3817,3.3817,3.3817,3.3817,3.3817,3.3817,3.3817,3.3817,3.3817,3.3817,3.3817,3.3817,3.3817,3.3817,3.3817,3.3955,3.4508,3.4921,3.5059,3.5606,3.6035,3.6035,3.6035,3.6035,3.6035,3.6035,3.6035,3.6035,3.5976,3.5976,3.5898,3.5742,3.5605,3.5469,3.5312,3.5117,3.5195,3.5399,3.5882,3.6316,3.6745,3.684,3.7649,3.8364,3.8882,3.921,3.9625,4.0084,4.0214,4.0409,4.0582,4.0906,4.1293,4.1614,4.1998,4.2148,4.2275,4.2275,4.2275,4.2275,4.2275,4.2275,4.2275,4.2275,4.2275,4.2275,4.2275,4.2275,4.2275,4.2275,4.2275,4.2275,4.2275,4.2275,4.2275,4.2316,4.2391,4.2464,4.2755,4.2785,4.2895,4.2771,4.2472,4.223,4.2158,4.1918,4.1557,4.1389,4.1389,4.1293,4.1196,4.1196,4.1244,4.1509,4.1629,4.1846,3.1559,3.163,3.1965,3.2333,3.2701,3.3469,3.3817,3.3747,3.3817,3.3817,3.3817,3.3817,3.3817,3.3817,3.3817,3.3817,3.3817,3.3817,3.3817,3.3817,3.3817,3.3817,3.3817,3.3817,3.3817,3.3817,3.3817,3.3817,3.3817,3.3817,3.3817,3.3853,3.3872,3.3872,3.3904,3.4508,3.4853,3.5059,3.5675,3.5947,3.6035,3.6035,3.6035,3.6035,3.6035,3.6035,3.6035,3.6035,3.6035,3.5996,3.5976,3.5898,3.5879,3.5859,3.582,3.5859,3.5898,3.6296,3.6971,3.7642,3.7934,3.8113,3.866,3.9078,3.9341,3.9735,4.0214,4.0344,4.0517,4.0841,4.1229,4.155,4.187,4.2061,4.2275,4.2275,4.2275,4.2275,4.2275,4.2275,4.2275,4.2275,4.2275,4.2275,4.2275,4.2275,4.2275,4.2275,4.2275,4.2275,4.2275,4.2275,4.2275,4.2275,4.2275,4.2275,4.242,4.2713,4.2974,4.3065,4.3198,4.3083,4.2916,4.276,4.2399,4.2014,4.1774,4.1581,4.1629,4.1677,4.1365,4.1413,4.176,4.2073,4.2313,3.1559,3.163,3.1965,3.2193,3.2403,3.3121,3.3469,3.3539,3.3678,3.3817,3.3817,3.3817,3.3817,3.3817,3.3817,3.3817,3.3817,3.3817,3.3817,3.3817,3.3817,3.3817,3.3817,3.3817,3.3817,3.3817,3.3817,3.3853,3.3817,3.3908,3.3853,3.3853,3.4092,3.4037,3.4098,3.4508,3.4921,3.5059,3.5538,3.6035,3.6035,3.6035,3.6035,3.6035,3.6035,3.6035,3.6035,3.6035,3.6035,3.6035,3.6035,3.6035,3.6035,3.6035,3.6035,3.6016,3.6016,3.6355,3.7011,3.7683,3.8171,3.8391,3.8769,3.9144,3.9276,3.9888,4.0214,4.0409,4.0647,4.0971,4.1229,4.1614,4.187,4.2125,4.2275,4.2275,4.2275,4.2275,4.2275,4.2275,4.2275,4.2275,4.2275,4.2275,4.2275,4.2275,4.2275,4.2275,4.2275,4.2275,4.2275,4.2275,4.2275,4.2275,4.2275,4.2275,4.2402,4.2696,4.3051,4.3333,4.3431,4.3501,4.3492,4.3265,4.2856,4.253,4.2279,4.2134,4.2254,4.223,4.199,4.1966,4.2327,4.2627,4.2735,3.1559,3.163,3.1841,3.1912,3.2052,3.2771,3.3139,3.3348,3.3678,3.3817,3.3817,3.3817,3.3817,3.3817,3.3817,3.3817,3.3817,3.3817,3.3817,3.3817,3.3817,3.3817,3.3817,3.3817,3.3817,3.3853,3.3963,3.4037,3.4073,3.4183,3.4275,3.4385,3.4477,3.4495,3.4523,3.4813,3.5149,3.5337,3.5692,3.6035,3.6035,3.6035,3.6035,3.6035,3.6035,3.6035,3.6035,3.6035,3.6035,3.6035,3.6035,3.6035,3.6035,3.6035,3.6035,3.6016,3.6355,3.6606,3.7146,3.7995,3.8373,3.8528,3.894,3.9165,3.9341,3.9888,4.0214,4.0409,4.0756,4.1015,4.136,4.1682,4.2089,4.2367,4.2431,4.2431,4.2367,4.2431,4.2431,4.2431,4.2431,4.2344,4.2298,4.2275,4.2275,4.2275,4.2275,4.2275,4.2275,4.2275,4.2275,4.2275,4.2275,4.2275,4.2275,4.2275,4.2402,4.2593,4.2949,4.3389,4.3568,4.3602,4.3706,4.3746,4.3337,4.3,4.2843,4.2771,4.276,4.2808,4.276,4.2808,4.3,4.3096,4.3216,3.1559,3.1559,3.1559,3.163,3.17,3.2421,3.2911,3.333,3.3608,3.3817,3.3817,3.3817,3.3817,3.3817,3.3817,3.3817,3.3817,3.3817,3.3817,3.3817,3.3817,3.3817,3.3817,3.3817,3.3872,3.4,3.4147,3.4312,3.444,3.4642,3.4844,3.499,3.4937,3.5027,3.515,3.5392,3.559,3.5718,3.5935,3.6142,3.6191,3.6055,3.6035,3.6035,3.6035,3.6035,3.6035,3.6035,3.6035,3.6035,3.6035,3.6035,3.6035,3.6035,3.6035,3.6259,3.6754,3.7044,3.7476,3.8411,3.8765,3.8901,3.9214,3.9247,3.9578,4.019,4.0563,4.0804,4.1153,4.1302,4.1559,4.2033,4.2463,4.2591,4.2591,4.2591,4.2568,4.2568,4.2591,4.2591,4.2614,4.2614,4.2545,4.25,4.2545,4.2275,4.2275,4.2275,4.2275,4.2275,4.2275,4.2275,4.2275,4.2275,4.2275,4.2275,4.2466,4.2656,4.3012,4.3389,4.3553,4.3778,4.3969,4.3986,4.377,4.3553,4.3385,4.3241,4.3168,4.3241,4.3385,4.3457,4.3553,4.3577,4.3697,3.1559,3.1559,3.1559,3.1559,3.163,3.2052,3.2684,3.3278,3.3418,3.3539,3.3817,3.3817,3.3817,3.3817,3.3817,3.3817,3.3817,3.3817,3.3817,3.3817,3.3817,3.3817,3.3817,3.3835,3.3963,3.4183,3.4367,3.4587,3.4807,3.5045,3.5265,3.5394,3.5449,3.5577,3.5814,3.6193,3.6161,3.6175,3.6371,3.6474,3.6387,3.625,3.6191,3.6133,3.6152,3.6152,3.6152,3.6133,3.6113,3.6074,3.6055,3.6035,3.6035,3.6035,3.6162,3.6838,3.7377,3.7819,3.8397,3.8973,3.9261,3.9488,3.9888,4.0138,4.0433,4.0772,4.1197,4.1353,4.1749,4.1968,4.2208,4.2688,4.299,4.3119,4.3119,4.3119,4.3119,4.3119,4.3119,4.3119,4.3119,4.3028,4.2936,4.289,4.289,4.2545,4.2321,4.2454,4.2321,4.2344,4.2275,4.2275,4.2275,4.2275,4.2275,4.2275,4.2443,4.2633,4.3012,4.3389,4.3678,4.3927,4.4223,4.4189,4.4034,4.401,4.4034,4.3866,4.3673,4.389,4.4034,4.4021,4.4021,4.3973,4.401,3.1559,3.1559,3.1559,3.1559,3.163,3.1841,3.2263,3.2841,3.3121,3.3418,3.3626,3.3747,3.3817,3.3817,3.3817,3.3817,3.3817,3.3817,3.3817,3.3817,3.3817,3.3817,3.3817,3.3853,3.4037,3.4293,3.4623,3.4899,3.5192,3.5467,3.5687,3.5815,3.5852,3.5981,3.6257,3.666,3.6856,3.6837,3.6829,3.6942,3.6797,3.6641,3.6582,3.6484,3.6484,3.6484,3.6484,3.6484,3.6504,3.6504,3.6523,3.6523,3.6543,3.6562,3.672,3.7451,3.7817,3.8312,3.8812,3.9404,3.9695,3.9986,4.0577,4.1029,4.1182,4.1399,4.1564,4.168,4.2282,4.2816,4.3082,4.3347,4.3522,4.3762,4.3762,4.3762,4.3762,4.3762,4.3762,4.3762,4.3693,4.3579,4.3487,4.3418,4.3349,4.3188,4.3096,4.3119,4.2867,4.2568,4.2431,4.2275,4.2275,4.2275,4.2339,4.2339,4.2506,4.2759,4.3075,4.3389,4.374,4.4013,4.4285,4.4285,4.4261,4.4213,4.4165,4.4213,4.4141,4.4285,4.4285,4.4213,4.4165,4.4165,4.4189,3.1559,3.1559,3.1559,3.1559,3.1559,3.163,3.1841,3.2175,3.2911,3.326,3.34,3.3678,3.3817,3.3817,3.3817,3.3817,3.3817,3.3817,3.3817,3.3817,3.3817,3.3817,3.3817,3.3853,3.4128,3.4458,3.4825,3.5155,3.5632,3.587,3.6017,3.6201,3.6164,3.6182,3.6386,3.6977,3.7232,3.7391,3.7402,3.7461,3.7344,3.7305,3.7305,3.7226,3.7207,3.7226,3.7226,3.7266,3.7305,3.7285,3.7246,3.7207,3.7187,3.7168,3.7437,3.7887,3.8327,3.8867,3.938,3.9976,4.015,4.0597,4.132,4.1643,4.1759,4.2007,4.2155,4.2294,4.2836,4.3242,4.3512,4.3982,4.4293,4.4359,4.4359,4.4359,4.4359,4.4359,4.4336,4.4336,4.4336,4.4199,4.3969,4.39,4.3739,4.3739,4.3648,4.3625,4.3464,4.2982,4.2752,4.2545,4.2362,4.2362,4.2339,4.2402,4.2593,4.2822,4.3137,4.3514,4.395,4.4137,4.4285,4.4285,4.4285,4.4285,4.4261,4.4285,4.4285,4.4285,4.4285,4.4285,4.4285,4.4285,4.4285,3.1559,3.1559,3.1559,3.1559,3.1559,3.1559,3.1771,3.2123,3.2631,3.3051,3.3348,3.3608,3.3817,3.3817,3.3817,3.3817,3.3817,3.3817,3.3817,3.3817,3.3817,3.3817,3.3817,3.3835,3.422,3.4715,3.5082,3.543,3.5907,3.6146,3.6201,3.6201,3.6201,3.6293,3.659,3.7181,3.7476,3.7751,3.7977,3.7969,3.7793,3.7461,3.7305,3.7324,3.7344,3.7402,3.7402,3.7363,3.7324,3.7285,3.7285,3.7285,3.7285,3.7324,3.7834,3.8617,3.8909,3.9384,4.0012,4.048,4.0613,4.0888,4.1439,4.1764,4.2123,4.2553,4.286,4.3046,4.3299,4.3642,4.4029,4.4482,4.4955,4.4887,4.491,4.491,4.491,4.4887,4.4887,4.491,4.491,4.475,4.4497,4.4336,4.4153,4.4015,4.3831,4.3785,4.3831,4.3579,4.3372,4.3074,4.2522,4.2408,4.2408,4.2529,4.2696,4.3075,4.3389,4.3764,4.4075,4.4223,4.4285,4.4285,4.4285,4.4285,4.4285,4.4285,4.4285,4.4285,4.4285,4.4285,4.4285,4.4285,4.4285,3.1422,3.1559,3.1559,3.1559,3.1559,3.1559,3.1771,3.2123,3.2561,3.2911,3.3348,3.3608,3.3817,3.3817,3.3817,3.3817,3.3817,3.3817,3.3817,3.3817,3.3817,3.3817,3.3817,3.3835,3.4348,3.4862,3.5412,3.5852,3.6164,3.6201,3.6201,3.6201,3.6201,3.6442,3.6812,3.7181,3.7568,3.8009,3.8428,3.8418,3.8184,3.7969,3.7871,3.7871,3.7851,3.7851,3.7871,3.7871,3.7871,3.7871,3.793,3.791,3.793,3.7949,3.8438,3.9057,3.9444,3.981,4.0586,4.0882,4.0882,4.1075,4.1573,4.1926,4.2159,4.2522,4.3032,4.3218,4.3749,4.4094,4.4277,4.4755,4.5095,4.5231,4.5231,4.5231,4.5231,4.5231,4.5231,4.5231,4.5231,4.514,4.4956,4.4933,4.4796,4.4773,4.4543,4.4428,4.4405,4.4199,4.3992,4.3693,4.3165,4.2775,4.2752,4.2801,4.2886,4.3263,4.3663,4.3888,4.4137,4.4223,4.4285,4.4285,4.4285,4.4285,4.4285,4.4285,4.4285,4.4285,4.4285,4.4285,4.4285,4.4285,4.4285,3.1148,3.1474,3.1491,3.1525,3.163,3.163,3.1912,3.2263,3.2631,3.2999,3.34,3.3678,3.3817,3.3817,3.3817,3.3817,3.3817,3.3817,3.3817,3.3817,3.3817,3.3817,3.3817,3.3872,3.4385,3.5045,3.5705,3.5962,3.6201,3.6201,3.6201,3.6201,3.6275,3.6442,3.6812,3.7255,3.7623,3.8063,3.8428,3.8574,3.8555,3.8574,3.8496,3.8516,3.8574,3.8574,3.8574,3.8555,3.8555,3.8516,3.8437,3.8418,3.8471,3.8524,3.8977,3.949,3.9757,4.0157,4.0719,4.0882,4.0882,4.1096,4.1664,4.2018,4.218,4.2624,4.3066,4.3485,4.3972,4.4342,4.4548,4.4891,4.5233,4.5438,4.5438,4.5438,4.5438,4.5438,4.5438,4.5438,4.5438,4.5415,4.5415,4.5392,4.5415,4.5438,4.5438,4.5438,4.53,4.4887,4.4612,4.4313,4.3923,4.3579,4.3322,4.3275,4.3332,4.353,4.3954,4.4108,4.4161,4.4285,4.4285,4.4285,4.4285,4.4285,4.4285,4.4285,4.4285,4.4285,4.4285,4.4285,4.4285,4.4285,4.4285,3.0772,3.1114,3.1114,3.1268,3.1595,3.1894,3.2263,3.2631,3.2981,3.34,3.3608,3.3747,3.3817,3.3817,3.3817,3.3817,3.3817,3.3817,3.3817,3.3817,3.3817,3.3817,3.3872,3.4,3.4367,3.5045,3.576,3.6127,3.6201,3.6201,3.6201,3.6201,3.6201,3.6497,3.7181,3.7476,3.7696,3.8209,3.8501,3.8574,3.8574,3.8574,3.8574,3.8574,3.8574,3.8574,3.8574,3.8574,3.8574,3.8574,3.8574,3.8574,3.872,3.8885,3.9301,3.9642,3.993,4.0361,4.074,4.0882,4.0882,4.1057,4.1649,4.2146,4.245,4.2916,4.3289,4.3569,4.3944,4.4293,4.4616,4.5028,4.537,4.5438,4.5438,4.5438,4.5438,4.5438,4.5438,4.5438,4.5438,4.5438,4.5438,4.5415,4.5415,4.5438,4.5438,4.5438,4.5438,4.5323,4.5163,4.4864,4.4543,4.4374,4.4156,4.3951,4.3944,4.416,4.4284,4.4328,4.4295,4.4285,4.4285,4.4285,4.4285,4.4285,4.4285,4.4285,4.4285,4.4285,4.4285,4.4285,4.4285,4.4285,4.4285]}]]